<?xml version="1.0" encoding="UTF-8" standalone="no" ?>
<gpx xmlns="http://www.topografix.com/GPX/1/1" creator="www.ibpindex.com" version="1.1" xmlns:xsi="http://www.w3.org/2001/XMLSchema-instance" xsi:schemaLocation="http://www.topografix.com/GPX/1/1 http://www.topografix.com/GPX/1/1/gpx.xsd">
  <wpt lat="40.7855473" lon="-3.7086308">
    <ele>923</ele>
    <time>2016-12-16T19:07:35Z</time>
    <name>Repecho de 14% durante 172 metros</name>
    <src>www.cicloide.com</src>
  </wpt>
  <wpt lat="40.7864845" lon="-3.8348599">
    <ele>1247</ele>
    <time>2016-12-16T19:07:35Z</time>
    <name>Repecho de 14% durante 186 metros</name>
    <src>www.cicloide.com</src>
  </wpt>
  <wpt lat="40.7947397" lon="-3.802939">
    <ele>1279</ele>
    <time>2016-12-16T19:07:35Z</time>
    <name>Repecho de 11% durante 114 metros</name>
    <src>www.cicloide.com</src>
  </wpt>
  <wpt lat="40.8002461" lon="-3.8019014">
    <ele>1377</ele>
    <time>2016-12-16T19:07:35Z</time>
    <name>Repecho de 11% durante 301 metros</name>
    <src>www.cicloide.com</src>
  </wpt>
  <wpt lat="40.813887" lon="-3.7807531">
    <ele>1197</ele>
    <time>2016-12-16T19:07:35Z</time>
    <name>Repecho de 11% durante 112 metros</name>
    <src>www.cicloide.com</src>
  </wpt>
  <trk>
    <name>2026-08-29-GuadalixLosTorosBelen</name>
    <desc>2026-08-29-GuadalixLosTorosBelen</desc>
    <trkseg>
      <trkpt lat="40.784770316" lon="-3.692027014">
        <ele>896.80</ele>
        <time>2026-08-29T07:32:58Z</time>
      </trkpt>
      <trkpt lat="40.784821277" lon="-3.692010920">
        <ele>896.80</ele>
        <time>2026-08-29T07:33:21Z</time>
      </trkpt>
      <trkpt lat="40.784958070" lon="-3.692048304">
        <ele>896.80</ele>
        <time>2026-08-29T07:33:29Z</time>
      </trkpt>
      <trkpt lat="40.785162589" lon="-3.692002706">
        <ele>896.80</ele>
        <time>2026-08-29T07:33:35Z</time>
      </trkpt>
      <trkpt lat="40.785280606" lon="-3.691962138">
        <ele>897.20</ele>
        <time>2026-08-29T07:33:40Z</time>
      </trkpt>
      <trkpt lat="40.785430977" lon="-3.691901201">
        <ele>897.20</ele>
        <time>2026-08-29T07:33:46Z</time>
      </trkpt>
      <trkpt lat="40.785592748" lon="-3.691843115">
        <ele>897.40</ele>
        <time>2026-08-29T07:33:51Z</time>
      </trkpt>
      <trkpt lat="40.785745550" lon="-3.691769438">
        <ele>897.20</ele>
        <time>2026-08-29T07:33:56Z</time>
      </trkpt>
      <trkpt lat="40.785909668" lon="-3.691631136">
        <ele>896.80</ele>
        <time>2026-08-29T07:34:02Z</time>
      </trkpt>
      <trkpt lat="40.786084263" lon="-3.691500463">
        <ele>896.80</ele>
        <time>2026-08-29T07:34:07Z</time>
      </trkpt>
      <trkpt lat="40.786196915" lon="-3.691430390">
        <ele>896.60</ele>
        <time>2026-08-29T07:34:10Z</time>
      </trkpt>
      <trkpt lat="40.786501514" lon="-3.691301644">
        <ele>896.40</ele>
        <time>2026-08-29T07:34:17Z</time>
      </trkpt>
      <trkpt lat="40.786598912" lon="-3.691272726">
        <ele>896.20</ele>
        <time>2026-08-29T07:34:19Z</time>
      </trkpt>
      <trkpt lat="40.786801251" lon="-3.691240288">
        <ele>896.00</ele>
        <time>2026-08-29T07:34:23Z</time>
      </trkpt>
      <trkpt lat="40.787007781" lon="-3.691214388">
        <ele>895.80</ele>
        <time>2026-08-29T07:34:27Z</time>
      </trkpt>
      <trkpt lat="40.787093695" lon="-3.691179603">
        <ele>895.80</ele>
        <time>2026-08-29T07:34:29Z</time>
      </trkpt>
      <trkpt lat="40.787258064" lon="-3.691175161">
        <ele>895.60</ele>
        <time>2026-08-29T07:34:40Z</time>
      </trkpt>
      <trkpt lat="40.787421428" lon="-3.691229727">
        <ele>895.40</ele>
        <time>2026-08-29T07:34:45Z</time>
      </trkpt>
      <trkpt lat="40.787519161" lon="-3.691208353">
        <ele>894.80</ele>
        <time>2026-08-29T07:34:47Z</time>
      </trkpt>
      <trkpt lat="40.787674394" lon="-3.691155296">
        <ele>894.40</ele>
        <time>2026-08-29T07:34:50Z</time>
      </trkpt>
      <trkpt lat="40.787816299" lon="-3.691196535">
        <ele>894.20</ele>
        <time>2026-08-29T07:34:53Z</time>
      </trkpt>
      <trkpt lat="40.787886791" lon="-3.691333495">
        <ele>894.00</ele>
        <time>2026-08-29T07:34:56Z</time>
      </trkpt>
      <trkpt lat="40.788010759" lon="-3.691571625">
        <ele>894.00</ele>
        <time>2026-08-29T07:35:02Z</time>
      </trkpt>
      <trkpt lat="40.788116287" lon="-3.691809755">
        <ele>894.40</ele>
        <time>2026-08-29T07:35:09Z</time>
      </trkpt>
      <trkpt lat="40.788246291" lon="-3.692211080">
        <ele>894.60</ele>
        <time>2026-08-29T07:35:19Z</time>
      </trkpt>
      <trkpt lat="40.788308568" lon="-3.692344353">
        <ele>894.60</ele>
        <time>2026-08-29T07:35:23Z</time>
      </trkpt>
      <trkpt lat="40.788468746" lon="-3.692330439">
        <ele>894.40</ele>
        <time>2026-08-29T07:35:28Z</time>
      </trkpt>
      <trkpt lat="40.788626745" lon="-3.692345191">
        <ele>894.60</ele>
        <time>2026-08-29T07:35:33Z</time>
      </trkpt>
      <trkpt lat="40.788733698" lon="-3.692522384">
        <ele>894.60</ele>
        <time>2026-08-29T07:35:38Z</time>
      </trkpt>
      <trkpt lat="40.788736967" lon="-3.692775182">
        <ele>895.00</ele>
        <time>2026-08-29T07:35:43Z</time>
      </trkpt>
      <trkpt lat="40.788672930" lon="-3.693073746">
        <ele>895.00</ele>
        <time>2026-08-29T07:35:49Z</time>
      </trkpt>
      <trkpt lat="40.788549716" lon="-3.693362335">
        <ele>895.00</ele>
        <time>2026-08-29T07:35:55Z</time>
      </trkpt>
      <trkpt lat="40.788369253" lon="-3.693589484">
        <ele>895.40</ele>
        <time>2026-08-29T07:36:01Z</time>
      </trkpt>
      <trkpt lat="40.788193233" lon="-3.693808839">
        <ele>895.60</ele>
        <time>2026-08-29T07:36:07Z</time>
      </trkpt>
      <trkpt lat="40.788129782" lon="-3.694062391">
        <ele>896.00</ele>
        <time>2026-08-29T07:36:12Z</time>
      </trkpt>
      <trkpt lat="40.788067924" lon="-3.694231790">
        <ele>896.00</ele>
        <time>2026-08-29T07:36:16Z</time>
      </trkpt>
      <trkpt lat="40.788031295" lon="-3.694434967">
        <ele>896.20</ele>
        <time>2026-08-29T07:36:21Z</time>
      </trkpt>
      <trkpt lat="40.788010173" lon="-3.694718359">
        <ele>896.40</ele>
        <time>2026-08-29T07:36:26Z</time>
      </trkpt>
      <trkpt lat="40.788015369" lon="-3.694963614">
        <ele>896.40</ele>
        <time>2026-08-29T07:36:30Z</time>
      </trkpt>
      <trkpt lat="40.788020398" lon="-3.695085235">
        <ele>896.60</ele>
        <time>2026-08-29T07:36:32Z</time>
      </trkpt>
      <trkpt lat="40.788055183" lon="-3.695293609">
        <ele>896.20</ele>
        <time>2026-08-29T07:36:36Z</time>
      </trkpt>
      <trkpt lat="40.788102793" lon="-3.695623185">
        <ele>897.00</ele>
        <time>2026-08-29T07:36:43Z</time>
      </trkpt>
      <trkpt lat="40.788125675" lon="-3.695917390">
        <ele>897.60</ele>
        <time>2026-08-29T07:36:48Z</time>
      </trkpt>
      <trkpt lat="40.788129615" lon="-3.696303125">
        <ele>897.80</ele>
        <time>2026-08-29T07:36:54Z</time>
      </trkpt>
      <trkpt lat="40.788095249" lon="-3.696558522">
        <ele>897.60</ele>
        <time>2026-08-29T07:36:58Z</time>
      </trkpt>
      <trkpt lat="40.787988296" lon="-3.696838310">
        <ele>897.80</ele>
        <time>2026-08-29T07:37:03Z</time>
      </trkpt>
      <trkpt lat="40.787935993" lon="-3.696938222">
        <ele>898.00</ele>
        <time>2026-08-29T07:37:05Z</time>
      </trkpt>
      <trkpt lat="40.787834320" lon="-3.697147015">
        <ele>898.20</ele>
        <time>2026-08-29T07:37:09Z</time>
      </trkpt>
      <trkpt lat="40.787789812" lon="-3.697253130">
        <ele>898.20</ele>
        <time>2026-08-29T07:37:11Z</time>
      </trkpt>
      <trkpt lat="40.787571128" lon="-3.697582036">
        <ele>898.40</ele>
        <time>2026-08-29T07:37:19Z</time>
      </trkpt>
      <trkpt lat="40.787417823" lon="-3.697769037">
        <ele>898.40</ele>
        <time>2026-08-29T07:37:24Z</time>
      </trkpt>
      <trkpt lat="40.787284048" lon="-3.697967269">
        <ele>898.60</ele>
        <time>2026-08-29T07:37:29Z</time>
      </trkpt>
      <trkpt lat="40.787218586" lon="-3.698114036">
        <ele>899.00</ele>
        <time>2026-08-29T07:37:32Z</time>
      </trkpt>
      <trkpt lat="40.787168210" lon="-3.698266167">
        <ele>899.00</ele>
        <time>2026-08-29T07:37:35Z</time>
      </trkpt>
      <trkpt lat="40.787088331" lon="-3.698637234">
        <ele>899.20</ele>
        <time>2026-08-29T07:37:42Z</time>
      </trkpt>
      <trkpt lat="40.787001159" lon="-3.698908472">
        <ele>899.40</ele>
        <time>2026-08-29T07:37:47Z</time>
      </trkpt>
      <trkpt lat="40.786889428" lon="-3.699341733">
        <ele>899.60</ele>
        <time>2026-08-29T07:37:55Z</time>
      </trkpt>
      <trkpt lat="40.786812315" lon="-3.699697377">
        <ele>899.80</ele>
        <time>2026-08-29T07:38:02Z</time>
      </trkpt>
      <trkpt lat="40.786708295" lon="-3.700035587">
        <ele>900.00</ele>
        <time>2026-08-29T07:38:09Z</time>
      </trkpt>
      <trkpt lat="40.786692789" lon="-3.700341191">
        <ele>900.20</ele>
        <time>2026-08-29T07:38:15Z</time>
      </trkpt>
      <trkpt lat="40.786677953" lon="-3.700693063">
        <ele>900.60</ele>
        <time>2026-08-29T07:38:22Z</time>
      </trkpt>
      <trkpt lat="40.786637552" lon="-3.701009480">
        <ele>900.80</ele>
        <time>2026-08-29T07:38:29Z</time>
      </trkpt>
      <trkpt lat="40.786612490" lon="-3.701124480">
        <ele>901.20</ele>
        <time>2026-08-29T07:38:33Z</time>
      </trkpt>
      <trkpt lat="40.786604276" lon="-3.701322963">
        <ele>901.40</ele>
        <time>2026-08-29T07:38:39Z</time>
      </trkpt>
      <trkpt lat="40.786591619" lon="-3.701468138">
        <ele>901.60</ele>
        <time>2026-08-29T07:38:44Z</time>
      </trkpt>
      <trkpt lat="40.786519786" lon="-3.701640973">
        <ele>902.80</ele>
        <time>2026-08-29T07:38:50Z</time>
      </trkpt>
      <trkpt lat="40.786529090" lon="-3.701821771">
        <ele>904.20</ele>
        <time>2026-08-29T07:38:55Z</time>
      </trkpt>
      <trkpt lat="40.786560439" lon="-3.702062415">
        <ele>904.80</ele>
        <time>2026-08-29T07:39:00Z</time>
      </trkpt>
      <trkpt lat="40.786601594" lon="-3.702358380">
        <ele>905.00</ele>
        <time>2026-08-29T07:39:06Z</time>
      </trkpt>
      <trkpt lat="40.786673762" lon="-3.702663481">
        <ele>905.00</ele>
        <time>2026-08-29T07:39:12Z</time>
      </trkpt>
      <trkpt lat="40.786712067" lon="-3.702774961">
        <ele>905.00</ele>
        <time>2026-08-29T07:39:14Z</time>
      </trkpt>
      <trkpt lat="40.786791276" lon="-3.703023400">
        <ele>905.00</ele>
        <time>2026-08-29T07:39:18Z</time>
      </trkpt>
      <trkpt lat="40.786850872" lon="-3.703204114">
        <ele>905.20</ele>
        <time>2026-08-29T07:39:21Z</time>
      </trkpt>
      <trkpt lat="40.786875933" lon="-3.703333447">
        <ele>905.40</ele>
        <time>2026-08-29T07:39:23Z</time>
      </trkpt>
      <trkpt lat="40.786889764" lon="-3.703461438">
        <ele>905.40</ele>
        <time>2026-08-29T07:39:25Z</time>
      </trkpt>
      <trkpt lat="40.786865875" lon="-3.703589849">
        <ele>905.40</ele>
        <time>2026-08-29T07:39:27Z</time>
      </trkpt>
      <trkpt lat="40.786821451" lon="-3.703706944">
        <ele>905.60</ele>
        <time>2026-08-29T07:39:29Z</time>
      </trkpt>
      <trkpt lat="40.786734698" lon="-3.703925796">
        <ele>905.80</ele>
        <time>2026-08-29T07:39:33Z</time>
      </trkpt>
      <trkpt lat="40.786709050" lon="-3.704085890">
        <ele>906.00</ele>
        <time>2026-08-29T07:39:36Z</time>
      </trkpt>
      <trkpt lat="40.786713324" lon="-3.704269119">
        <ele>906.00</ele>
        <time>2026-08-29T07:39:39Z</time>
      </trkpt>
      <trkpt lat="40.786739057" lon="-3.704458801">
        <ele>906.00</ele>
        <time>2026-08-29T07:39:42Z</time>
      </trkpt>
      <trkpt lat="40.786777111" lon="-3.704867000">
        <ele>905.80</ele>
        <time>2026-08-29T07:39:49Z</time>
      </trkpt>
      <trkpt lat="40.786761856" lon="-3.705102280">
        <ele>906.00</ele>
        <time>2026-08-29T07:39:53Z</time>
      </trkpt>
      <trkpt lat="40.786733860" lon="-3.705265308">
        <ele>906.00</ele>
        <time>2026-08-29T07:39:56Z</time>
      </trkpt>
      <trkpt lat="40.786695555" lon="-3.705481729">
        <ele>906.60</ele>
        <time>2026-08-29T07:40:01Z</time>
      </trkpt>
      <trkpt lat="40.786644509" lon="-3.705668561">
        <ele>908.20</ele>
        <time>2026-08-29T07:40:07Z</time>
      </trkpt>
      <trkpt lat="40.786689268" lon="-3.705851790">
        <ele>908.20</ele>
        <time>2026-08-29T07:40:11Z</time>
      </trkpt>
      <trkpt lat="40.786837628" lon="-3.706170050">
        <ele>908.60</ele>
        <time>2026-08-29T07:40:18Z</time>
      </trkpt>
      <trkpt lat="40.787019348" lon="-3.706299048">
        <ele>908.80</ele>
        <time>2026-08-29T07:40:23Z</time>
      </trkpt>
      <trkpt lat="40.787168378" lon="-3.706310447">
        <ele>909.40</ele>
        <time>2026-08-29T07:40:28Z</time>
      </trkpt>
      <trkpt lat="40.787369628" lon="-3.706261162">
        <ele>910.20</ele>
        <time>2026-08-29T07:40:34Z</time>
      </trkpt>
      <trkpt lat="40.787483286" lon="-3.706347076">
        <ele>910.00</ele>
        <time>2026-08-29T07:40:37Z</time>
      </trkpt>
      <trkpt lat="40.787523603" lon="-3.706531981">
        <ele>910.20</ele>
        <time>2026-08-29T07:40:40Z</time>
      </trkpt>
      <trkpt lat="40.787452776" lon="-3.706663996">
        <ele>910.60</ele>
        <time>2026-08-29T07:40:43Z</time>
      </trkpt>
      <trkpt lat="40.787289245" lon="-3.706731135">
        <ele>911.00</ele>
        <time>2026-08-29T07:40:47Z</time>
      </trkpt>
      <trkpt lat="40.787171144" lon="-3.706776230">
        <ele>911.40</ele>
        <time>2026-08-29T07:40:50Z</time>
      </trkpt>
      <trkpt lat="40.786896637" lon="-3.706941102">
        <ele>912.60</ele>
        <time>2026-08-29T07:40:57Z</time>
      </trkpt>
      <trkpt lat="40.786780547" lon="-3.707003044">
        <ele>913.20</ele>
        <time>2026-08-29T07:41:00Z</time>
      </trkpt>
      <trkpt lat="40.786592960" lon="-3.707101112">
        <ele>913.80</ele>
        <time>2026-08-29T07:41:05Z</time>
      </trkpt>
      <trkpt lat="40.786331948" lon="-3.707225667">
        <ele>915.20</ele>
        <time>2026-08-29T07:41:12Z</time>
      </trkpt>
      <trkpt lat="40.786053333" lon="-3.707359275">
        <ele>916.20</ele>
        <time>2026-08-29T07:41:20Z</time>
      </trkpt>
      <trkpt lat="40.785898687" lon="-3.707440663">
        <ele>916.80</ele>
        <time>2026-08-29T07:41:25Z</time>
      </trkpt>
      <trkpt lat="40.785761559" lon="-3.707592459">
        <ele>917.80</ele>
        <time>2026-08-29T07:41:31Z</time>
      </trkpt>
      <trkpt lat="40.785744460" lon="-3.707821704">
        <ele>917.80</ele>
        <time>2026-08-29T07:41:36Z</time>
      </trkpt>
      <trkpt lat="40.785695594" lon="-3.708086992">
        <ele>918.60</ele>
        <time>2026-08-29T07:41:42Z</time>
      </trkpt>
      <trkpt lat="40.785654606" lon="-3.708219258">
        <ele>919.40</ele>
        <time>2026-08-29T07:41:45Z</time>
      </trkpt>
      <trkpt lat="40.785596939" lon="-3.708379185">
        <ele>921.00</ele>
        <time>2026-08-29T07:41:49Z</time>
      </trkpt>
      <trkpt lat="40.785547318" lon="-3.708630810">
        <ele>923.40</ele>
        <time>2026-08-29T07:41:55Z</time>
      </trkpt>
      <trkpt lat="40.785494847" lon="-3.708839603">
        <ele>926.20</ele>
        <time>2026-08-29T07:42:01Z</time>
      </trkpt>
      <trkpt lat="40.785443047" lon="-3.709016126">
        <ele>929.00</ele>
        <time>2026-08-29T07:42:06Z</time>
      </trkpt>
      <trkpt lat="40.785400551" lon="-3.709183093">
        <ele>931.20</ele>
        <time>2026-08-29T07:42:11Z</time>
      </trkpt>
      <trkpt lat="40.785307512" lon="-3.709433544">
        <ele>934.00</ele>
        <time>2026-08-29T07:42:18Z</time>
      </trkpt>
      <trkpt lat="40.785237439" lon="-3.709627837">
        <ele>936.80</ele>
        <time>2026-08-29T07:42:24Z</time>
      </trkpt>
      <trkpt lat="40.785181448" lon="-3.709783070">
        <ele>938.80</ele>
        <time>2026-08-29T07:42:29Z</time>
      </trkpt>
      <trkpt lat="40.785138533" lon="-3.709922628">
        <ele>940.60</ele>
        <time>2026-08-29T07:42:33Z</time>
      </trkpt>
      <trkpt lat="40.785067454" lon="-3.710124549">
        <ele>943.20</ele>
        <time>2026-08-29T07:42:39Z</time>
      </trkpt>
      <trkpt lat="40.785026383" lon="-3.710230747">
        <ele>944.00</ele>
        <time>2026-08-29T07:42:42Z</time>
      </trkpt>
      <trkpt lat="40.784979109" lon="-3.710355386">
        <ele>945.60</ele>
        <time>2026-08-29T07:42:46Z</time>
      </trkpt>
      <trkpt lat="40.784940384" lon="-3.710477343">
        <ele>947.20</ele>
        <time>2026-08-29T07:42:50Z</time>
      </trkpt>
      <trkpt lat="40.784891434" lon="-3.710608184">
        <ele>948.20</ele>
        <time>2026-08-29T07:42:54Z</time>
      </trkpt>
      <trkpt lat="40.784854135" lon="-3.710742546">
        <ele>949.80</ele>
        <time>2026-08-29T07:42:58Z</time>
      </trkpt>
      <trkpt lat="40.784805184" lon="-3.710892750">
        <ele>950.80</ele>
        <time>2026-08-29T07:43:02Z</time>
      </trkpt>
      <trkpt lat="40.784771740" lon="-3.711040858">
        <ele>952.20</ele>
        <time>2026-08-29T07:43:06Z</time>
      </trkpt>
      <trkpt lat="40.784720276" lon="-3.711292651">
        <ele>953.20</ele>
        <time>2026-08-29T07:43:12Z</time>
      </trkpt>
      <trkpt lat="40.784662524" lon="-3.711625999">
        <ele>954.40</ele>
        <time>2026-08-29T07:43:19Z</time>
      </trkpt>
      <trkpt lat="40.784596307" lon="-3.712012572">
        <ele>955.60</ele>
        <time>2026-08-29T07:43:27Z</time>
      </trkpt>
      <trkpt lat="40.784564540" lon="-3.712236704">
        <ele>956.80</ele>
        <time>2026-08-29T07:43:32Z</time>
      </trkpt>
      <trkpt lat="40.784529503" lon="-3.712396799">
        <ele>958.20</ele>
        <time>2026-08-29T07:43:36Z</time>
      </trkpt>
      <trkpt lat="40.784484828" lon="-3.712639622">
        <ele>959.20</ele>
        <time>2026-08-29T07:43:42Z</time>
      </trkpt>
      <trkpt lat="40.784459095" lon="-3.712775242">
        <ele>959.80</ele>
        <time>2026-08-29T07:43:45Z</time>
      </trkpt>
      <trkpt lat="40.784410900" lon="-3.713102723">
        <ele>960.40</ele>
        <time>2026-08-29T07:43:52Z</time>
      </trkpt>
      <trkpt lat="40.784378713" lon="-3.713389635">
        <ele>960.80</ele>
        <time>2026-08-29T07:43:58Z</time>
      </trkpt>
      <trkpt lat="40.784357926" lon="-3.713794062">
        <ele>961.60</ele>
        <time>2026-08-29T07:44:06Z</time>
      </trkpt>
      <trkpt lat="40.784352394" lon="-3.714206703">
        <ele>962.40</ele>
        <time>2026-08-29T07:44:14Z</time>
      </trkpt>
      <trkpt lat="40.784337139" lon="-3.714716155">
        <ele>963.60</ele>
        <time>2026-08-29T07:44:24Z</time>
      </trkpt>
      <trkpt lat="40.784307467" lon="-3.715012288">
        <ele>964.60</ele>
        <time>2026-08-29T07:44:30Z</time>
      </trkpt>
      <trkpt lat="40.784276119" lon="-3.715339852">
        <ele>966.20</ele>
        <time>2026-08-29T07:44:37Z</time>
      </trkpt>
      <trkpt lat="40.784262875" lon="-3.715526685">
        <ele>967.40</ele>
        <time>2026-08-29T07:44:41Z</time>
      </trkpt>
      <trkpt lat="40.784254912" lon="-3.715713685">
        <ele>968.40</ele>
        <time>2026-08-29T07:44:45Z</time>
      </trkpt>
      <trkpt lat="40.784283495" lon="-3.716044268">
        <ele>969.40</ele>
        <time>2026-08-29T07:44:52Z</time>
      </trkpt>
      <trkpt lat="40.784333115" lon="-3.716308884">
        <ele>969.20</ele>
        <time>2026-08-29T07:44:57Z</time>
      </trkpt>
      <trkpt lat="40.784428334" lon="-3.716645082">
        <ele>968.60</ele>
        <time>2026-08-29T07:45:04Z</time>
      </trkpt>
      <trkpt lat="40.784470076" lon="-3.716856558">
        <ele>968.60</ele>
        <time>2026-08-29T07:45:08Z</time>
      </trkpt>
      <trkpt lat="40.784454821" lon="-3.717130227">
        <ele>968.80</ele>
        <time>2026-08-29T07:45:13Z</time>
      </trkpt>
      <trkpt lat="40.784441410" lon="-3.717295518">
        <ele>969.00</ele>
        <time>2026-08-29T07:45:16Z</time>
      </trkpt>
      <trkpt lat="40.784424311" lon="-3.717458630">
        <ele>969.20</ele>
        <time>2026-08-29T07:45:19Z</time>
      </trkpt>
      <trkpt lat="40.784393968" lon="-3.717719475">
        <ele>969.80</ele>
        <time>2026-08-29T07:45:24Z</time>
      </trkpt>
      <trkpt lat="40.784355998" lon="-3.718041172">
        <ele>970.40</ele>
        <time>2026-08-29T07:45:30Z</time>
      </trkpt>
      <trkpt lat="40.784312077" lon="-3.718277710">
        <ele>971.40</ele>
        <time>2026-08-29T07:45:35Z</time>
      </trkpt>
      <trkpt lat="40.784277208" lon="-3.718534447">
        <ele>973.20</ele>
        <time>2026-08-29T07:45:41Z</time>
      </trkpt>
      <trkpt lat="40.784260277" lon="-3.718745420">
        <ele>976.00</ele>
        <time>2026-08-29T07:45:46Z</time>
      </trkpt>
      <trkpt lat="40.784252314" lon="-3.718865197">
        <ele>977.00</ele>
        <time>2026-08-29T07:45:49Z</time>
      </trkpt>
      <trkpt lat="40.784239657" lon="-3.718983382">
        <ele>978.20</ele>
        <time>2026-08-29T07:45:52Z</time>
      </trkpt>
      <trkpt lat="40.784235969" lon="-3.719106847">
        <ele>979.40</ele>
        <time>2026-08-29T07:45:55Z</time>
      </trkpt>
      <trkpt lat="40.784232449" lon="-3.719230900">
        <ele>980.60</ele>
        <time>2026-08-29T07:45:58Z</time>
      </trkpt>
      <trkpt lat="40.784231694" lon="-3.719362076">
        <ele>981.80</ele>
        <time>2026-08-29T07:46:01Z</time>
      </trkpt>
      <trkpt lat="40.784224570" lon="-3.719540695">
        <ele>982.80</ele>
        <time>2026-08-29T07:46:05Z</time>
      </trkpt>
      <trkpt lat="40.784233036" lon="-3.719669357">
        <ele>983.60</ele>
        <time>2026-08-29T07:46:08Z</time>
      </trkpt>
      <trkpt lat="40.784222223" lon="-3.719916623">
        <ele>984.60</ele>
        <time>2026-08-29T07:46:13Z</time>
      </trkpt>
      <trkpt lat="40.784207219" lon="-3.720179815">
        <ele>985.40</ele>
        <time>2026-08-29T07:46:18Z</time>
      </trkpt>
      <trkpt lat="40.784196826" lon="-3.720543589">
        <ele>986.60</ele>
        <time>2026-08-29T07:46:25Z</time>
      </trkpt>
      <trkpt lat="40.784199089" lon="-3.720695889">
        <ele>987.60</ele>
        <time>2026-08-29T07:46:28Z</time>
      </trkpt>
      <trkpt lat="40.784184337" lon="-3.720873501">
        <ele>989.00</ele>
        <time>2026-08-29T07:46:32Z</time>
      </trkpt>
      <trkpt lat="40.784119293" lon="-3.721143650">
        <ele>991.00</ele>
        <time>2026-08-29T07:46:39Z</time>
      </trkpt>
      <trkpt lat="40.784021979" lon="-3.721404159">
        <ele>991.00</ele>
        <time>2026-08-29T07:46:45Z</time>
      </trkpt>
      <trkpt lat="40.783914942" lon="-3.721641870">
        <ele>990.80</ele>
        <time>2026-08-29T07:46:50Z</time>
      </trkpt>
      <trkpt lat="40.783833051" lon="-3.721779920">
        <ele>990.20</ele>
        <time>2026-08-29T07:46:53Z</time>
      </trkpt>
      <trkpt lat="40.783752669" lon="-3.721925095">
        <ele>989.60</ele>
        <time>2026-08-29T07:46:56Z</time>
      </trkpt>
      <trkpt lat="40.783648817" lon="-3.722054763">
        <ele>989.00</ele>
        <time>2026-08-29T07:46:59Z</time>
      </trkpt>
      <trkpt lat="40.783544378" lon="-3.722164817">
        <ele>988.60</ele>
        <time>2026-08-29T07:47:02Z</time>
      </trkpt>
      <trkpt lat="40.783460811" lon="-3.722232375">
        <ele>988.40</ele>
        <time>2026-08-29T07:47:04Z</time>
      </trkpt>
      <trkpt lat="40.783315217" lon="-3.722299431">
        <ele>988.20</ele>
        <time>2026-08-29T07:47:07Z</time>
      </trkpt>
      <trkpt lat="40.783163672" lon="-3.722355170">
        <ele>987.80</ele>
        <time>2026-08-29T07:47:10Z</time>
      </trkpt>
      <trkpt lat="40.783055965" lon="-3.722380400">
        <ele>987.60</ele>
        <time>2026-08-29T07:47:12Z</time>
      </trkpt>
      <trkpt lat="40.782968458" lon="-3.722430691">
        <ele>986.80</ele>
        <time>2026-08-29T07:47:14Z</time>
      </trkpt>
      <trkpt lat="40.782871312" lon="-3.722455334">
        <ele>986.20</ele>
        <time>2026-08-29T07:47:16Z</time>
      </trkpt>
      <trkpt lat="40.782772489" lon="-3.722534208">
        <ele>985.00</ele>
        <time>2026-08-29T07:47:18Z</time>
      </trkpt>
      <trkpt lat="40.782646090" lon="-3.722705785">
        <ele>984.00</ele>
        <time>2026-08-29T07:47:21Z</time>
      </trkpt>
      <trkpt lat="40.782569395" lon="-3.722808463">
        <ele>983.20</ele>
        <time>2026-08-29T07:47:23Z</time>
      </trkpt>
      <trkpt lat="40.782456826" lon="-3.722955314">
        <ele>982.60</ele>
        <time>2026-08-29T07:47:26Z</time>
      </trkpt>
      <trkpt lat="40.782381222" lon="-3.723052461">
        <ele>982.40</ele>
        <time>2026-08-29T07:47:28Z</time>
      </trkpt>
      <trkpt lat="40.782259097" lon="-3.723234851">
        <ele>982.20</ele>
        <time>2026-08-29T07:47:32Z</time>
      </trkpt>
      <trkpt lat="40.782118784" lon="-3.723501479">
        <ele>982.00</ele>
        <time>2026-08-29T07:47:37Z</time>
      </trkpt>
      <trkpt lat="40.782009317" lon="-3.723747320">
        <ele>982.60</ele>
        <time>2026-08-29T07:47:42Z</time>
      </trkpt>
      <trkpt lat="40.781922480" lon="-3.723966172">
        <ele>982.80</ele>
        <time>2026-08-29T07:47:46Z</time>
      </trkpt>
      <trkpt lat="40.781855257" lon="-3.724174546">
        <ele>983.60</ele>
        <time>2026-08-29T07:47:50Z</time>
      </trkpt>
      <trkpt lat="40.781790381" lon="-3.724317541">
        <ele>984.40</ele>
        <time>2026-08-29T07:47:53Z</time>
      </trkpt>
      <trkpt lat="40.781687787" lon="-3.724556006">
        <ele>985.80</ele>
        <time>2026-08-29T07:47:58Z</time>
      </trkpt>
      <trkpt lat="40.781601705" lon="-3.724762117">
        <ele>987.00</ele>
        <time>2026-08-29T07:48:02Z</time>
      </trkpt>
      <trkpt lat="40.781533644" lon="-3.724908801">
        <ele>987.80</ele>
        <time>2026-08-29T07:48:05Z</time>
      </trkpt>
      <trkpt lat="40.781407580" lon="-3.725172663">
        <ele>989.20</ele>
        <time>2026-08-29T07:48:11Z</time>
      </trkpt>
      <trkpt lat="40.781340357" lon="-3.725336445">
        <ele>990.20</ele>
        <time>2026-08-29T07:48:15Z</time>
      </trkpt>
      <trkpt lat="40.781251090" lon="-3.725513639">
        <ele>991.00</ele>
        <time>2026-08-29T07:48:19Z</time>
      </trkpt>
      <trkpt lat="40.781206246" lon="-3.725651186">
        <ele>992.20</ele>
        <time>2026-08-29T07:48:22Z</time>
      </trkpt>
      <trkpt lat="40.781149585" lon="-3.725777920">
        <ele>993.00</ele>
        <time>2026-08-29T07:48:25Z</time>
      </trkpt>
      <trkpt lat="40.781091666" lon="-3.725908343">
        <ele>993.80</ele>
        <time>2026-08-29T07:48:28Z</time>
      </trkpt>
      <trkpt lat="40.781023772" lon="-3.726077825">
        <ele>995.20</ele>
        <time>2026-08-29T07:48:32Z</time>
      </trkpt>
      <trkpt lat="40.780971386" lon="-3.726192154">
        <ele>996.40</ele>
        <time>2026-08-29T07:48:35Z</time>
      </trkpt>
      <trkpt lat="40.780897290" lon="-3.726373455">
        <ele>997.60</ele>
        <time>2026-08-29T07:48:39Z</time>
      </trkpt>
      <trkpt lat="40.780826127" lon="-3.726513097">
        <ele>998.40</ele>
        <time>2026-08-29T07:48:42Z</time>
      </trkpt>
      <trkpt lat="40.780762173" lon="-3.726702696">
        <ele>999.40</ele>
        <time>2026-08-29T07:48:46Z</time>
      </trkpt>
      <trkpt lat="40.780699477" lon="-3.726837728">
        <ele>1000.00</ele>
        <time>2026-08-29T07:48:49Z</time>
      </trkpt>
      <trkpt lat="40.780596128" lon="-3.727083569">
        <ele>1001.00</ele>
        <time>2026-08-29T07:48:54Z</time>
      </trkpt>
      <trkpt lat="40.780517422" lon="-3.727211393">
        <ele>1001.60</ele>
        <time>2026-08-29T07:48:57Z</time>
      </trkpt>
      <trkpt lat="40.780430082" lon="-3.727337541">
        <ele>1002.20</ele>
        <time>2026-08-29T07:49:00Z</time>
      </trkpt>
      <trkpt lat="40.780326482" lon="-3.727450781">
        <ele>1002.80</ele>
        <time>2026-08-29T07:49:03Z</time>
      </trkpt>
      <trkpt lat="40.780243333" lon="-3.727518925">
        <ele>1003.20</ele>
        <time>2026-08-29T07:49:05Z</time>
      </trkpt>
      <trkpt lat="40.780117270" lon="-3.727603415">
        <ele>1003.80</ele>
        <time>2026-08-29T07:49:08Z</time>
      </trkpt>
      <trkpt lat="40.779961450" lon="-3.727705590">
        <ele>1004.40</ele>
        <time>2026-08-29T07:49:12Z</time>
      </trkpt>
      <trkpt lat="40.779844522" lon="-3.727794606">
        <ele>1005.00</ele>
        <time>2026-08-29T07:49:15Z</time>
      </trkpt>
      <trkpt lat="40.779674873" lon="-3.727972470">
        <ele>1006.20</ele>
        <time>2026-08-29T07:49:20Z</time>
      </trkpt>
      <trkpt lat="40.779515868" lon="-3.728199536">
        <ele>1007.60</ele>
        <time>2026-08-29T07:49:25Z</time>
      </trkpt>
      <trkpt lat="40.779466331" lon="-3.728299532">
        <ele>1008.00</ele>
        <time>2026-08-29T07:49:27Z</time>
      </trkpt>
      <trkpt lat="40.779411932" lon="-3.728456274">
        <ele>1008.80</ele>
        <time>2026-08-29T07:49:30Z</time>
      </trkpt>
      <trkpt lat="40.779329455" lon="-3.728584517">
        <ele>1010.00</ele>
        <time>2026-08-29T07:49:33Z</time>
      </trkpt>
      <trkpt lat="40.779292574" lon="-3.728728602">
        <ele>1011.60</ele>
        <time>2026-08-29T07:49:36Z</time>
      </trkpt>
      <trkpt lat="40.779222501" lon="-3.728865897">
        <ele>1012.40</ele>
        <time>2026-08-29T07:49:39Z</time>
      </trkpt>
      <trkpt lat="40.779153267" lon="-3.728988273">
        <ele>1013.60</ele>
        <time>2026-08-29T07:49:42Z</time>
      </trkpt>
      <trkpt lat="40.779086463" lon="-3.729110397">
        <ele>1014.80</ele>
        <time>2026-08-29T07:49:45Z</time>
      </trkpt>
      <trkpt lat="40.778976828" lon="-3.729423294">
        <ele>1016.00</ele>
        <time>2026-08-29T07:49:51Z</time>
      </trkpt>
      <trkpt lat="40.778852860" lon="-3.729640301">
        <ele>1016.20</ele>
        <time>2026-08-29T07:49:56Z</time>
      </trkpt>
      <trkpt lat="40.778803071" lon="-3.729790086">
        <ele>1016.20</ele>
        <time>2026-08-29T07:49:59Z</time>
      </trkpt>
      <trkpt lat="40.778757725" lon="-3.729906091">
        <ele>1016.00</ele>
        <time>2026-08-29T07:50:01Z</time>
      </trkpt>
      <trkpt lat="40.778649347" lon="-3.730227286">
        <ele>1015.40</ele>
        <time>2026-08-29T07:50:06Z</time>
      </trkpt>
      <trkpt lat="40.778625207" lon="-3.730374556">
        <ele>1015.40</ele>
        <time>2026-08-29T07:50:08Z</time>
      </trkpt>
      <trkpt lat="40.778528228" lon="-3.730640933">
        <ele>1014.80</ele>
        <time>2026-08-29T07:50:12Z</time>
      </trkpt>
      <trkpt lat="40.778451702" lon="-3.730737828">
        <ele>1015.00</ele>
        <time>2026-08-29T07:50:14Z</time>
      </trkpt>
      <trkpt lat="40.778336534" lon="-3.730860287">
        <ele>1015.60</ele>
        <time>2026-08-29T07:50:17Z</time>
      </trkpt>
      <trkpt lat="40.778149953" lon="-3.731044773">
        <ele>1016.40</ele>
        <time>2026-08-29T07:50:22Z</time>
      </trkpt>
      <trkpt lat="40.778072756" lon="-3.731122054">
        <ele>1016.60</ele>
        <time>2026-08-29T07:50:24Z</time>
      </trkpt>
      <trkpt lat="40.777772851" lon="-3.731442243">
        <ele>1017.60</ele>
        <time>2026-08-29T07:50:32Z</time>
      </trkpt>
      <trkpt lat="40.777706131" lon="-3.731533941">
        <ele>1017.80</ele>
        <time>2026-08-29T07:50:34Z</time>
      </trkpt>
      <trkpt lat="40.777658354" lon="-3.731645672">
        <ele>1017.80</ele>
        <time>2026-08-29T07:50:36Z</time>
      </trkpt>
      <trkpt lat="40.777491136" lon="-3.732068958">
        <ele>1017.60</ele>
        <time>2026-08-29T07:50:43Z</time>
      </trkpt>
      <trkpt lat="40.777326515" lon="-3.732492998">
        <ele>1017.60</ele>
        <time>2026-08-29T07:50:50Z</time>
      </trkpt>
      <trkpt lat="40.777178323" lon="-3.732830370">
        <ele>1017.60</ele>
        <time>2026-08-29T07:50:56Z</time>
      </trkpt>
      <trkpt lat="40.777024850" lon="-3.733170843">
        <ele>1017.60</ele>
        <time>2026-08-29T07:51:03Z</time>
      </trkpt>
      <trkpt lat="40.776939606" lon="-3.733352982">
        <ele>1018.20</ele>
        <time>2026-08-29T07:51:07Z</time>
      </trkpt>
      <trkpt lat="40.776802981" lon="-3.733498156">
        <ele>1018.80</ele>
        <time>2026-08-29T07:51:11Z</time>
      </trkpt>
      <trkpt lat="40.776624950" lon="-3.733622041">
        <ele>1018.60</ele>
        <time>2026-08-29T07:51:15Z</time>
      </trkpt>
      <trkpt lat="40.776490085" lon="-3.733694293">
        <ele>1018.60</ele>
        <time>2026-08-29T07:51:18Z</time>
      </trkpt>
      <trkpt lat="40.776367206" lon="-3.733736034">
        <ele>1019.00</ele>
        <time>2026-08-29T07:51:21Z</time>
      </trkpt>
      <trkpt lat="40.776224211" lon="-3.733782722">
        <ele>1019.40</ele>
        <time>2026-08-29T07:51:24Z</time>
      </trkpt>
      <trkpt lat="40.776117761" lon="-3.733802000">
        <ele>1019.60</ele>
        <time>2026-08-29T07:51:26Z</time>
      </trkpt>
      <trkpt lat="40.775976023" lon="-3.733836785">
        <ele>1020.00</ele>
        <time>2026-08-29T07:51:29Z</time>
      </trkpt>
      <trkpt lat="40.775892707" lon="-3.733886071">
        <ele>1020.60</ele>
        <time>2026-08-29T07:51:31Z</time>
      </trkpt>
      <trkpt lat="40.775714172" lon="-3.734046500">
        <ele>1021.80</ele>
        <time>2026-08-29T07:51:36Z</time>
      </trkpt>
      <trkpt lat="40.775496745" lon="-3.734212043">
        <ele>1023.20</ele>
        <time>2026-08-29T07:51:42Z</time>
      </trkpt>
      <trkpt lat="40.775376381" lon="-3.734292006">
        <ele>1023.40</ele>
        <time>2026-08-29T07:51:45Z</time>
      </trkpt>
      <trkpt lat="40.775274960" lon="-3.734415891">
        <ele>1023.40</ele>
        <time>2026-08-29T07:51:48Z</time>
      </trkpt>
      <trkpt lat="40.775074046" lon="-3.734693332">
        <ele>1023.20</ele>
        <time>2026-08-29T07:51:54Z</time>
      </trkpt>
      <trkpt lat="40.774964578" lon="-3.734987704">
        <ele>1023.20</ele>
        <time>2026-08-29T07:52:00Z</time>
      </trkpt>
      <trkpt lat="40.774887884" lon="-3.735297918">
        <ele>1023.80</ele>
        <time>2026-08-29T07:52:06Z</time>
      </trkpt>
      <trkpt lat="40.774847316" lon="-3.735524481">
        <ele>1024.00</ele>
        <time>2026-08-29T07:52:10Z</time>
      </trkpt>
      <trkpt lat="40.774789648" lon="-3.735682229">
        <ele>1024.60</ele>
        <time>2026-08-29T07:52:13Z</time>
      </trkpt>
      <trkpt lat="40.774684036" lon="-3.735924130">
        <ele>1025.60</ele>
        <time>2026-08-29T07:52:18Z</time>
      </trkpt>
      <trkpt lat="40.774600971" lon="-3.736119764">
        <ele>1027.40</ele>
        <time>2026-08-29T07:52:22Z</time>
      </trkpt>
      <trkpt lat="40.774551602" lon="-3.736274829">
        <ele>1028.60</ele>
        <time>2026-08-29T07:52:25Z</time>
      </trkpt>
      <trkpt lat="40.774494857" lon="-3.736490160">
        <ele>1029.80</ele>
        <time>2026-08-29T07:52:29Z</time>
      </trkpt>
      <trkpt lat="40.774464682" lon="-3.736776570">
        <ele>1031.00</ele>
        <time>2026-08-29T07:52:34Z</time>
      </trkpt>
      <trkpt lat="40.774445990" lon="-3.736940939">
        <ele>1032.40</ele>
        <time>2026-08-29T07:52:37Z</time>
      </trkpt>
      <trkpt lat="40.774388323" lon="-3.737083096">
        <ele>1033.40</ele>
        <time>2026-08-29T07:52:40Z</time>
      </trkpt>
      <trkpt lat="40.774304168" lon="-3.737209160">
        <ele>1034.40</ele>
        <time>2026-08-29T07:52:43Z</time>
      </trkpt>
      <trkpt lat="40.774226636" lon="-3.737335475">
        <ele>1036.20</ele>
        <time>2026-08-29T07:52:46Z</time>
      </trkpt>
      <trkpt lat="40.774152372" lon="-3.737482075">
        <ele>1037.40</ele>
        <time>2026-08-29T07:52:49Z</time>
      </trkpt>
      <trkpt lat="40.774100907" lon="-3.737630434">
        <ele>1038.20</ele>
        <time>2026-08-29T07:52:52Z</time>
      </trkpt>
      <trkpt lat="40.773984734" lon="-3.737955736">
        <ele>1039.40</ele>
        <time>2026-08-29T07:52:59Z</time>
      </trkpt>
      <trkpt lat="40.773844672" lon="-3.738245163">
        <ele>1038.80</ele>
        <time>2026-08-29T07:53:08Z</time>
      </trkpt>
      <trkpt lat="40.773763619" lon="-3.738423362">
        <ele>1038.40</ele>
        <time>2026-08-29T07:53:12Z</time>
      </trkpt>
      <trkpt lat="40.773669407" lon="-3.738676999">
        <ele>1038.40</ele>
        <time>2026-08-29T07:53:18Z</time>
      </trkpt>
      <trkpt lat="40.773672508" lon="-3.738849498">
        <ele>1038.40</ele>
        <time>2026-08-29T07:53:22Z</time>
      </trkpt>
      <trkpt lat="40.773769738" lon="-3.739042869">
        <ele>1038.80</ele>
        <time>2026-08-29T07:53:27Z</time>
      </trkpt>
      <trkpt lat="40.773907788" lon="-3.739254847">
        <ele>1039.80</ele>
        <time>2026-08-29T07:53:33Z</time>
      </trkpt>
      <trkpt lat="40.774019603" lon="-3.739452241">
        <ele>1041.20</ele>
        <time>2026-08-29T07:53:38Z</time>
      </trkpt>
      <trkpt lat="40.774134770" lon="-3.739588447">
        <ele>1042.60</ele>
        <time>2026-08-29T07:53:42Z</time>
      </trkpt>
      <trkpt lat="40.774292015" lon="-3.739734460">
        <ele>1043.80</ele>
        <time>2026-08-29T07:53:47Z</time>
      </trkpt>
      <trkpt lat="40.774355968" lon="-3.739937469">
        <ele>1045.00</ele>
        <time>2026-08-29T07:53:51Z</time>
      </trkpt>
      <trkpt lat="40.774493096" lon="-3.740163278">
        <ele>1046.20</ele>
        <time>2026-08-29T07:53:56Z</time>
      </trkpt>
      <trkpt lat="40.774600217" lon="-3.740339298">
        <ele>1046.80</ele>
        <time>2026-08-29T07:54:00Z</time>
      </trkpt>
      <trkpt lat="40.774671882" lon="-3.740480952">
        <ele>1047.00</ele>
        <time>2026-08-29T07:54:03Z</time>
      </trkpt>
      <trkpt lat="40.774781099" lon="-3.740658313">
        <ele>1047.40</ele>
        <time>2026-08-29T07:54:07Z</time>
      </trkpt>
      <trkpt lat="40.774885621" lon="-3.740907591">
        <ele>1048.00</ele>
        <time>2026-08-29T07:54:12Z</time>
      </trkpt>
      <trkpt lat="40.774991820" lon="-3.741081264">
        <ele>1048.20</ele>
        <time>2026-08-29T07:54:16Z</time>
      </trkpt>
      <trkpt lat="40.775055187" lon="-3.741177488">
        <ele>1048.40</ele>
        <time>2026-08-29T07:54:18Z</time>
      </trkpt>
      <trkpt lat="40.775364982" lon="-3.741579317">
        <ele>1047.80</ele>
        <time>2026-08-29T07:54:27Z</time>
      </trkpt>
      <trkpt lat="40.775535638" lon="-3.741746619">
        <ele>1047.00</ele>
        <time>2026-08-29T07:54:31Z</time>
      </trkpt>
      <trkpt lat="40.775613002" lon="-3.741846113">
        <ele>1046.40</ele>
        <time>2026-08-29T07:54:33Z</time>
      </trkpt>
      <trkpt lat="40.775765134" lon="-3.742023055">
        <ele>1046.00</ele>
        <time>2026-08-29T07:54:37Z</time>
      </trkpt>
      <trkpt lat="40.775839398" lon="-3.742104694">
        <ele>1045.80</ele>
        <time>2026-08-29T07:54:39Z</time>
      </trkpt>
      <trkpt lat="40.776088424" lon="-3.742195638">
        <ele>1045.00</ele>
        <time>2026-08-29T07:54:45Z</time>
      </trkpt>
      <trkpt lat="40.776301576" lon="-3.742233189">
        <ele>1044.80</ele>
        <time>2026-08-29T07:54:49Z</time>
      </trkpt>
      <trkpt lat="40.776398219" lon="-3.742274763">
        <ele>1044.40</ele>
        <time>2026-08-29T07:54:51Z</time>
      </trkpt>
      <trkpt lat="40.776563007" lon="-3.742382051">
        <ele>1044.20</ele>
        <time>2026-08-29T07:54:55Z</time>
      </trkpt>
      <trkpt lat="40.776674990" lon="-3.742487831">
        <ele>1043.60</ele>
        <time>2026-08-29T07:54:58Z</time>
      </trkpt>
      <trkpt lat="40.776840700" lon="-3.742578356">
        <ele>1043.20</ele>
        <time>2026-08-29T07:55:01Z</time>
      </trkpt>
      <trkpt lat="40.777011355" lon="-3.742641136">
        <ele>1042.80</ele>
        <time>2026-08-29T07:55:04Z</time>
      </trkpt>
      <trkpt lat="40.777096767" lon="-3.742678016">
        <ele>1042.20</ele>
        <time>2026-08-29T07:55:06Z</time>
      </trkpt>
      <trkpt lat="40.777253760" lon="-3.742749179">
        <ele>1042.00</ele>
        <time>2026-08-29T07:55:10Z</time>
      </trkpt>
      <trkpt lat="40.777322156" lon="-3.742839452">
        <ele>1041.80</ele>
        <time>2026-08-29T07:55:12Z</time>
      </trkpt>
      <trkpt lat="40.777394744" lon="-3.742918158">
        <ele>1041.60</ele>
        <time>2026-08-29T07:55:14Z</time>
      </trkpt>
      <trkpt lat="40.777556514" lon="-3.743080180">
        <ele>1041.40</ele>
        <time>2026-08-29T07:55:19Z</time>
      </trkpt>
      <trkpt lat="40.777625665" lon="-3.743202221">
        <ele>1041.00</ele>
        <time>2026-08-29T07:55:22Z</time>
      </trkpt>
      <trkpt lat="40.777685763" lon="-3.743290817">
        <ele>1040.60</ele>
        <time>2026-08-29T07:55:24Z</time>
      </trkpt>
      <trkpt lat="40.777798835" lon="-3.743435657">
        <ele>1038.20</ele>
        <time>2026-08-29T07:55:28Z</time>
      </trkpt>
      <trkpt lat="40.777930599" lon="-3.743580496">
        <ele>1036.20</ele>
        <time>2026-08-29T07:55:32Z</time>
      </trkpt>
      <trkpt lat="40.778093794" lon="-3.743841089">
        <ele>1035.20</ele>
        <time>2026-08-29T07:55:37Z</time>
      </trkpt>
      <trkpt lat="40.778089520" lon="-3.743973104">
        <ele>1035.20</ele>
        <time>2026-08-29T07:55:40Z</time>
      </trkpt>
      <trkpt lat="40.777987763" lon="-3.744099755">
        <ele>1036.20</ele>
        <time>2026-08-29T07:55:44Z</time>
      </trkpt>
      <trkpt lat="40.777893048" lon="-3.744179970">
        <ele>1037.60</ele>
        <time>2026-08-29T07:55:47Z</time>
      </trkpt>
      <trkpt lat="40.777823981" lon="-3.744289605">
        <ele>1039.20</ele>
        <time>2026-08-29T07:55:50Z</time>
      </trkpt>
      <trkpt lat="40.777737815" lon="-3.744495045">
        <ele>1040.00</ele>
        <time>2026-08-29T07:55:55Z</time>
      </trkpt>
      <trkpt lat="40.777580235" lon="-3.744604094">
        <ele>1039.80</ele>
        <time>2026-08-29T07:55:59Z</time>
      </trkpt>
      <trkpt lat="40.777478898" lon="-3.744787909">
        <ele>1040.20</ele>
        <time>2026-08-29T07:56:03Z</time>
      </trkpt>
      <trkpt lat="40.777429193" lon="-3.744903915">
        <ele>1041.00</ele>
        <time>2026-08-29T07:56:06Z</time>
      </trkpt>
      <trkpt lat="40.777325761" lon="-3.744988404">
        <ele>1041.60</ele>
        <time>2026-08-29T07:56:09Z</time>
      </trkpt>
      <trkpt lat="40.777212773" lon="-3.745071553">
        <ele>1042.60</ele>
        <time>2026-08-29T07:56:12Z</time>
      </trkpt>
      <trkpt lat="40.777100874" lon="-3.745148415">
        <ele>1043.40</ele>
        <time>2026-08-29T07:56:15Z</time>
      </trkpt>
      <trkpt lat="40.776997861" lon="-3.745183451">
        <ele>1045.00</ele>
        <time>2026-08-29T07:56:18Z</time>
      </trkpt>
      <trkpt lat="40.776895601" lon="-3.745202143">
        <ele>1046.20</ele>
        <time>2026-08-29T07:56:21Z</time>
      </trkpt>
      <trkpt lat="40.776732909" lon="-3.745269030">
        <ele>1048.40</ele>
        <time>2026-08-29T07:56:26Z</time>
      </trkpt>
      <trkpt lat="40.776639618" lon="-3.745328374">
        <ele>1049.60</ele>
        <time>2026-08-29T07:56:29Z</time>
      </trkpt>
      <trkpt lat="40.776447421" lon="-3.745413534">
        <ele>1050.40</ele>
        <time>2026-08-29T07:56:34Z</time>
      </trkpt>
      <trkpt lat="40.776168136" lon="-3.745529540">
        <ele>1051.60</ele>
        <time>2026-08-29T07:56:41Z</time>
      </trkpt>
      <trkpt lat="40.776005443" lon="-3.745540269">
        <ele>1052.00</ele>
        <time>2026-08-29T07:56:45Z</time>
      </trkpt>
      <trkpt lat="40.775859933" lon="-3.745666333">
        <ele>1052.80</ele>
        <time>2026-08-29T07:56:49Z</time>
      </trkpt>
      <trkpt lat="40.775756082" lon="-3.745760964">
        <ele>1053.60</ele>
        <time>2026-08-29T07:56:52Z</time>
      </trkpt>
      <trkpt lat="40.775668658" lon="-3.745798683">
        <ele>1054.40</ele>
        <time>2026-08-29T07:56:54Z</time>
      </trkpt>
      <trkpt lat="40.775579978" lon="-3.745823912">
        <ele>1054.80</ele>
        <time>2026-08-29T07:56:56Z</time>
      </trkpt>
      <trkpt lat="40.775470594" lon="-3.745863726">
        <ele>1055.20</ele>
        <time>2026-08-29T07:56:59Z</time>
      </trkpt>
      <trkpt lat="40.775321815" lon="-3.745981073">
        <ele>1057.00</ele>
        <time>2026-08-29T07:57:03Z</time>
      </trkpt>
      <trkpt lat="40.775220059" lon="-3.746064808">
        <ele>1058.60</ele>
        <time>2026-08-29T07:57:06Z</time>
      </trkpt>
      <trkpt lat="40.775108999" lon="-3.746190118">
        <ele>1060.60</ele>
        <time>2026-08-29T07:57:10Z</time>
      </trkpt>
      <trkpt lat="40.774992658" lon="-3.746340070">
        <ele>1062.20</ele>
        <time>2026-08-29T07:57:15Z</time>
      </trkpt>
      <trkpt lat="40.774827367" lon="-3.746464625">
        <ele>1062.80</ele>
        <time>2026-08-29T07:57:20Z</time>
      </trkpt>
      <trkpt lat="40.774739273" lon="-3.746635867">
        <ele>1062.80</ele>
        <time>2026-08-29T07:57:24Z</time>
      </trkpt>
      <trkpt lat="40.774711613" lon="-3.746791352">
        <ele>1063.20</ele>
        <time>2026-08-29T07:57:27Z</time>
      </trkpt>
      <trkpt lat="40.774632571" lon="-3.746968880">
        <ele>1063.40</ele>
        <time>2026-08-29T07:57:31Z</time>
      </trkpt>
      <trkpt lat="40.774516566" lon="-3.747085975">
        <ele>1064.40</ele>
        <time>2026-08-29T07:57:35Z</time>
      </trkpt>
      <trkpt lat="40.774303246" lon="-3.747004755">
        <ele>1065.80</ele>
        <time>2026-08-29T07:57:40Z</time>
      </trkpt>
      <trkpt lat="40.774134686" lon="-3.747015567">
        <ele>1066.80</ele>
        <time>2026-08-29T07:57:44Z</time>
      </trkpt>
      <trkpt lat="40.774047012" lon="-3.747143978">
        <ele>1067.20</ele>
        <time>2026-08-29T07:57:47Z</time>
      </trkpt>
      <trkpt lat="40.773978028" lon="-3.747224780">
        <ele>1067.40</ele>
        <time>2026-08-29T07:57:49Z</time>
      </trkpt>
      <trkpt lat="40.773848528" lon="-3.747296948">
        <ele>1068.00</ele>
        <time>2026-08-29T07:57:52Z</time>
      </trkpt>
      <trkpt lat="40.773749705" lon="-3.747315723">
        <ele>1068.20</ele>
        <time>2026-08-29T07:57:54Z</time>
      </trkpt>
      <trkpt lat="40.773653984" lon="-3.747342629">
        <ele>1068.60</ele>
        <time>2026-08-29T07:57:56Z</time>
      </trkpt>
      <trkpt lat="40.773562873" lon="-3.747394513">
        <ele>1068.80</ele>
        <time>2026-08-29T07:57:58Z</time>
      </trkpt>
      <trkpt lat="40.773458099" lon="-3.747504652">
        <ele>1069.40</ele>
        <time>2026-08-29T07:58:01Z</time>
      </trkpt>
      <trkpt lat="40.773372855" lon="-3.747548992">
        <ele>1069.80</ele>
        <time>2026-08-29T07:58:03Z</time>
      </trkpt>
      <trkpt lat="40.773241092" lon="-3.747596769">
        <ele>1070.20</ele>
        <time>2026-08-29T07:58:06Z</time>
      </trkpt>
      <trkpt lat="40.773009835" lon="-3.747683773">
        <ele>1071.60</ele>
        <time>2026-08-29T07:58:12Z</time>
      </trkpt>
      <trkpt lat="40.772874802" lon="-3.747816877">
        <ele>1072.80</ele>
        <time>2026-08-29T07:58:16Z</time>
      </trkpt>
      <trkpt lat="40.772761730" lon="-3.747902876">
        <ele>1073.60</ele>
        <time>2026-08-29T07:58:19Z</time>
      </trkpt>
      <trkpt lat="40.772546735" lon="-3.747935984">
        <ele>1075.60</ele>
        <time>2026-08-29T07:58:24Z</time>
      </trkpt>
      <trkpt lat="40.772353867" lon="-3.747973032">
        <ele>1076.00</ele>
        <time>2026-08-29T07:58:28Z</time>
      </trkpt>
      <trkpt lat="40.772263845" lon="-3.748014187">
        <ele>1076.40</ele>
        <time>2026-08-29T07:58:30Z</time>
      </trkpt>
      <trkpt lat="40.772163849" lon="-3.748123739">
        <ele>1077.00</ele>
        <time>2026-08-29T07:58:33Z</time>
      </trkpt>
      <trkpt lat="40.772048179" lon="-3.748225998">
        <ele>1078.00</ele>
        <time>2026-08-29T07:58:36Z</time>
      </trkpt>
      <trkpt lat="40.771714663" lon="-3.748494973">
        <ele>1079.00</ele>
        <time>2026-08-29T07:58:44Z</time>
      </trkpt>
      <trkpt lat="40.771643836" lon="-3.748590359">
        <ele>1079.20</ele>
        <time>2026-08-29T07:58:46Z</time>
      </trkpt>
      <trkpt lat="40.771552473" lon="-3.748741150">
        <ele>1079.40</ele>
        <time>2026-08-29T07:58:49Z</time>
      </trkpt>
      <trkpt lat="40.771384249" lon="-3.748887833">
        <ele>1079.60</ele>
        <time>2026-08-29T07:58:53Z</time>
      </trkpt>
      <trkpt lat="40.771217700" lon="-3.749025213">
        <ele>1080.40</ele>
        <time>2026-08-29T07:58:57Z</time>
      </trkpt>
      <trkpt lat="40.771167660" lon="-3.749132585">
        <ele>1080.80</ele>
        <time>2026-08-29T07:58:59Z</time>
      </trkpt>
      <trkpt lat="40.771103287" lon="-3.749309527">
        <ele>1081.40</ele>
        <time>2026-08-29T07:59:02Z</time>
      </trkpt>
      <trkpt lat="40.771004213" lon="-3.749439782">
        <ele>1081.80</ele>
        <time>2026-08-29T07:59:05Z</time>
      </trkpt>
      <trkpt lat="40.770883346" lon="-3.749534581">
        <ele>1082.20</ele>
        <time>2026-08-29T07:59:08Z</time>
      </trkpt>
      <trkpt lat="40.770785781" lon="-3.749551093">
        <ele>1082.20</ele>
        <time>2026-08-29T07:59:10Z</time>
      </trkpt>
      <trkpt lat="40.770633649" lon="-3.749653520">
        <ele>1081.20</ele>
        <time>2026-08-29T07:59:14Z</time>
      </trkpt>
      <trkpt lat="40.770577909" lon="-3.749821745">
        <ele>1080.60</ele>
        <time>2026-08-29T07:59:17Z</time>
      </trkpt>
      <trkpt lat="40.770447738" lon="-3.750059707">
        <ele>1080.20</ele>
        <time>2026-08-29T07:59:21Z</time>
      </trkpt>
      <trkpt lat="40.770399543" lon="-3.750179904">
        <ele>1080.00</ele>
        <time>2026-08-29T07:59:23Z</time>
      </trkpt>
      <trkpt lat="40.770316897" lon="-3.750310410">
        <ele>1080.00</ele>
        <time>2026-08-29T07:59:26Z</time>
      </trkpt>
      <trkpt lat="40.770222517" lon="-3.750399426">
        <ele>1080.00</ele>
        <time>2026-08-29T07:59:28Z</time>
      </trkpt>
      <trkpt lat="40.770134674" lon="-3.750506546">
        <ele>1079.80</ele>
        <time>2026-08-29T07:59:30Z</time>
      </trkpt>
      <trkpt lat="40.770048173" lon="-3.750605788">
        <ele>1079.60</ele>
        <time>2026-08-29T07:59:32Z</time>
      </trkpt>
      <trkpt lat="40.769968964" lon="-3.750718106">
        <ele>1079.80</ele>
        <time>2026-08-29T07:59:34Z</time>
      </trkpt>
      <trkpt lat="40.769715579" lon="-3.751031421">
        <ele>1079.40</ele>
        <time>2026-08-29T07:59:40Z</time>
      </trkpt>
      <trkpt lat="40.769612482" lon="-3.751219846">
        <ele>1079.00</ele>
        <time>2026-08-29T07:59:43Z</time>
      </trkpt>
      <trkpt lat="40.769472420" lon="-3.751359908">
        <ele>1078.00</ele>
        <time>2026-08-29T07:59:46Z</time>
      </trkpt>
      <trkpt lat="40.769356331" lon="-3.751402823">
        <ele>1077.00</ele>
        <time>2026-08-29T07:59:48Z</time>
      </trkpt>
      <trkpt lat="40.769244265" lon="-3.751409277">
        <ele>1076.40</ele>
        <time>2026-08-29T07:59:50Z</time>
      </trkpt>
      <trkpt lat="40.769124320" lon="-3.751365356">
        <ele>1076.20</ele>
        <time>2026-08-29T07:59:52Z</time>
      </trkpt>
      <trkpt lat="40.768952658" lon="-3.751267623">
        <ele>1075.60</ele>
        <time>2026-08-29T07:59:55Z</time>
      </trkpt>
      <trkpt lat="40.768839335" lon="-3.751228899">
        <ele>1075.40</ele>
        <time>2026-08-29T07:59:57Z</time>
      </trkpt>
      <trkpt lat="40.768537167" lon="-3.751192018">
        <ele>1074.80</ele>
        <time>2026-08-29T08:00:02Z</time>
      </trkpt>
      <trkpt lat="40.768409511" lon="-3.751227725">
        <ele>1074.40</ele>
        <time>2026-08-29T08:00:04Z</time>
      </trkpt>
      <trkpt lat="40.768286800" lon="-3.751290087">
        <ele>1074.00</ele>
        <time>2026-08-29T08:00:06Z</time>
      </trkpt>
      <trkpt lat="40.768089406" lon="-3.751270724">
        <ele>1073.20</ele>
        <time>2026-08-29T08:00:09Z</time>
      </trkpt>
      <trkpt lat="40.767892599" lon="-3.751271814">
        <ele>1072.40</ele>
        <time>2026-08-29T08:00:12Z</time>
      </trkpt>
      <trkpt lat="40.767758740" lon="-3.751260415">
        <ele>1072.00</ele>
        <time>2026-08-29T08:00:14Z</time>
      </trkpt>
      <trkpt lat="40.767636867" lon="-3.751216494">
        <ele>1071.40</ele>
        <time>2026-08-29T08:00:16Z</time>
      </trkpt>
      <trkpt lat="40.767394546" lon="-3.751204256">
        <ele>1070.20</ele>
        <time>2026-08-29T08:00:20Z</time>
      </trkpt>
      <trkpt lat="40.767282564" lon="-3.751186403">
        <ele>1069.80</ele>
        <time>2026-08-29T08:00:22Z</time>
      </trkpt>
      <trkpt lat="40.767120961" lon="-3.751160586">
        <ele>1069.60</ele>
        <time>2026-08-29T08:00:25Z</time>
      </trkpt>
      <trkpt lat="40.767011493" lon="-3.751159245">
        <ele>1069.40</ele>
        <time>2026-08-29T08:00:27Z</time>
      </trkpt>
      <trkpt lat="40.766849807" lon="-3.751223199">
        <ele>1069.40</ele>
        <time>2026-08-29T08:00:30Z</time>
      </trkpt>
      <trkpt lat="40.766681163" lon="-3.751310287">
        <ele>1069.20</ele>
        <time>2026-08-29T08:00:33Z</time>
      </trkpt>
      <trkpt lat="40.766493827" lon="-3.751381198">
        <ele>1068.60</ele>
        <time>2026-08-29T08:00:36Z</time>
      </trkpt>
      <trkpt lat="40.766369272" lon="-3.751454204">
        <ele>1068.00</ele>
        <time>2026-08-29T08:00:38Z</time>
      </trkpt>
      <trkpt lat="40.766208339" lon="-3.751593512">
        <ele>1067.20</ele>
        <time>2026-08-29T08:00:41Z</time>
      </trkpt>
      <trkpt lat="40.766091328" lon="-3.751649586">
        <ele>1066.60</ele>
        <time>2026-08-29T08:00:43Z</time>
      </trkpt>
      <trkpt lat="40.765963672" lon="-3.751680180">
        <ele>1066.20</ele>
        <time>2026-08-29T08:00:45Z</time>
      </trkpt>
      <trkpt lat="40.765841380" lon="-3.751724018">
        <ele>1065.40</ele>
        <time>2026-08-29T08:00:47Z</time>
      </trkpt>
      <trkpt lat="40.765704168" lon="-3.751860475">
        <ele>1064.80</ele>
        <time>2026-08-29T08:00:50Z</time>
      </trkpt>
      <trkpt lat="40.765645243" lon="-3.752080081">
        <ele>1064.60</ele>
        <time>2026-08-29T08:00:55Z</time>
      </trkpt>
      <trkpt lat="40.765713807" lon="-3.752160128">
        <ele>1065.20</ele>
        <time>2026-08-29T08:01:26Z</time>
      </trkpt>
      <trkpt lat="40.765669215" lon="-3.752133558">
        <ele>1065.00</ele>
        <time>2026-08-29T08:01:34Z</time>
      </trkpt>
      <trkpt lat="40.765806092" lon="-3.752221232">
        <ele>1065.20</ele>
        <time>2026-08-29T08:01:42Z</time>
      </trkpt>
      <trkpt lat="40.765935257" lon="-3.752284264">
        <ele>1065.80</ele>
        <time>2026-08-29T08:01:47Z</time>
      </trkpt>
      <trkpt lat="40.766046401" lon="-3.752336148">
        <ele>1066.60</ele>
        <time>2026-08-29T08:01:51Z</time>
      </trkpt>
      <trkpt lat="40.766145810" lon="-3.752394319">
        <ele>1067.20</ele>
        <time>2026-08-29T08:01:55Z</time>
      </trkpt>
      <trkpt lat="40.766263660" lon="-3.752435977">
        <ele>1067.60</ele>
        <time>2026-08-29T08:02:00Z</time>
      </trkpt>
      <trkpt lat="40.766457198" lon="-3.752545277">
        <ele>1068.80</ele>
        <time>2026-08-29T08:02:06Z</time>
      </trkpt>
      <trkpt lat="40.766683510" lon="-3.752676286">
        <ele>1069.80</ele>
        <time>2026-08-29T08:02:12Z</time>
      </trkpt>
      <trkpt lat="40.766971763" lon="-3.752861694">
        <ele>1070.60</ele>
        <time>2026-08-29T08:02:18Z</time>
      </trkpt>
      <trkpt lat="40.767227914" lon="-3.753019022">
        <ele>1072.20</ele>
        <time>2026-08-29T08:02:23Z</time>
      </trkpt>
      <trkpt lat="40.767332437" lon="-3.753088759">
        <ele>1072.60</ele>
        <time>2026-08-29T08:02:25Z</time>
      </trkpt>
      <trkpt lat="40.767529998" lon="-3.753213566">
        <ele>1073.80</ele>
        <time>2026-08-29T08:02:29Z</time>
      </trkpt>
      <trkpt lat="40.767677855" lon="-3.753315154">
        <ele>1075.00</ele>
        <time>2026-08-29T08:02:32Z</time>
      </trkpt>
      <trkpt lat="40.767822023" lon="-3.753404086">
        <ele>1075.80</ele>
        <time>2026-08-29T08:02:35Z</time>
      </trkpt>
      <trkpt lat="40.767967617" lon="-3.753461670">
        <ele>1076.60</ele>
        <time>2026-08-29T08:02:38Z</time>
      </trkpt>
      <trkpt lat="40.768117486" lon="-3.753497880">
        <ele>1077.40</ele>
        <time>2026-08-29T08:02:41Z</time>
      </trkpt>
      <trkpt lat="40.768280765" lon="-3.753537610">
        <ele>1078.00</ele>
        <time>2026-08-29T08:02:44Z</time>
      </trkpt>
      <trkpt lat="40.768386712" lon="-3.753558481">
        <ele>1079.00</ele>
        <time>2026-08-29T08:02:46Z</time>
      </trkpt>
      <trkpt lat="40.768539095" lon="-3.753609359">
        <ele>1080.00</ele>
        <time>2026-08-29T08:02:49Z</time>
      </trkpt>
      <trkpt lat="40.768677732" lon="-3.753677253">
        <ele>1081.00</ele>
        <time>2026-08-29T08:02:52Z</time>
      </trkpt>
      <trkpt lat="40.768811340" lon="-3.753765933">
        <ele>1082.40</ele>
        <time>2026-08-29T08:02:55Z</time>
      </trkpt>
      <trkpt lat="40.768896332" lon="-3.753825612">
        <ele>1082.80</ele>
        <time>2026-08-29T08:02:57Z</time>
      </trkpt>
      <trkpt lat="40.769080818" lon="-3.753947150">
        <ele>1050.20</ele>
        <time>2026-08-29T08:03:01Z</time>
      </trkpt>
      <trkpt lat="40.769219035" lon="-3.754062401">
        <ele>1084.60</ele>
        <time>2026-08-29T08:03:04Z</time>
      </trkpt>
      <trkpt lat="40.769478874" lon="-3.754304890">
        <ele>1086.00</ele>
        <time>2026-08-29T08:03:10Z</time>
      </trkpt>
      <trkpt lat="40.769779030" lon="-3.754607476">
        <ele>1086.80</ele>
        <time>2026-08-29T08:03:17Z</time>
      </trkpt>
      <trkpt lat="40.770008694" lon="-3.754830183">
        <ele>1087.20</ele>
        <time>2026-08-29T08:03:23Z</time>
      </trkpt>
      <trkpt lat="40.770135596" lon="-3.754964545">
        <ele>1087.00</ele>
        <time>2026-08-29T08:03:26Z</time>
      </trkpt>
      <trkpt lat="40.770262582" lon="-3.755076947">
        <ele>1087.00</ele>
        <time>2026-08-29T08:03:29Z</time>
      </trkpt>
      <trkpt lat="40.770505657" lon="-3.755281549">
        <ele>1086.20</ele>
        <time>2026-08-29T08:03:35Z</time>
      </trkpt>
      <trkpt lat="40.770630632" lon="-3.755378695">
        <ele>1086.00</ele>
        <time>2026-08-29T08:03:38Z</time>
      </trkpt>
      <trkpt lat="40.770780165" lon="-3.755500484">
        <ele>1086.00</ele>
        <time>2026-08-29T08:03:42Z</time>
      </trkpt>
      <trkpt lat="40.770882927" lon="-3.755586147">
        <ele>1086.00</ele>
        <time>2026-08-29T08:03:45Z</time>
      </trkpt>
      <trkpt lat="40.771025587" lon="-3.755692011">
        <ele>1085.80</ele>
        <time>2026-08-29T08:03:49Z</time>
      </trkpt>
      <trkpt lat="40.771214934" lon="-3.755841292">
        <ele>1085.80</ele>
        <time>2026-08-29T08:03:54Z</time>
      </trkpt>
      <trkpt lat="40.771456501" lon="-3.756043129">
        <ele>1085.20</ele>
        <time>2026-08-29T08:04:00Z</time>
      </trkpt>
      <trkpt lat="40.771614164" lon="-3.756181346">
        <ele>1084.60</ele>
        <time>2026-08-29T08:04:04Z</time>
      </trkpt>
      <trkpt lat="40.771879619" lon="-3.756375890">
        <ele>1084.00</ele>
        <time>2026-08-29T08:04:10Z</time>
      </trkpt>
      <trkpt lat="40.772097968" lon="-3.756518634">
        <ele>1083.00</ele>
        <time>2026-08-29T08:04:14Z</time>
      </trkpt>
      <trkpt lat="40.772205591" lon="-3.756591976">
        <ele>1082.00</ele>
        <time>2026-08-29T08:04:16Z</time>
      </trkpt>
      <trkpt lat="40.772528127" lon="-3.756801523">
        <ele>1080.20</ele>
        <time>2026-08-29T08:04:22Z</time>
      </trkpt>
      <trkpt lat="40.772700878" lon="-3.756963965">
        <ele>1079.00</ele>
        <time>2026-08-29T08:04:25Z</time>
      </trkpt>
      <trkpt lat="40.772810765" lon="-3.757112660">
        <ele>1078.00</ele>
        <time>2026-08-29T08:04:27Z</time>
      </trkpt>
      <trkpt lat="40.772899026" lon="-3.757288344">
        <ele>1076.20</ele>
        <time>2026-08-29T08:04:29Z</time>
      </trkpt>
      <trkpt lat="40.773000615" lon="-3.757577185">
        <ele>1074.80</ele>
        <time>2026-08-29T08:04:32Z</time>
      </trkpt>
      <trkpt lat="40.773063814" lon="-3.757778686">
        <ele>1073.60</ele>
        <time>2026-08-29T08:04:34Z</time>
      </trkpt>
      <trkpt lat="40.773109999" lon="-3.757999800">
        <ele>1072.20</ele>
        <time>2026-08-29T08:04:36Z</time>
      </trkpt>
      <trkpt lat="40.773153920" lon="-3.758227536">
        <ele>1071.00</ele>
        <time>2026-08-29T08:04:38Z</time>
      </trkpt>
      <trkpt lat="40.773214605" lon="-3.758440018">
        <ele>1069.80</ele>
        <time>2026-08-29T08:04:40Z</time>
      </trkpt>
      <trkpt lat="40.773389032" lon="-3.758788873">
        <ele>1068.40</ele>
        <time>2026-08-29T08:04:44Z</time>
      </trkpt>
      <trkpt lat="40.773702096" lon="-3.759311400">
        <ele>1068.00</ele>
        <time>2026-08-29T08:04:51Z</time>
      </trkpt>
      <trkpt lat="40.773775103" lon="-3.759449115">
        <ele>1067.60</ele>
        <time>2026-08-29T08:04:53Z</time>
      </trkpt>
      <trkpt lat="40.773914242" lon="-3.759706942">
        <ele>1066.40</ele>
        <time>2026-08-29T08:04:57Z</time>
      </trkpt>
      <trkpt lat="40.774049023" lon="-3.759961920">
        <ele>1065.80</ele>
        <time>2026-08-29T08:05:01Z</time>
      </trkpt>
      <trkpt lat="40.774138710" lon="-3.760168701">
        <ele>1064.80</ele>
        <time>2026-08-29T08:05:04Z</time>
      </trkpt>
      <trkpt lat="40.774217499" lon="-3.760386547">
        <ele>1064.20</ele>
        <time>2026-08-29T08:05:07Z</time>
      </trkpt>
      <trkpt lat="40.774288913" lon="-3.760604393">
        <ele>1063.00</ele>
        <time>2026-08-29T08:05:10Z</time>
      </trkpt>
      <trkpt lat="40.774411792" lon="-3.760980740">
        <ele>1062.00</ele>
        <time>2026-08-29T08:05:15Z</time>
      </trkpt>
      <trkpt lat="40.774492426" lon="-3.761212751">
        <ele>1061.20</ele>
        <time>2026-08-29T08:05:18Z</time>
      </trkpt>
      <trkpt lat="40.774597200" lon="-3.761538807">
        <ele>1060.00</ele>
        <time>2026-08-29T08:05:22Z</time>
      </trkpt>
      <trkpt lat="40.774659561" lon="-3.761698818">
        <ele>1059.40</ele>
        <time>2026-08-29T08:05:24Z</time>
      </trkpt>
      <trkpt lat="40.774810519" lon="-3.762007859">
        <ele>1058.40</ele>
        <time>2026-08-29T08:05:28Z</time>
      </trkpt>
      <trkpt lat="40.774893248" lon="-3.762152698">
        <ele>1058.40</ele>
        <time>2026-08-29T08:05:30Z</time>
      </trkpt>
      <trkpt lat="40.775049236" lon="-3.762438940">
        <ele>1057.40</ele>
        <time>2026-08-29T08:05:34Z</time>
      </trkpt>
      <trkpt lat="40.775109334" lon="-3.762593586">
        <ele>1056.40</ele>
        <time>2026-08-29T08:05:36Z</time>
      </trkpt>
      <trkpt lat="40.775250485" lon="-3.763000192">
        <ele>1054.80</ele>
        <time>2026-08-29T08:05:41Z</time>
      </trkpt>
      <trkpt lat="40.775321899" lon="-3.763170177">
        <ele>1053.60</ele>
        <time>2026-08-29T08:05:43Z</time>
      </trkpt>
      <trkpt lat="40.775442095" lon="-3.763438314">
        <ele>1052.20</ele>
        <time>2026-08-29T08:05:46Z</time>
      </trkpt>
      <trkpt lat="40.775523651" lon="-3.763627661">
        <ele>1051.00</ele>
        <time>2026-08-29T08:05:48Z</time>
      </trkpt>
      <trkpt lat="40.775592467" lon="-3.763807872">
        <ele>1049.80</ele>
        <time>2026-08-29T08:05:50Z</time>
      </trkpt>
      <trkpt lat="40.775689529" lon="-3.764074333">
        <ele>1048.80</ele>
        <time>2026-08-29T08:05:53Z</time>
      </trkpt>
      <trkpt lat="40.775787178" lon="-3.764341297">
        <ele>1048.00</ele>
        <time>2026-08-29T08:05:56Z</time>
      </trkpt>
      <trkpt lat="40.775890695" lon="-3.764695264">
        <ele>1046.40</ele>
        <time>2026-08-29T08:06:00Z</time>
      </trkpt>
      <trkpt lat="40.775938639" lon="-3.764858376">
        <ele>1045.60</ele>
        <time>2026-08-29T08:06:02Z</time>
      </trkpt>
      <trkpt lat="40.776039055" lon="-3.765070019">
        <ele>1043.80</ele>
        <time>2026-08-29T08:06:05Z</time>
      </trkpt>
      <trkpt lat="40.776136620" lon="-3.765189210">
        <ele>1042.60</ele>
        <time>2026-08-29T08:06:07Z</time>
      </trkpt>
      <trkpt lat="40.776255140" lon="-3.765284596">
        <ele>1042.00</ele>
        <time>2026-08-29T08:06:09Z</time>
      </trkpt>
      <trkpt lat="40.776382964" lon="-3.765375037">
        <ele>1041.40</ele>
        <time>2026-08-29T08:06:11Z</time>
      </trkpt>
      <trkpt lat="40.776603408" lon="-3.765518451">
        <ele>1039.60</ele>
        <time>2026-08-29T08:06:14Z</time>
      </trkpt>
      <trkpt lat="40.776765766" lon="-3.765607718">
        <ele>1038.00</ele>
        <time>2026-08-29T08:06:16Z</time>
      </trkpt>
      <trkpt lat="40.776926614" lon="-3.765683658">
        <ele>1037.00</ele>
        <time>2026-08-29T08:06:18Z</time>
      </trkpt>
      <trkpt lat="40.777072962" lon="-3.765745936">
        <ele>1036.40</ele>
        <time>2026-08-29T08:06:20Z</time>
      </trkpt>
      <trkpt lat="40.777197182" lon="-3.765797652">
        <ele>1036.60</ele>
        <time>2026-08-29T08:06:22Z</time>
      </trkpt>
      <trkpt lat="40.777301621" lon="-3.765850710">
        <ele>1037.00</ele>
        <time>2026-08-29T08:06:24Z</time>
      </trkpt>
      <trkpt lat="40.777452914" lon="-3.765925309">
        <ele>1037.80</ele>
        <time>2026-08-29T08:06:27Z</time>
      </trkpt>
      <trkpt lat="40.777593646" lon="-3.766004518">
        <ele>1038.80</ele>
        <time>2026-08-29T08:06:30Z</time>
      </trkpt>
      <trkpt lat="40.777719375" lon="-3.766086325">
        <ele>1040.60</ele>
        <time>2026-08-29T08:06:33Z</time>
      </trkpt>
      <trkpt lat="40.777911739" lon="-3.766219011">
        <ele>1043.00</ele>
        <time>2026-08-29T08:06:38Z</time>
      </trkpt>
      <trkpt lat="40.778025063" lon="-3.766294783">
        <ele>1044.40</ele>
        <time>2026-08-29T08:06:41Z</time>
      </trkpt>
      <trkpt lat="40.778106702" lon="-3.766349768">
        <ele>1045.40</ele>
        <time>2026-08-29T08:06:43Z</time>
      </trkpt>
      <trkpt lat="40.778234946" lon="-3.766420009">
        <ele>1047.20</ele>
        <time>2026-08-29T08:06:46Z</time>
      </trkpt>
      <trkpt lat="40.778363105" lon="-3.766490668">
        <ele>1048.60</ele>
        <time>2026-08-29T08:06:49Z</time>
      </trkpt>
      <trkpt lat="40.778497215" lon="-3.766562669">
        <ele>1049.80</ele>
        <time>2026-08-29T08:06:52Z</time>
      </trkpt>
      <trkpt lat="40.778635265" lon="-3.766621342">
        <ele>1051.00</ele>
        <time>2026-08-29T08:06:55Z</time>
      </trkpt>
      <trkpt lat="40.778735681" lon="-3.766661994">
        <ele>1051.60</ele>
        <time>2026-08-29T08:06:57Z</time>
      </trkpt>
      <trkpt lat="40.778835258" lon="-3.766695773">
        <ele>1052.00</ele>
        <time>2026-08-29T08:06:59Z</time>
      </trkpt>
      <trkpt lat="40.778988143" lon="-3.766734414">
        <ele>1052.80</ele>
        <time>2026-08-29T08:07:02Z</time>
      </trkpt>
      <trkpt lat="40.779084200" lon="-3.766741538">
        <ele>1053.00</ele>
        <time>2026-08-29T08:07:04Z</time>
      </trkpt>
      <trkpt lat="40.779251168" lon="-3.766823681">
        <ele>1053.80</ele>
        <time>2026-08-29T08:07:08Z</time>
      </trkpt>
      <trkpt lat="40.779332556" lon="-3.766913200">
        <ele>1054.40</ele>
        <time>2026-08-29T08:07:10Z</time>
      </trkpt>
      <trkpt lat="40.779383099" lon="-3.767034151">
        <ele>1054.80</ele>
        <time>2026-08-29T08:07:12Z</time>
      </trkpt>
      <trkpt lat="40.779382847" lon="-3.767234143">
        <ele>1056.00</ele>
        <time>2026-08-29T08:07:15Z</time>
      </trkpt>
      <trkpt lat="40.779312607" lon="-3.767500184">
        <ele>1057.20</ele>
        <time>2026-08-29T08:07:19Z</time>
      </trkpt>
      <trkpt lat="40.779249659" lon="-3.767678216">
        <ele>1057.80</ele>
        <time>2026-08-29T08:07:22Z</time>
      </trkpt>
      <trkpt lat="40.779194003" lon="-3.767780224">
        <ele>1058.40</ele>
        <time>2026-08-29T08:07:24Z</time>
      </trkpt>
      <trkpt lat="40.779045643" lon="-3.767943420">
        <ele>1059.60</ele>
        <time>2026-08-29T08:07:28Z</time>
      </trkpt>
      <trkpt lat="40.778907174" lon="-3.768002763">
        <ele>1061.00</ele>
        <time>2026-08-29T08:07:31Z</time>
      </trkpt>
      <trkpt lat="40.778771723" lon="-3.768054228">
        <ele>1062.40</ele>
        <time>2026-08-29T08:07:34Z</time>
      </trkpt>
      <trkpt lat="40.778537365" lon="-3.768156320">
        <ele>1063.00</ele>
        <time>2026-08-29T08:07:39Z</time>
      </trkpt>
      <trkpt lat="40.778372576" lon="-3.768419763">
        <ele>1062.80</ele>
        <time>2026-08-29T08:07:44Z</time>
      </trkpt>
      <trkpt lat="40.778337540" lon="-3.768629227">
        <ele>1063.00</ele>
        <time>2026-08-29T08:07:47Z</time>
      </trkpt>
      <trkpt lat="40.778325219" lon="-3.768769875">
        <ele>1063.00</ele>
        <time>2026-08-29T08:07:49Z</time>
      </trkpt>
      <trkpt lat="40.778358495" lon="-3.769188467">
        <ele>1063.40</ele>
        <time>2026-08-29T08:07:55Z</time>
      </trkpt>
      <trkpt lat="40.778389089" lon="-3.769316543">
        <ele>1063.60</ele>
        <time>2026-08-29T08:07:57Z</time>
      </trkpt>
      <trkpt lat="40.778460419" lon="-3.769484013">
        <ele>1063.80</ele>
        <time>2026-08-29T08:08:00Z</time>
      </trkpt>
      <trkpt lat="40.778531246" lon="-3.769626338">
        <ele>1063.60</ele>
        <time>2026-08-29T08:08:03Z</time>
      </trkpt>
      <trkpt lat="40.778624704" lon="-3.769777296">
        <ele>1063.80</ele>
        <time>2026-08-29T08:08:07Z</time>
      </trkpt>
      <trkpt lat="40.778746661" lon="-3.769916352">
        <ele>1064.20</ele>
        <time>2026-08-29T08:08:13Z</time>
      </trkpt>
      <trkpt lat="40.778840454" lon="-3.769944012">
        <ele>1065.20</ele>
        <time>2026-08-29T08:08:18Z</time>
      </trkpt>
      <trkpt lat="40.778932320" lon="-3.769931607">
        <ele>1066.00</ele>
        <time>2026-08-29T08:08:23Z</time>
      </trkpt>
      <trkpt lat="40.778977498" lon="-3.770035291">
        <ele>1066.20</ele>
        <time>2026-08-29T08:08:34Z</time>
      </trkpt>
      <trkpt lat="40.779127283" lon="-3.770002434">
        <ele>1067.00</ele>
        <time>2026-08-29T08:08:41Z</time>
      </trkpt>
      <trkpt lat="40.779252928" lon="-3.770052474">
        <ele>1068.00</ele>
        <time>2026-08-29T08:08:45Z</time>
      </trkpt>
      <trkpt lat="40.779377399" lon="-3.770104358">
        <ele>1069.20</ele>
        <time>2026-08-29T08:08:49Z</time>
      </trkpt>
      <trkpt lat="40.779545875" lon="-3.770178705">
        <ele>1070.40</ele>
        <time>2026-08-29T08:08:54Z</time>
      </trkpt>
      <trkpt lat="40.779697420" lon="-3.770238804">
        <ele>1071.20</ele>
        <time>2026-08-29T08:08:59Z</time>
      </trkpt>
      <trkpt lat="40.779794818" lon="-3.770263027">
        <ele>1071.60</ele>
        <time>2026-08-29T08:09:02Z</time>
      </trkpt>
      <trkpt lat="40.779889785" lon="-3.770296639">
        <ele>1072.00</ele>
        <time>2026-08-29T08:09:05Z</time>
      </trkpt>
      <trkpt lat="40.780054824" lon="-3.770340141">
        <ele>1072.80</ele>
        <time>2026-08-29T08:09:10Z</time>
      </trkpt>
      <trkpt lat="40.780343246" lon="-3.770385822">
        <ele>1074.20</ele>
        <time>2026-08-29T08:09:18Z</time>
      </trkpt>
      <trkpt lat="40.780557739" lon="-3.770440221">
        <ele>1075.20</ele>
        <time>2026-08-29T08:09:25Z</time>
      </trkpt>
      <trkpt lat="40.780683300" lon="-3.770476934">
        <ele>1076.40</ele>
        <time>2026-08-29T08:09:29Z</time>
      </trkpt>
      <trkpt lat="40.780876502" lon="-3.770579528">
        <ele>1077.40</ele>
        <time>2026-08-29T08:09:35Z</time>
      </trkpt>
      <trkpt lat="40.781036681" lon="-3.770657396">
        <ele>1078.60</ele>
        <time>2026-08-29T08:09:40Z</time>
      </trkpt>
      <trkpt lat="40.781136174" lon="-3.770708106">
        <ele>1079.00</ele>
        <time>2026-08-29T08:09:43Z</time>
      </trkpt>
      <trkpt lat="40.781291407" lon="-3.770822855">
        <ele>1079.60</ele>
        <time>2026-08-29T08:09:48Z</time>
      </trkpt>
      <trkpt lat="40.781438677" lon="-3.770854203">
        <ele>1080.60</ele>
        <time>2026-08-29T08:09:53Z</time>
      </trkpt>
      <trkpt lat="40.781597011" lon="-3.770873314">
        <ele>1081.60</ele>
        <time>2026-08-29T08:09:58Z</time>
      </trkpt>
      <trkpt lat="40.781785855" lon="-3.770933663">
        <ele>1083.00</ele>
        <time>2026-08-29T08:10:04Z</time>
      </trkpt>
      <trkpt lat="40.781906219" lon="-3.770960234">
        <ele>1084.20</ele>
        <time>2026-08-29T08:10:08Z</time>
      </trkpt>
      <trkpt lat="40.782032115" lon="-3.771047238">
        <ele>1085.40</ele>
        <time>2026-08-29T08:10:13Z</time>
      </trkpt>
      <trkpt lat="40.782125071" lon="-3.771137260">
        <ele>1086.60</ele>
        <time>2026-08-29T08:10:17Z</time>
      </trkpt>
      <trkpt lat="40.782218864" lon="-3.771218564">
        <ele>1087.80</ele>
        <time>2026-08-29T08:10:21Z</time>
      </trkpt>
      <trkpt lat="40.782317687" lon="-3.771329205">
        <ele>1089.40</ele>
        <time>2026-08-29T08:10:26Z</time>
      </trkpt>
      <trkpt lat="40.782493707" lon="-3.771407325">
        <ele>1090.40</ele>
        <time>2026-08-29T08:10:31Z</time>
      </trkpt>
      <trkpt lat="40.782640306" lon="-3.771511093">
        <ele>1090.60</ele>
        <time>2026-08-29T08:10:35Z</time>
      </trkpt>
      <trkpt lat="40.782743236" lon="-3.771699937">
        <ele>1091.00</ele>
        <time>2026-08-29T08:10:39Z</time>
      </trkpt>
      <trkpt lat="40.782772573" lon="-3.771831952">
        <ele>1091.00</ele>
        <time>2026-08-29T08:10:41Z</time>
      </trkpt>
      <trkpt lat="40.782821607" lon="-3.771945108">
        <ele>1090.60</ele>
        <time>2026-08-29T08:10:43Z</time>
      </trkpt>
      <trkpt lat="40.782929063" lon="-3.772106208">
        <ele>1090.00</ele>
        <time>2026-08-29T08:10:46Z</time>
      </trkpt>
      <trkpt lat="40.783023275" lon="-3.772194553">
        <ele>1089.40</ele>
        <time>2026-08-29T08:10:48Z</time>
      </trkpt>
      <trkpt lat="40.783121511" lon="-3.772276444">
        <ele>1088.80</ele>
        <time>2026-08-29T08:10:50Z</time>
      </trkpt>
      <trkpt lat="40.783199547" lon="-3.772416757">
        <ele>1088.00</ele>
        <time>2026-08-29T08:10:52Z</time>
      </trkpt>
      <trkpt lat="40.783253862" lon="-3.772594035">
        <ele>1087.40</ele>
        <time>2026-08-29T08:10:54Z</time>
      </trkpt>
      <trkpt lat="40.783287808" lon="-3.772779861">
        <ele>1086.60</ele>
        <time>2026-08-29T08:10:56Z</time>
      </trkpt>
      <trkpt lat="40.783261070" lon="-3.773094350">
        <ele>1085.80</ele>
        <time>2026-08-29T08:11:00Z</time>
      </trkpt>
      <trkpt lat="40.783186136" lon="-3.773234161">
        <ele>1085.60</ele>
        <time>2026-08-29T08:11:02Z</time>
      </trkpt>
      <trkpt lat="40.783077842" lon="-3.773431554">
        <ele>1085.20</ele>
        <time>2026-08-29T08:11:05Z</time>
      </trkpt>
      <trkpt lat="40.782986311" lon="-3.773578992">
        <ele>1084.60</ele>
        <time>2026-08-29T08:11:09Z</time>
      </trkpt>
      <trkpt lat="40.782889416" lon="-3.773757610">
        <ele>1084.00</ele>
        <time>2026-08-29T08:11:15Z</time>
      </trkpt>
      <trkpt lat="40.782713816" lon="-3.773949556">
        <ele>1083.40</ele>
        <time>2026-08-29T08:11:20Z</time>
      </trkpt>
      <trkpt lat="40.782562690" lon="-3.774145441">
        <ele>1082.40</ele>
        <time>2026-08-29T08:11:24Z</time>
      </trkpt>
      <trkpt lat="40.782473926" lon="-3.774209311">
        <ele>1082.20</ele>
        <time>2026-08-29T08:11:26Z</time>
      </trkpt>
      <trkpt lat="40.782348448" lon="-3.774291957">
        <ele>1082.20</ele>
        <time>2026-08-29T08:11:29Z</time>
      </trkpt>
      <trkpt lat="40.782262450" lon="-3.774361107">
        <ele>1082.00</ele>
        <time>2026-08-29T08:11:31Z</time>
      </trkpt>
      <trkpt lat="40.782018034" lon="-3.774540732">
        <ele>1082.20</ele>
        <time>2026-08-29T08:11:36Z</time>
      </trkpt>
      <trkpt lat="40.781811336" lon="-3.774711555">
        <ele>1082.20</ele>
        <time>2026-08-29T08:11:41Z</time>
      </trkpt>
      <trkpt lat="40.781582762" lon="-3.774995869">
        <ele>1082.60</ele>
        <time>2026-08-29T08:11:50Z</time>
      </trkpt>
      <trkpt lat="40.781524507" lon="-3.775264006">
        <ele>1083.20</ele>
        <time>2026-08-29T08:11:56Z</time>
      </trkpt>
      <trkpt lat="40.781459631" lon="-3.775501130">
        <ele>1083.80</ele>
        <time>2026-08-29T08:12:01Z</time>
      </trkpt>
      <trkpt lat="40.781425014" lon="-3.775638426">
        <ele>1084.00</ele>
        <time>2026-08-29T08:12:04Z</time>
      </trkpt>
      <trkpt lat="40.781361647" lon="-3.775907485">
        <ele>1084.80</ele>
        <time>2026-08-29T08:12:10Z</time>
      </trkpt>
      <trkpt lat="40.781298615" lon="-3.776220465">
        <ele>1086.20</ele>
        <time>2026-08-29T08:12:17Z</time>
      </trkpt>
      <trkpt lat="40.781260645" lon="-3.776439149">
        <ele>1087.40</ele>
        <time>2026-08-29T08:12:22Z</time>
      </trkpt>
      <trkpt lat="40.781232985" lon="-3.776553813">
        <ele>1088.60</ele>
        <time>2026-08-29T08:12:25Z</time>
      </trkpt>
      <trkpt lat="40.781208007" lon="-3.776674177">
        <ele>1089.80</ele>
        <time>2026-08-29T08:12:28Z</time>
      </trkpt>
      <trkpt lat="40.781174647" lon="-3.776833685">
        <ele>1091.60</ele>
        <time>2026-08-29T08:12:32Z</time>
      </trkpt>
      <trkpt lat="40.781164756" lon="-3.777080532">
        <ele>1093.20</ele>
        <time>2026-08-29T08:12:38Z</time>
      </trkpt>
      <trkpt lat="40.781172132" lon="-3.777234256">
        <ele>1094.40</ele>
        <time>2026-08-29T08:12:42Z</time>
      </trkpt>
      <trkpt lat="40.781215299" lon="-3.777382364">
        <ele>1095.60</ele>
        <time>2026-08-29T08:12:46Z</time>
      </trkpt>
      <trkpt lat="40.781235835" lon="-3.777559809">
        <ele>1096.20</ele>
        <time>2026-08-29T08:12:50Z</time>
      </trkpt>
      <trkpt lat="40.781241450" lon="-3.777819565">
        <ele>1095.20</ele>
        <time>2026-08-29T08:12:55Z</time>
      </trkpt>
      <trkpt lat="40.781231727" lon="-3.778033219">
        <ele>1094.60</ele>
        <time>2026-08-29T08:12:58Z</time>
      </trkpt>
      <trkpt lat="40.781223178" lon="-3.778269002">
        <ele>1094.20</ele>
        <time>2026-08-29T08:13:01Z</time>
      </trkpt>
      <trkpt lat="40.781229213" lon="-3.778433539">
        <ele>1093.40</ele>
        <time>2026-08-29T08:13:03Z</time>
      </trkpt>
      <trkpt lat="40.781250251" lon="-3.778606374">
        <ele>1092.60</ele>
        <time>2026-08-29T08:13:05Z</time>
      </trkpt>
      <trkpt lat="40.781298447" lon="-3.778778370">
        <ele>1092.00</ele>
        <time>2026-08-29T08:13:07Z</time>
      </trkpt>
      <trkpt lat="40.781419147" lon="-3.778997976">
        <ele>1090.60</ele>
        <time>2026-08-29T08:13:10Z</time>
      </trkpt>
      <trkpt lat="40.781676974" lon="-3.779344568">
        <ele>1090.00</ele>
        <time>2026-08-29T08:13:16Z</time>
      </trkpt>
      <trkpt lat="40.781812174" lon="-3.779614381">
        <ele>1089.60</ele>
        <time>2026-08-29T08:13:20Z</time>
      </trkpt>
      <trkpt lat="40.781856012" lon="-3.779759221">
        <ele>1089.60</ele>
        <time>2026-08-29T08:13:22Z</time>
      </trkpt>
      <trkpt lat="40.781874117" lon="-3.779894924">
        <ele>1089.60</ele>
        <time>2026-08-29T08:13:24Z</time>
      </trkpt>
      <trkpt lat="40.781859616" lon="-3.780117380">
        <ele>1089.60</ele>
        <time>2026-08-29T08:13:28Z</time>
      </trkpt>
      <trkpt lat="40.781828938" lon="-3.780273953">
        <ele>1089.00</ele>
        <time>2026-08-29T08:13:31Z</time>
      </trkpt>
      <trkpt lat="40.781769678" lon="-3.780438071">
        <ele>1088.00</ele>
        <time>2026-08-29T08:13:34Z</time>
      </trkpt>
      <trkpt lat="40.781710669" lon="-3.780563381">
        <ele>1087.00</ele>
        <time>2026-08-29T08:13:36Z</time>
      </trkpt>
      <trkpt lat="40.781647721" lon="-3.780696653">
        <ele>1086.40</ele>
        <time>2026-08-29T08:13:38Z</time>
      </trkpt>
      <trkpt lat="40.781532638" lon="-3.781008460">
        <ele>1084.40</ele>
        <time>2026-08-29T08:13:42Z</time>
      </trkpt>
      <trkpt lat="40.781457536" lon="-3.781170230">
        <ele>1083.00</ele>
        <time>2026-08-29T08:13:44Z</time>
      </trkpt>
      <trkpt lat="40.781375226" lon="-3.781323200">
        <ele>1081.80</ele>
        <time>2026-08-29T08:13:46Z</time>
      </trkpt>
      <trkpt lat="40.781236254" lon="-3.781555882">
        <ele>1080.60</ele>
        <time>2026-08-29T08:13:49Z</time>
      </trkpt>
      <trkpt lat="40.781150088" lon="-3.781712623">
        <ele>1079.40</ele>
        <time>2026-08-29T08:13:51Z</time>
      </trkpt>
      <trkpt lat="40.781099545" lon="-3.781889398">
        <ele>1078.40</ele>
        <time>2026-08-29T08:13:53Z</time>
      </trkpt>
      <trkpt lat="40.781033747" lon="-3.782174550">
        <ele>1077.20</ele>
        <time>2026-08-29T08:13:56Z</time>
      </trkpt>
      <trkpt lat="40.780983623" lon="-3.782448722">
        <ele>1076.40</ele>
        <time>2026-08-29T08:13:59Z</time>
      </trkpt>
      <trkpt lat="40.780913299" lon="-3.782852897">
        <ele>1075.20</ele>
        <time>2026-08-29T08:14:04Z</time>
      </trkpt>
      <trkpt lat="40.780901313" lon="-3.782995222">
        <ele>1075.00</ele>
        <time>2026-08-29T08:14:06Z</time>
      </trkpt>
      <trkpt lat="40.780908102" lon="-3.783185575">
        <ele>1074.80</ele>
        <time>2026-08-29T08:14:09Z</time>
      </trkpt>
      <trkpt lat="40.780914975" lon="-3.783449354">
        <ele>1074.80</ele>
        <time>2026-08-29T08:14:13Z</time>
      </trkpt>
      <trkpt lat="40.780947832" lon="-3.783649262">
        <ele>1074.80</ele>
        <time>2026-08-29T08:14:16Z</time>
      </trkpt>
      <trkpt lat="40.780986808" lon="-3.783858726">
        <ele>1074.80</ele>
        <time>2026-08-29T08:14:19Z</time>
      </trkpt>
      <trkpt lat="40.781017570" lon="-3.784077913">
        <ele>1074.40</ele>
        <time>2026-08-29T08:14:22Z</time>
      </trkpt>
      <trkpt lat="40.781022850" lon="-3.784224093">
        <ele>1074.40</ele>
        <time>2026-08-29T08:14:24Z</time>
      </trkpt>
      <trkpt lat="40.781016899" lon="-3.784367507">
        <ele>1074.40</ele>
        <time>2026-08-29T08:14:26Z</time>
      </trkpt>
      <trkpt lat="40.780995442" lon="-3.784586191">
        <ele>1074.60</ele>
        <time>2026-08-29T08:14:29Z</time>
      </trkpt>
      <trkpt lat="40.781003572" lon="-3.784763552">
        <ele>1075.00</ele>
        <time>2026-08-29T08:14:32Z</time>
      </trkpt>
      <trkpt lat="40.781012625" lon="-3.784941416">
        <ele>1075.00</ele>
        <time>2026-08-29T08:14:35Z</time>
      </trkpt>
      <trkpt lat="40.781013044" lon="-3.785084328">
        <ele>1075.00</ele>
        <time>2026-08-29T08:14:37Z</time>
      </trkpt>
      <trkpt lat="40.781009272" lon="-3.785369480">
        <ele>1075.00</ele>
        <time>2026-08-29T08:14:41Z</time>
      </trkpt>
      <trkpt lat="40.780993095" lon="-3.785508033">
        <ele>1075.20</ele>
        <time>2026-08-29T08:14:43Z</time>
      </trkpt>
      <trkpt lat="40.780926123" lon="-3.785871053">
        <ele>1075.80</ele>
        <time>2026-08-29T08:14:48Z</time>
      </trkpt>
      <trkpt lat="40.780895529" lon="-3.786003403">
        <ele>1076.00</ele>
        <time>2026-08-29T08:14:50Z</time>
      </trkpt>
      <trkpt lat="40.780861918" lon="-3.786194008">
        <ele>1076.20</ele>
        <time>2026-08-29T08:14:53Z</time>
      </trkpt>
      <trkpt lat="40.780839203" lon="-3.786341865">
        <ele>1076.40</ele>
        <time>2026-08-29T08:14:55Z</time>
      </trkpt>
      <trkpt lat="40.780863175" lon="-3.786539845">
        <ele>1076.40</ele>
        <time>2026-08-29T08:14:58Z</time>
      </trkpt>
      <trkpt lat="40.780895529" lon="-3.786668172">
        <ele>1076.40</ele>
        <time>2026-08-29T08:15:00Z</time>
      </trkpt>
      <trkpt lat="40.780927632" lon="-3.786793314">
        <ele>1076.40</ele>
        <time>2026-08-29T08:15:02Z</time>
      </trkpt>
      <trkpt lat="40.780945318" lon="-3.786926251">
        <ele>1076.80</ele>
        <time>2026-08-29T08:15:04Z</time>
      </trkpt>
      <trkpt lat="40.780972391" lon="-3.787231101">
        <ele>1077.80</ele>
        <time>2026-08-29T08:15:09Z</time>
      </trkpt>
      <trkpt lat="40.781068616" lon="-3.787466129">
        <ele>1078.80</ele>
        <time>2026-08-29T08:15:13Z</time>
      </trkpt>
      <trkpt lat="40.781121170" lon="-3.787641730">
        <ele>1080.00</ele>
        <time>2026-08-29T08:15:16Z</time>
      </trkpt>
      <trkpt lat="40.781143466" lon="-3.787762681">
        <ele>1080.60</ele>
        <time>2026-08-29T08:15:18Z</time>
      </trkpt>
      <trkpt lat="40.781151848" lon="-3.787937192">
        <ele>1081.20</ele>
        <time>2026-08-29T08:15:21Z</time>
      </trkpt>
      <trkpt lat="40.781114046" lon="-3.788113128">
        <ele>1081.60</ele>
        <time>2026-08-29T08:15:24Z</time>
      </trkpt>
      <trkpt lat="40.781087307" lon="-3.788228547">
        <ele>1082.00</ele>
        <time>2026-08-29T08:15:26Z</time>
      </trkpt>
      <trkpt lat="40.781018743" lon="-3.788522920">
        <ele>1083.20</ele>
        <time>2026-08-29T08:15:31Z</time>
      </trkpt>
      <trkpt lat="40.780972559" lon="-3.788879821">
        <ele>1084.40</ele>
        <time>2026-08-29T08:15:37Z</time>
      </trkpt>
      <trkpt lat="40.780961830" lon="-3.789072353">
        <ele>1085.00</ele>
        <time>2026-08-29T08:15:40Z</time>
      </trkpt>
      <trkpt lat="40.780915897" lon="-3.789272932">
        <ele>1086.00</ele>
        <time>2026-08-29T08:15:43Z</time>
      </trkpt>
      <trkpt lat="40.780893769" lon="-3.789399751">
        <ele>1086.40</ele>
        <time>2026-08-29T08:15:45Z</time>
      </trkpt>
      <trkpt lat="40.780839538" lon="-3.789640982">
        <ele>1087.20</ele>
        <time>2026-08-29T08:15:49Z</time>
      </trkpt>
      <trkpt lat="40.780786397" lon="-3.789894786">
        <ele>1087.80</ele>
        <time>2026-08-29T08:15:53Z</time>
      </trkpt>
      <trkpt lat="40.780770136" lon="-3.790018670">
        <ele>1088.20</ele>
        <time>2026-08-29T08:15:55Z</time>
      </trkpt>
      <trkpt lat="40.780750271" lon="-3.790184967">
        <ele>1088.40</ele>
        <time>2026-08-29T08:15:58Z</time>
      </trkpt>
      <trkpt lat="40.780730825" lon="-3.790346906">
        <ele>1088.80</ele>
        <time>2026-08-29T08:16:01Z</time>
      </trkpt>
      <trkpt lat="40.780741051" lon="-3.790514041">
        <ele>1089.20</ele>
        <time>2026-08-29T08:16:04Z</time>
      </trkpt>
      <trkpt lat="40.780760078" lon="-3.790630884">
        <ele>1089.40</ele>
        <time>2026-08-29T08:16:06Z</time>
      </trkpt>
      <trkpt lat="40.780774411" lon="-3.790750913">
        <ele>1089.60</ele>
        <time>2026-08-29T08:16:08Z</time>
      </trkpt>
      <trkpt lat="40.780787487" lon="-3.791009746">
        <ele>1089.40</ele>
        <time>2026-08-29T08:16:12Z</time>
      </trkpt>
      <trkpt lat="40.780776003" lon="-3.791412413">
        <ele>1089.00</ele>
        <time>2026-08-29T08:16:18Z</time>
      </trkpt>
      <trkpt lat="40.780575257" lon="-3.791741822">
        <ele>1088.60</ele>
        <time>2026-08-29T08:16:24Z</time>
      </trkpt>
      <trkpt lat="40.780503759" lon="-3.791848356">
        <ele>1088.40</ele>
        <time>2026-08-29T08:16:26Z</time>
      </trkpt>
      <trkpt lat="40.780433854" lon="-3.791971738">
        <ele>1088.40</ele>
        <time>2026-08-29T08:16:28Z</time>
      </trkpt>
      <trkpt lat="40.780373001" lon="-3.792213807">
        <ele>1088.00</ele>
        <time>2026-08-29T08:16:32Z</time>
      </trkpt>
      <trkpt lat="40.780201172" lon="-3.792579593">
        <ele>1087.80</ele>
        <time>2026-08-29T08:16:38Z</time>
      </trkpt>
      <trkpt lat="40.780091118" lon="-3.792805485">
        <ele>1087.80</ele>
        <time>2026-08-29T08:16:42Z</time>
      </trkpt>
      <trkpt lat="40.780051220" lon="-3.792926772">
        <ele>1087.80</ele>
        <time>2026-08-29T08:16:44Z</time>
      </trkpt>
      <trkpt lat="40.780033870" lon="-3.793132044">
        <ele>1088.00</ele>
        <time>2026-08-29T08:16:48Z</time>
      </trkpt>
      <trkpt lat="40.780021716" lon="-3.793262886">
        <ele>1089.00</ele>
        <time>2026-08-29T08:16:54Z</time>
      </trkpt>
      <trkpt lat="40.779995061" lon="-3.793445863">
        <ele>1089.20</ele>
        <time>2026-08-29T08:17:00Z</time>
      </trkpt>
      <trkpt lat="40.779990535" lon="-3.793568406">
        <ele>1089.00</ele>
        <time>2026-08-29T08:17:03Z</time>
      </trkpt>
      <trkpt lat="40.779992044" lon="-3.793743253">
        <ele>1088.60</ele>
        <time>2026-08-29T08:17:08Z</time>
      </trkpt>
      <trkpt lat="40.779955918" lon="-3.793907538">
        <ele>1088.40</ele>
        <time>2026-08-29T08:17:12Z</time>
      </trkpt>
      <trkpt lat="40.779899759" lon="-3.794237031">
        <ele>1087.80</ele>
        <time>2026-08-29T08:17:18Z</time>
      </trkpt>
      <trkpt lat="40.779877212" lon="-3.794429731">
        <ele>1087.40</ele>
        <time>2026-08-29T08:17:21Z</time>
      </trkpt>
      <trkpt lat="40.779870423" lon="-3.794562249">
        <ele>1087.20</ele>
        <time>2026-08-29T08:17:23Z</time>
      </trkpt>
      <trkpt lat="40.779884923" lon="-3.794684457">
        <ele>1086.80</ele>
        <time>2026-08-29T08:17:25Z</time>
      </trkpt>
      <trkpt lat="40.779866567" lon="-3.794846982">
        <ele>1086.40</ele>
        <time>2026-08-29T08:17:28Z</time>
      </trkpt>
      <trkpt lat="40.779804457" lon="-3.794989139">
        <ele>1086.40</ele>
        <time>2026-08-29T08:17:31Z</time>
      </trkpt>
      <trkpt lat="40.779749975" lon="-3.795095757">
        <ele>1086.40</ele>
        <time>2026-08-29T08:17:33Z</time>
      </trkpt>
      <trkpt lat="40.779700270" lon="-3.795285942">
        <ele>1086.20</ele>
        <time>2026-08-29T08:17:36Z</time>
      </trkpt>
      <trkpt lat="40.779630449" lon="-3.795526084">
        <ele>1086.20</ele>
        <time>2026-08-29T08:17:40Z</time>
      </trkpt>
      <trkpt lat="40.779607650" lon="-3.795665223">
        <ele>1086.40</ele>
        <time>2026-08-29T08:17:42Z</time>
      </trkpt>
      <trkpt lat="40.779620558" lon="-3.795991195">
        <ele>1085.80</ele>
        <time>2026-08-29T08:17:47Z</time>
      </trkpt>
      <trkpt lat="40.779681997" lon="-3.796291184">
        <ele>1085.80</ele>
        <time>2026-08-29T08:17:52Z</time>
      </trkpt>
      <trkpt lat="40.779711837" lon="-3.796424959">
        <ele>1086.00</ele>
        <time>2026-08-29T08:17:54Z</time>
      </trkpt>
      <trkpt lat="40.779787861" lon="-3.796573738">
        <ele>1086.40</ele>
        <time>2026-08-29T08:17:57Z</time>
      </trkpt>
      <trkpt lat="40.779895820" lon="-3.796650600">
        <ele>1087.60</ele>
        <time>2026-08-29T08:18:00Z</time>
      </trkpt>
      <trkpt lat="40.780046107" lon="-3.796722265">
        <ele>1088.60</ele>
        <time>2026-08-29T08:18:04Z</time>
      </trkpt>
      <trkpt lat="40.780121628" lon="-3.796810945">
        <ele>1089.80</ele>
        <time>2026-08-29T08:18:07Z</time>
      </trkpt>
      <trkpt lat="40.780112073" lon="-3.797027618">
        <ele>1090.20</ele>
        <time>2026-08-29T08:18:11Z</time>
      </trkpt>
      <trkpt lat="40.780026913" lon="-3.797196094">
        <ele>1090.00</ele>
        <time>2026-08-29T08:18:14Z</time>
      </trkpt>
      <trkpt lat="40.779970083" lon="-3.797309417">
        <ele>1089.80</ele>
        <time>2026-08-29T08:18:16Z</time>
      </trkpt>
      <trkpt lat="40.779946866" lon="-3.797494741">
        <ele>1090.20</ele>
        <time>2026-08-29T08:18:19Z</time>
      </trkpt>
      <trkpt lat="40.779965976" lon="-3.797662212">
        <ele>1091.00</ele>
        <time>2026-08-29T08:18:22Z</time>
      </trkpt>
      <trkpt lat="40.779995229" lon="-3.797821216">
        <ele>1092.00</ele>
        <time>2026-08-29T08:18:25Z</time>
      </trkpt>
      <trkpt lat="40.780016519" lon="-3.797977790">
        <ele>1093.00</ele>
        <time>2026-08-29T08:18:28Z</time>
      </trkpt>
      <trkpt lat="40.780041497" lon="-3.798382971">
        <ele>1094.00</ele>
        <time>2026-08-29T08:18:35Z</time>
      </trkpt>
      <trkpt lat="40.780097237" lon="-3.798680864">
        <ele>1094.40</ele>
        <time>2026-08-29T08:18:40Z</time>
      </trkpt>
      <trkpt lat="40.780169992" lon="-3.798853112">
        <ele>1094.60</ele>
        <time>2026-08-29T08:18:43Z</time>
      </trkpt>
      <trkpt lat="40.780230258" lon="-3.799049165">
        <ele>1096.00</ele>
        <time>2026-08-29T08:18:47Z</time>
      </trkpt>
      <trkpt lat="40.780203184" lon="-3.799243793">
        <ele>1097.60</ele>
        <time>2026-08-29T08:18:51Z</time>
      </trkpt>
      <trkpt lat="40.780134117" lon="-3.799445713">
        <ele>1098.60</ele>
        <time>2026-08-29T08:18:55Z</time>
      </trkpt>
      <trkpt lat="40.780102937" lon="-3.799589295">
        <ele>1099.00</ele>
        <time>2026-08-29T08:18:58Z</time>
      </trkpt>
      <trkpt lat="40.780043928" lon="-3.799877549">
        <ele>1099.40</ele>
        <time>2026-08-29T08:19:04Z</time>
      </trkpt>
      <trkpt lat="40.779997408" lon="-3.800092964">
        <ele>1099.60</ele>
        <time>2026-08-29T08:19:08Z</time>
      </trkpt>
      <trkpt lat="40.779945441" lon="-3.800252974">
        <ele>1099.80</ele>
        <time>2026-08-29T08:19:11Z</time>
      </trkpt>
      <trkpt lat="40.779866148" lon="-3.800412733">
        <ele>1099.60</ele>
        <time>2026-08-29T08:19:14Z</time>
      </trkpt>
      <trkpt lat="40.779709993" lon="-3.800608953">
        <ele>1099.40</ele>
        <time>2026-08-29T08:19:19Z</time>
      </trkpt>
      <trkpt lat="40.779407993" lon="-3.800809113">
        <ele>1098.80</ele>
        <time>2026-08-29T08:19:26Z</time>
      </trkpt>
      <trkpt lat="40.779249156" lon="-3.800924281">
        <ele>1097.80</ele>
        <time>2026-08-29T08:19:29Z</time>
      </trkpt>
      <trkpt lat="40.779145807" lon="-3.800989324">
        <ele>1097.20</ele>
        <time>2026-08-29T08:19:31Z</time>
      </trkpt>
      <trkpt lat="40.779034495" lon="-3.801149586">
        <ele>1096.80</ele>
        <time>2026-08-29T08:19:34Z</time>
      </trkpt>
      <trkpt lat="40.779025443" lon="-3.801306412">
        <ele>1096.80</ele>
        <time>2026-08-29T08:19:37Z</time>
      </trkpt>
      <trkpt lat="40.779052097" lon="-3.801508164">
        <ele>1097.60</ele>
        <time>2026-08-29T08:19:41Z</time>
      </trkpt>
      <trkpt lat="40.778960902" lon="-3.801766662">
        <ele>1097.00</ele>
        <time>2026-08-29T08:19:45Z</time>
      </trkpt>
      <trkpt lat="40.778895272" lon="-3.801903203">
        <ele>1096.60</ele>
        <time>2026-08-29T08:19:47Z</time>
      </trkpt>
      <trkpt lat="40.778830396" lon="-3.802099926">
        <ele>1096.20</ele>
        <time>2026-08-29T08:19:50Z</time>
      </trkpt>
      <trkpt lat="40.778775327" lon="-3.802421791">
        <ele>1096.40</ele>
        <time>2026-08-29T08:19:55Z</time>
      </trkpt>
      <trkpt lat="40.778723275" lon="-3.802830242">
        <ele>1096.60</ele>
        <time>2026-08-29T08:20:01Z</time>
      </trkpt>
      <trkpt lat="40.778667955" lon="-3.803194771">
        <ele>1097.80</ele>
        <time>2026-08-29T08:20:07Z</time>
      </trkpt>
      <trkpt lat="40.778556643" lon="-3.803622164">
        <ele>1098.60</ele>
        <time>2026-08-29T08:20:14Z</time>
      </trkpt>
      <trkpt lat="40.778470645" lon="-3.803877477">
        <ele>1099.00</ele>
        <time>2026-08-29T08:20:18Z</time>
      </trkpt>
      <trkpt lat="40.778417671" lon="-3.803995661">
        <ele>1099.00</ele>
        <time>2026-08-29T08:20:20Z</time>
      </trkpt>
      <trkpt lat="40.778280878" lon="-3.804296656">
        <ele>1099.20</ele>
        <time>2026-08-29T08:20:25Z</time>
      </trkpt>
      <trkpt lat="40.778234275" lon="-3.804408219">
        <ele>1099.20</ele>
        <time>2026-08-29T08:20:27Z</time>
      </trkpt>
      <trkpt lat="40.778178200" lon="-3.804584825">
        <ele>1099.40</ele>
        <time>2026-08-29T08:20:30Z</time>
      </trkpt>
      <trkpt lat="40.778125394" lon="-3.804700999">
        <ele>1099.40</ele>
        <time>2026-08-29T08:20:32Z</time>
      </trkpt>
      <trkpt lat="40.778033612" lon="-3.804931249">
        <ele>1099.20</ele>
        <time>2026-08-29T08:20:36Z</time>
      </trkpt>
      <trkpt lat="40.777937807" lon="-3.805221599">
        <ele>1099.00</ele>
        <time>2026-08-29T08:20:41Z</time>
      </trkpt>
      <trkpt lat="40.777838314" lon="-3.805477163">
        <ele>1099.00</ele>
        <time>2026-08-29T08:20:45Z</time>
      </trkpt>
      <trkpt lat="40.777796991" lon="-3.805607418">
        <ele>1099.20</ele>
        <time>2026-08-29T08:20:47Z</time>
      </trkpt>
      <trkpt lat="40.777747706" lon="-3.805735409">
        <ele>1099.40</ele>
        <time>2026-08-29T08:20:49Z</time>
      </trkpt>
      <trkpt lat="40.777666736" lon="-3.805907322">
        <ele>1099.80</ele>
        <time>2026-08-29T08:20:52Z</time>
      </trkpt>
      <trkpt lat="40.777587444" lon="-3.806093065">
        <ele>1100.00</ele>
        <time>2026-08-29T08:20:55Z</time>
      </trkpt>
      <trkpt lat="40.777532123" lon="-3.806219297">
        <ele>1100.20</ele>
        <time>2026-08-29T08:20:57Z</time>
      </trkpt>
      <trkpt lat="40.777348224" lon="-3.806653898">
        <ele>1101.20</ele>
        <time>2026-08-29T08:21:04Z</time>
      </trkpt>
      <trkpt lat="40.777190309" lon="-3.807090512">
        <ele>1102.40</ele>
        <time>2026-08-29T08:21:11Z</time>
      </trkpt>
      <trkpt lat="40.777069526" lon="-3.807443222">
        <ele>1103.60</ele>
        <time>2026-08-29T08:21:17Z</time>
      </trkpt>
      <trkpt lat="40.777031053" lon="-3.807555288">
        <ele>1104.20</ele>
        <time>2026-08-29T08:21:19Z</time>
      </trkpt>
      <trkpt lat="40.776958466" lon="-3.807782270">
        <ele>1104.60</ele>
        <time>2026-08-29T08:21:23Z</time>
      </trkpt>
      <trkpt lat="40.776900295" lon="-3.808022495">
        <ele>1105.40</ele>
        <time>2026-08-29T08:21:27Z</time>
      </trkpt>
      <trkpt lat="40.776882106" lon="-3.808145542">
        <ele>1105.60</ele>
        <time>2026-08-29T08:21:29Z</time>
      </trkpt>
      <trkpt lat="40.776872216" lon="-3.808347965">
        <ele>1105.80</ele>
        <time>2026-08-29T08:21:32Z</time>
      </trkpt>
      <trkpt lat="40.776798371" lon="-3.808617359">
        <ele>1105.60</ele>
        <time>2026-08-29T08:21:36Z</time>
      </trkpt>
      <trkpt lat="40.776738776" lon="-3.808807293">
        <ele>1105.60</ele>
        <time>2026-08-29T08:21:39Z</time>
      </trkpt>
      <trkpt lat="40.776661411" lon="-3.808963280">
        <ele>1105.80</ele>
        <time>2026-08-29T08:21:42Z</time>
      </trkpt>
      <trkpt lat="40.776584465" lon="-3.809114825">
        <ele>1106.80</ele>
        <time>2026-08-29T08:21:45Z</time>
      </trkpt>
      <trkpt lat="40.776495449" lon="-3.809272321">
        <ele>1107.40</ele>
        <time>2026-08-29T08:21:48Z</time>
      </trkpt>
      <trkpt lat="40.776431914" lon="-3.809375502">
        <ele>1107.60</ele>
        <time>2026-08-29T08:21:50Z</time>
      </trkpt>
      <trkpt lat="40.776269305" lon="-3.809570633">
        <ele>1107.80</ele>
        <time>2026-08-29T08:21:54Z</time>
      </trkpt>
      <trkpt lat="40.776162436" lon="-3.809739025">
        <ele>1107.80</ele>
        <time>2026-08-29T08:21:57Z</time>
      </trkpt>
      <trkpt lat="40.776108289" lon="-3.809860647">
        <ele>1107.80</ele>
        <time>2026-08-29T08:21:59Z</time>
      </trkpt>
      <trkpt lat="40.775903603" lon="-3.810276724">
        <ele>1107.60</ele>
        <time>2026-08-29T08:22:06Z</time>
      </trkpt>
      <trkpt lat="40.775750214" lon="-3.810541090">
        <ele>1107.60</ele>
        <time>2026-08-29T08:22:11Z</time>
      </trkpt>
      <trkpt lat="40.775649380" lon="-3.810705375">
        <ele>1107.60</ele>
        <time>2026-08-29T08:22:14Z</time>
      </trkpt>
      <trkpt lat="40.775573272" lon="-3.810778633">
        <ele>1107.60</ele>
        <time>2026-08-29T08:22:16Z</time>
      </trkpt>
      <trkpt lat="40.775458273" lon="-3.810910564">
        <ele>1107.60</ele>
        <time>2026-08-29T08:22:20Z</time>
      </trkpt>
      <trkpt lat="40.775335813" lon="-3.811034197">
        <ele>1107.80</ele>
        <time>2026-08-29T08:22:24Z</time>
      </trkpt>
      <trkpt lat="40.775253251" lon="-3.811087003">
        <ele>1108.20</ele>
        <time>2026-08-29T08:22:27Z</time>
      </trkpt>
      <trkpt lat="40.775149651" lon="-3.811160512">
        <ele>1108.80</ele>
        <time>2026-08-29T08:22:31Z</time>
      </trkpt>
      <trkpt lat="40.774984527" lon="-3.811329575">
        <ele>1109.20</ele>
        <time>2026-08-29T08:22:37Z</time>
      </trkpt>
      <trkpt lat="40.774890734" lon="-3.811484724">
        <ele>1109.80</ele>
        <time>2026-08-29T08:22:42Z</time>
      </trkpt>
      <trkpt lat="40.774862487" lon="-3.811615985">
        <ele>1110.40</ele>
        <time>2026-08-29T08:22:46Z</time>
      </trkpt>
      <trkpt lat="40.774859302" lon="-3.811845314">
        <ele>1111.00</ele>
        <time>2026-08-29T08:22:52Z</time>
      </trkpt>
      <trkpt lat="40.774785541" lon="-3.811954278">
        <ele>1111.60</ele>
        <time>2026-08-29T08:22:56Z</time>
      </trkpt>
      <trkpt lat="40.774741787" lon="-3.812107081">
        <ele>1111.60</ele>
        <time>2026-08-29T08:23:00Z</time>
      </trkpt>
      <trkpt lat="40.774703063" lon="-3.812319562">
        <ele>1112.00</ele>
        <time>2026-08-29T08:23:06Z</time>
      </trkpt>
      <trkpt lat="40.774709182" lon="-3.812456774">
        <ele>1112.20</ele>
        <time>2026-08-29T08:23:09Z</time>
      </trkpt>
      <trkpt lat="40.774717480" lon="-3.812685516">
        <ele>1112.60</ele>
        <time>2026-08-29T08:23:13Z</time>
      </trkpt>
      <trkpt lat="40.774728544" lon="-3.812922556">
        <ele>1113.20</ele>
        <time>2026-08-29T08:23:17Z</time>
      </trkpt>
      <trkpt lat="40.774738183" lon="-3.813104108">
        <ele>1113.80</ele>
        <time>2026-08-29T08:23:20Z</time>
      </trkpt>
      <trkpt lat="40.774737345" lon="-3.813295299">
        <ele>1114.20</ele>
        <time>2026-08-29T08:23:23Z</time>
      </trkpt>
      <trkpt lat="40.774731562" lon="-3.813480036">
        <ele>1114.80</ele>
        <time>2026-08-29T08:23:26Z</time>
      </trkpt>
      <trkpt lat="40.774722425" lon="-3.813706767">
        <ele>1115.60</ele>
        <time>2026-08-29T08:23:30Z</time>
      </trkpt>
      <trkpt lat="40.774722341" lon="-3.814051598">
        <ele>1117.00</ele>
        <time>2026-08-29T08:23:36Z</time>
      </trkpt>
      <trkpt lat="40.774714462" lon="-3.814366506">
        <ele>1117.40</ele>
        <time>2026-08-29T08:23:41Z</time>
      </trkpt>
      <trkpt lat="40.774720833" lon="-3.814488882">
        <ele>1117.40</ele>
        <time>2026-08-29T08:23:43Z</time>
      </trkpt>
      <trkpt lat="40.774738016" lon="-3.814719971">
        <ele>1118.00</ele>
        <time>2026-08-29T08:23:47Z</time>
      </trkpt>
      <trkpt lat="40.774736004" lon="-3.815103946">
        <ele>1119.60</ele>
        <time>2026-08-29T08:23:54Z</time>
      </trkpt>
      <trkpt lat="40.774734244" lon="-3.815697804">
        <ele>1120.40</ele>
        <time>2026-08-29T08:24:04Z</time>
      </trkpt>
      <trkpt lat="40.774719659" lon="-3.816119162">
        <ele>1121.00</ele>
        <time>2026-08-29T08:24:11Z</time>
      </trkpt>
      <trkpt lat="40.774670038" lon="-3.816532558">
        <ele>1121.00</ele>
        <time>2026-08-29T08:24:17Z</time>
      </trkpt>
      <trkpt lat="40.774609605" lon="-3.816851070">
        <ele>1121.00</ele>
        <time>2026-08-29T08:24:22Z</time>
      </trkpt>
      <trkpt lat="40.774524696" lon="-3.817247618">
        <ele>1120.80</ele>
        <time>2026-08-29T08:24:28Z</time>
      </trkpt>
      <trkpt lat="40.774456887" lon="-3.817574177">
        <ele>1121.20</ele>
        <time>2026-08-29T08:24:33Z</time>
      </trkpt>
      <trkpt lat="40.774432914" lon="-3.817695798">
        <ele>1121.60</ele>
        <time>2026-08-29T08:24:35Z</time>
      </trkpt>
      <trkpt lat="40.774370972" lon="-3.818092346">
        <ele>1122.60</ele>
        <time>2026-08-29T08:24:41Z</time>
      </trkpt>
      <trkpt lat="40.774344737" lon="-3.818424437">
        <ele>1123.00</ele>
        <time>2026-08-29T08:24:46Z</time>
      </trkpt>
      <trkpt lat="40.774362674" lon="-3.818874629">
        <ele>1123.00</ele>
        <time>2026-08-29T08:24:52Z</time>
      </trkpt>
      <trkpt lat="40.774474237" lon="-3.819209570">
        <ele>1122.40</ele>
        <time>2026-08-29T08:24:57Z</time>
      </trkpt>
      <trkpt lat="40.774580520" lon="-3.819376957">
        <ele>1122.20</ele>
        <time>2026-08-29T08:25:00Z</time>
      </trkpt>
      <trkpt lat="40.774661908" lon="-3.819464799">
        <ele>1122.40</ele>
        <time>2026-08-29T08:25:02Z</time>
      </trkpt>
      <trkpt lat="40.774885621" lon="-3.819637047">
        <ele>1123.20</ele>
        <time>2026-08-29T08:25:07Z</time>
      </trkpt>
      <trkpt lat="40.775019731" lon="-3.819707120">
        <ele>1123.80</ele>
        <time>2026-08-29T08:25:10Z</time>
      </trkpt>
      <trkpt lat="40.775169600" lon="-3.819792280">
        <ele>1125.40</ele>
        <time>2026-08-29T08:25:14Z</time>
      </trkpt>
      <trkpt lat="40.775333801" lon="-3.819882302">
        <ele>1127.20</ele>
        <time>2026-08-29T08:25:19Z</time>
      </trkpt>
      <trkpt lat="40.775523316" lon="-3.819936449">
        <ele>1128.40</ele>
        <time>2026-08-29T08:25:24Z</time>
      </trkpt>
      <trkpt lat="40.775726577" lon="-3.820015658">
        <ele>1129.00</ele>
        <time>2026-08-29T08:25:30Z</time>
      </trkpt>
      <trkpt lat="40.775909387" lon="-3.820166700">
        <ele>1129.00</ele>
        <time>2026-08-29T08:25:35Z</time>
      </trkpt>
      <trkpt lat="40.776093453" lon="-3.820340540">
        <ele>1129.20</ele>
        <time>2026-08-29T08:25:40Z</time>
      </trkpt>
      <trkpt lat="40.776182888" lon="-3.820426622">
        <ele>1130.80</ele>
        <time>2026-08-29T08:25:43Z</time>
      </trkpt>
      <trkpt lat="40.776271150" lon="-3.820485631">
        <ele>1132.20</ele>
        <time>2026-08-29T08:25:46Z</time>
      </trkpt>
      <trkpt lat="40.776356561" lon="-3.820525780">
        <ele>1133.20</ele>
        <time>2026-08-29T08:25:49Z</time>
      </trkpt>
      <trkpt lat="40.776451612" lon="-3.820558134">
        <ele>1134.20</ele>
        <time>2026-08-29T08:25:52Z</time>
      </trkpt>
      <trkpt lat="40.776605671" lon="-3.820620328">
        <ele>1135.80</ele>
        <time>2026-08-29T08:25:58Z</time>
      </trkpt>
      <trkpt lat="40.776715223" lon="-3.820670787">
        <ele>1136.80</ele>
        <time>2026-08-29T08:26:02Z</time>
      </trkpt>
      <trkpt lat="40.776898032" lon="-3.820735915">
        <ele>1137.80</ele>
        <time>2026-08-29T08:26:08Z</time>
      </trkpt>
      <trkpt lat="40.777099533" lon="-3.820842868">
        <ele>1139.40</ele>
        <time>2026-08-29T08:26:15Z</time>
      </trkpt>
      <trkpt lat="40.777254179" lon="-3.820949569">
        <ele>1140.40</ele>
        <time>2026-08-29T08:26:20Z</time>
      </trkpt>
      <trkpt lat="40.777368089" lon="-3.821054678">
        <ele>1141.40</ele>
        <time>2026-08-29T08:26:24Z</time>
      </trkpt>
      <trkpt lat="40.777445454" lon="-3.821136653">
        <ele>1142.20</ele>
        <time>2026-08-29T08:26:27Z</time>
      </trkpt>
      <trkpt lat="40.777610578" lon="-3.821347626">
        <ele>1143.80</ele>
        <time>2026-08-29T08:26:34Z</time>
      </trkpt>
      <trkpt lat="40.777702359" lon="-3.821528088">
        <ele>1145.00</ele>
        <time>2026-08-29T08:26:39Z</time>
      </trkpt>
      <trkpt lat="40.777753657" lon="-3.821682651">
        <ele>1146.00</ele>
        <time>2026-08-29T08:26:43Z</time>
      </trkpt>
      <trkpt lat="40.777796824" lon="-3.821840733">
        <ele>1146.80</ele>
        <time>2026-08-29T08:26:47Z</time>
      </trkpt>
      <trkpt lat="40.777860275" lon="-3.822096717">
        <ele>1148.20</ele>
        <time>2026-08-29T08:26:53Z</time>
      </trkpt>
      <trkpt lat="40.777928671" lon="-3.822388491">
        <ele>1149.20</ele>
        <time>2026-08-29T08:27:00Z</time>
      </trkpt>
      <trkpt lat="40.777952475" lon="-3.822510866">
        <ele>1150.20</ele>
        <time>2026-08-29T08:27:03Z</time>
      </trkpt>
      <trkpt lat="40.777992792" lon="-3.822673475">
        <ele>1151.00</ele>
        <time>2026-08-29T08:27:07Z</time>
      </trkpt>
      <trkpt lat="40.778097566" lon="-3.822877994">
        <ele>1152.00</ele>
        <time>2026-08-29T08:27:13Z</time>
      </trkpt>
      <trkpt lat="40.778296134" lon="-3.823103299">
        <ele>1153.60</ele>
        <time>2026-08-29T08:27:21Z</time>
      </trkpt>
      <trkpt lat="40.778396633" lon="-3.823290132">
        <ele>1154.80</ele>
        <time>2026-08-29T08:27:26Z</time>
      </trkpt>
      <trkpt lat="40.778438123" lon="-3.823558688">
        <ele>1155.60</ele>
        <time>2026-08-29T08:27:32Z</time>
      </trkpt>
      <trkpt lat="40.778449774" lon="-3.823772175">
        <ele>1155.40</ele>
        <time>2026-08-29T08:27:36Z</time>
      </trkpt>
      <trkpt lat="40.778449271" lon="-3.823946351">
        <ele>1155.20</ele>
        <time>2026-08-29T08:27:39Z</time>
      </trkpt>
      <trkpt lat="40.778461425" lon="-3.824197473">
        <ele>1155.00</ele>
        <time>2026-08-29T08:27:43Z</time>
      </trkpt>
      <trkpt lat="40.778464442" lon="-3.824540796">
        <ele>1155.00</ele>
        <time>2026-08-29T08:27:49Z</time>
      </trkpt>
      <trkpt lat="40.778454468" lon="-3.824741710">
        <ele>1155.00</ele>
        <time>2026-08-29T08:27:52Z</time>
      </trkpt>
      <trkpt lat="40.778483469" lon="-3.824855536">
        <ele>1154.80</ele>
        <time>2026-08-29T08:27:54Z</time>
      </trkpt>
      <trkpt lat="40.778521607" lon="-3.825014960">
        <ele>1155.00</ele>
        <time>2026-08-29T08:27:57Z</time>
      </trkpt>
      <trkpt lat="40.778507441" lon="-3.825187460">
        <ele>1155.40</ele>
        <time>2026-08-29T08:28:00Z</time>
      </trkpt>
      <trkpt lat="40.778439296" lon="-3.825347889">
        <ele>1155.80</ele>
        <time>2026-08-29T08:28:03Z</time>
      </trkpt>
      <trkpt lat="40.778316082" lon="-3.825573446">
        <ele>1157.20</ele>
        <time>2026-08-29T08:28:08Z</time>
      </trkpt>
      <trkpt lat="40.778208710" lon="-3.825782323">
        <ele>1158.00</ele>
        <time>2026-08-29T08:28:13Z</time>
      </trkpt>
      <trkpt lat="40.778164454" lon="-3.825957337">
        <ele>1158.20</ele>
        <time>2026-08-29T08:28:17Z</time>
      </trkpt>
      <trkpt lat="40.778260427" lon="-3.826115169">
        <ele>1158.60</ele>
        <time>2026-08-29T08:28:24Z</time>
      </trkpt>
      <trkpt lat="40.778344749" lon="-3.826204101">
        <ele>1159.40</ele>
        <time>2026-08-29T08:28:28Z</time>
      </trkpt>
      <trkpt lat="40.778483301" lon="-3.826313065">
        <ele>1160.40</ele>
        <time>2026-08-29T08:28:33Z</time>
      </trkpt>
      <trkpt lat="40.778625542" lon="-3.826423790">
        <ele>1161.60</ele>
        <time>2026-08-29T08:28:38Z</time>
      </trkpt>
      <trkpt lat="40.778735681" lon="-3.826518590">
        <ele>1162.60</ele>
        <time>2026-08-29T08:28:42Z</time>
      </trkpt>
      <trkpt lat="40.778816985" lon="-3.826596206">
        <ele>1163.40</ele>
        <time>2026-08-29T08:28:45Z</time>
      </trkpt>
      <trkpt lat="40.778997112" lon="-3.826798713">
        <ele>1165.20</ele>
        <time>2026-08-29T08:28:52Z</time>
      </trkpt>
      <trkpt lat="40.779102305" lon="-3.826917484">
        <ele>1166.40</ele>
        <time>2026-08-29T08:28:56Z</time>
      </trkpt>
      <trkpt lat="40.779184448" lon="-3.826999040">
        <ele>1167.40</ele>
        <time>2026-08-29T08:28:59Z</time>
      </trkpt>
      <trkpt lat="40.779298777" lon="-3.827098617">
        <ele>1168.60</ele>
        <time>2026-08-29T08:29:03Z</time>
      </trkpt>
      <trkpt lat="40.779451160" lon="-3.827209594">
        <ele>1169.80</ele>
        <time>2026-08-29T08:29:08Z</time>
      </trkpt>
      <trkpt lat="40.779590718" lon="-3.827327611">
        <ele>1171.00</ele>
        <time>2026-08-29T08:29:13Z</time>
      </trkpt>
      <trkpt lat="40.779680153" lon="-3.827393409">
        <ele>1171.80</ele>
        <time>2026-08-29T08:29:16Z</time>
      </trkpt>
      <trkpt lat="40.779852234" lon="-3.827562220">
        <ele>1173.20</ele>
        <time>2026-08-29T08:29:22Z</time>
      </trkpt>
      <trkpt lat="40.780115509" lon="-3.827974778">
        <ele>1173.60</ele>
        <time>2026-08-29T08:29:32Z</time>
      </trkpt>
      <trkpt lat="40.780282812" lon="-3.828087347">
        <ele>1174.40</ele>
        <time>2026-08-29T08:29:37Z</time>
      </trkpt>
      <trkpt lat="40.780370906" lon="-3.828139985">
        <ele>1175.60</ele>
        <time>2026-08-29T08:29:40Z</time>
      </trkpt>
      <trkpt lat="40.780511219" lon="-3.828217518">
        <ele>1177.80</ele>
        <time>2026-08-29T08:29:45Z</time>
      </trkpt>
      <trkpt lat="40.780636780" lon="-3.828287087">
        <ele>1178.80</ele>
        <time>2026-08-29T08:29:49Z</time>
      </trkpt>
      <trkpt lat="40.780738620" lon="-3.828379875">
        <ele>1180.00</ele>
        <time>2026-08-29T08:29:53Z</time>
      </trkpt>
      <trkpt lat="40.780839538" lon="-3.828456653">
        <ele>1181.00</ele>
        <time>2026-08-29T08:29:57Z</time>
      </trkpt>
      <trkpt lat="40.780934086" lon="-3.828553716">
        <ele>1182.20</ele>
        <time>2026-08-29T08:30:01Z</time>
      </trkpt>
      <trkpt lat="40.781055456" lon="-3.828687323">
        <ele>1183.20</ele>
        <time>2026-08-29T08:30:06Z</time>
      </trkpt>
      <trkpt lat="40.781173222" lon="-3.828835683">
        <ele>1184.40</ele>
        <time>2026-08-29T08:30:11Z</time>
      </trkpt>
      <trkpt lat="40.781262238" lon="-3.828964764">
        <ele>1185.20</ele>
        <time>2026-08-29T08:30:15Z</time>
      </trkpt>
      <trkpt lat="40.781336501" lon="-3.829082111">
        <ele>1185.60</ele>
        <time>2026-08-29T08:30:18Z</time>
      </trkpt>
      <trkpt lat="40.781608745" lon="-3.829309009">
        <ele>1185.60</ele>
        <time>2026-08-29T08:30:26Z</time>
      </trkpt>
      <trkpt lat="40.781799937" lon="-3.829411184">
        <ele>1186.40</ele>
        <time>2026-08-29T08:30:32Z</time>
      </trkpt>
      <trkpt lat="40.781894820" lon="-3.829525849">
        <ele>1187.60</ele>
        <time>2026-08-29T08:30:36Z</time>
      </trkpt>
      <trkpt lat="40.781877302" lon="-3.829654343">
        <ele>1188.80</ele>
        <time>2026-08-29T08:30:40Z</time>
      </trkpt>
      <trkpt lat="40.781817706" lon="-3.829800943">
        <ele>1190.20</ele>
        <time>2026-08-29T08:30:45Z</time>
      </trkpt>
      <trkpt lat="40.781794069" lon="-3.829941005">
        <ele>1191.40</ele>
        <time>2026-08-29T08:30:50Z</time>
      </trkpt>
      <trkpt lat="40.781850647" lon="-3.830043850">
        <ele>1192.60</ele>
        <time>2026-08-29T08:30:54Z</time>
      </trkpt>
      <trkpt lat="40.781961288" lon="-3.830122640">
        <ele>1193.60</ele>
        <time>2026-08-29T08:30:58Z</time>
      </trkpt>
      <trkpt lat="40.782042090" lon="-3.830179134">
        <ele>1194.40</ele>
        <time>2026-08-29T08:31:01Z</time>
      </trkpt>
      <trkpt lat="40.782168824" lon="-3.830275778">
        <ele>1195.80</ele>
        <time>2026-08-29T08:31:06Z</time>
      </trkpt>
      <trkpt lat="40.782293631" lon="-3.830375690">
        <ele>1197.20</ele>
        <time>2026-08-29T08:31:11Z</time>
      </trkpt>
      <trkpt lat="40.782458168" lon="-3.830442326">
        <ele>1198.40</ele>
        <time>2026-08-29T08:31:17Z</time>
      </trkpt>
      <trkpt lat="40.782631254" lon="-3.830544418">
        <ele>1199.60</ele>
        <time>2026-08-29T08:31:23Z</time>
      </trkpt>
      <trkpt lat="40.782751534" lon="-3.830626896">
        <ele>1200.60</ele>
        <time>2026-08-29T08:31:27Z</time>
      </trkpt>
      <trkpt lat="40.782842562" lon="-3.830685401">
        <ele>1201.20</ele>
        <time>2026-08-29T08:31:30Z</time>
      </trkpt>
      <trkpt lat="40.783039536" lon="-3.830816578">
        <ele>1202.60</ele>
        <time>2026-08-29T08:31:37Z</time>
      </trkpt>
      <trkpt lat="40.783185633" lon="-3.830934679">
        <ele>1204.00</ele>
        <time>2026-08-29T08:31:42Z</time>
      </trkpt>
      <trkpt lat="40.783264674" lon="-3.831008440">
        <ele>1205.40</ele>
        <time>2026-08-29T08:31:45Z</time>
      </trkpt>
      <trkpt lat="40.783381183" lon="-3.831087984">
        <ele>1206.60</ele>
        <time>2026-08-29T08:31:49Z</time>
      </trkpt>
      <trkpt lat="40.783542031" lon="-3.831175324">
        <ele>1207.80</ele>
        <time>2026-08-29T08:31:54Z</time>
      </trkpt>
      <trkpt lat="40.783681590" lon="-3.831281690">
        <ele>1209.00</ele>
        <time>2026-08-29T08:31:59Z</time>
      </trkpt>
      <trkpt lat="40.783762140" lon="-3.831353607">
        <ele>1209.60</ele>
        <time>2026-08-29T08:32:02Z</time>
      </trkpt>
      <trkpt lat="40.783912763" lon="-3.831500541">
        <ele>1211.60</ele>
        <time>2026-08-29T08:32:08Z</time>
      </trkpt>
      <trkpt lat="40.784001024" lon="-3.831595257">
        <ele>1213.00</ele>
        <time>2026-08-29T08:32:12Z</time>
      </trkpt>
      <trkpt lat="40.784116779" lon="-3.831647225">
        <ele>1214.80</ele>
        <time>2026-08-29T08:32:17Z</time>
      </trkpt>
      <trkpt lat="40.784181906" lon="-3.831742946">
        <ele>1216.00</ele>
        <time>2026-08-29T08:32:22Z</time>
      </trkpt>
      <trkpt lat="40.784285842" lon="-3.831873368">
        <ele>1217.40</ele>
        <time>2026-08-29T08:32:27Z</time>
      </trkpt>
      <trkpt lat="40.784364464" lon="-3.831961798">
        <ele>1218.40</ele>
        <time>2026-08-29T08:32:31Z</time>
      </trkpt>
      <trkpt lat="40.784461359" lon="-3.832079312">
        <ele>1219.60</ele>
        <time>2026-08-29T08:32:36Z</time>
      </trkpt>
      <trkpt lat="40.784570407" lon="-3.832207303">
        <ele>1220.60</ele>
        <time>2026-08-29T08:32:42Z</time>
      </trkpt>
      <trkpt lat="40.784641234" lon="-3.832323812">
        <ele>1221.80</ele>
        <time>2026-08-29T08:32:47Z</time>
      </trkpt>
      <trkpt lat="40.784699153" lon="-3.832531516">
        <ele>1223.00</ele>
        <time>2026-08-29T08:32:53Z</time>
      </trkpt>
      <trkpt lat="40.784723628" lon="-3.832648024">
        <ele>1224.20</ele>
        <time>2026-08-29T08:32:56Z</time>
      </trkpt>
      <trkpt lat="40.784769226" lon="-3.832766544">
        <ele>1225.60</ele>
        <time>2026-08-29T08:33:00Z</time>
      </trkpt>
      <trkpt lat="40.784828570" lon="-3.832909791">
        <ele>1228.40</ele>
        <time>2026-08-29T08:33:05Z</time>
      </trkpt>
      <trkpt lat="40.784957232" lon="-3.833065862">
        <ele>1230.60</ele>
        <time>2026-08-29T08:33:11Z</time>
      </trkpt>
      <trkpt lat="40.785039542" lon="-3.833135013">
        <ele>1231.20</ele>
        <time>2026-08-29T08:33:14Z</time>
      </trkpt>
      <trkpt lat="40.785112884" lon="-3.833214808">
        <ele>1231.60</ele>
        <time>2026-08-29T08:33:17Z</time>
      </trkpt>
      <trkpt lat="40.785278259" lon="-3.833432570">
        <ele>1232.60</ele>
        <time>2026-08-29T08:33:25Z</time>
      </trkpt>
      <trkpt lat="40.785415890" lon="-3.833618984">
        <ele>1233.80</ele>
        <time>2026-08-29T08:33:31Z</time>
      </trkpt>
      <trkpt lat="40.785518987" lon="-3.833771031">
        <ele>1235.20</ele>
        <time>2026-08-29T08:33:36Z</time>
      </trkpt>
      <trkpt lat="40.785602555" lon="-3.833892401">
        <ele>1236.40</ele>
        <time>2026-08-29T08:33:40Z</time>
      </trkpt>
      <trkpt lat="40.785667012" lon="-3.834020644">
        <ele>1237.40</ele>
        <time>2026-08-29T08:33:44Z</time>
      </trkpt>
      <trkpt lat="40.785752758" lon="-3.834202783">
        <ele>1240.00</ele>
        <time>2026-08-29T08:33:50Z</time>
      </trkpt>
      <trkpt lat="40.785811180" lon="-3.834305378">
        <ele>1241.80</ele>
        <time>2026-08-29T08:33:54Z</time>
      </trkpt>
      <trkpt lat="40.785964653" lon="-3.834496653">
        <ele>1243.40</ele>
        <time>2026-08-29T08:34:02Z</time>
      </trkpt>
      <trkpt lat="40.786056938" lon="-3.834571755">
        <ele>1243.40</ele>
        <time>2026-08-29T08:34:06Z</time>
      </trkpt>
      <trkpt lat="40.786272939" lon="-3.834657585">
        <ele>1244.00</ele>
        <time>2026-08-29T08:34:14Z</time>
      </trkpt>
      <trkpt lat="40.786402104" lon="-3.834774764">
        <ele>1245.60</ele>
        <time>2026-08-29T08:34:20Z</time>
      </trkpt>
      <trkpt lat="40.786484499" lon="-3.834859924">
        <ele>1246.80</ele>
        <time>2026-08-29T08:34:24Z</time>
      </trkpt>
      <trkpt lat="40.786582483" lon="-3.834979702">
        <ele>1249.20</ele>
        <time>2026-08-29T08:34:29Z</time>
      </trkpt>
      <trkpt lat="40.786682228" lon="-3.835091265">
        <ele>1250.60</ele>
        <time>2026-08-29T08:34:33Z</time>
      </trkpt>
      <trkpt lat="40.786790438" lon="-3.835310787">
        <ele>1253.40</ele>
        <time>2026-08-29T08:34:39Z</time>
      </trkpt>
      <trkpt lat="40.786848944" lon="-3.835497117">
        <ele>1256.00</ele>
        <time>2026-08-29T08:34:44Z</time>
      </trkpt>
      <trkpt lat="40.786893368" lon="-3.835616391">
        <ele>1257.20</ele>
        <time>2026-08-29T08:34:47Z</time>
      </trkpt>
      <trkpt lat="40.786921950" lon="-3.835730804">
        <ele>1259.40</ele>
        <time>2026-08-29T08:34:51Z</time>
      </trkpt>
      <trkpt lat="40.787018510" lon="-3.835868686">
        <ele>1262.20</ele>
        <time>2026-08-29T08:34:57Z</time>
      </trkpt>
      <trkpt lat="40.787118170" lon="-3.835982429">
        <ele>1265.00</ele>
        <time>2026-08-29T08:35:03Z</time>
      </trkpt>
      <trkpt lat="40.787219172" lon="-3.836040851">
        <ele>1267.60</ele>
        <time>2026-08-29T08:35:09Z</time>
      </trkpt>
      <trkpt lat="40.787314810" lon="-3.836078150">
        <ele>1269.60</ele>
        <time>2026-08-29T08:35:15Z</time>
      </trkpt>
      <trkpt lat="40.787421260" lon="-3.836118467">
        <ele>1271.00</ele>
        <time>2026-08-29T08:35:20Z</time>
      </trkpt>
      <trkpt lat="40.787544642" lon="-3.836202454">
        <ele>1272.20</ele>
        <time>2026-08-29T08:35:24Z</time>
      </trkpt>
      <trkpt lat="40.787641201" lon="-3.836283088">
        <ele>1273.60</ele>
        <time>2026-08-29T08:35:28Z</time>
      </trkpt>
      <trkpt lat="40.787714794" lon="-3.836357435">
        <ele>1274.40</ele>
        <time>2026-08-29T08:35:30Z</time>
      </trkpt>
      <trkpt lat="40.787830297" lon="-3.836461790">
        <ele>1275.40</ele>
        <time>2026-08-29T08:35:33Z</time>
      </trkpt>
      <trkpt lat="40.787932388" lon="-3.836590284">
        <ele>1276.40</ele>
        <time>2026-08-29T08:35:36Z</time>
      </trkpt>
      <trkpt lat="40.788024170" lon="-3.836704446">
        <ele>1277.80</ele>
        <time>2026-08-29T08:35:39Z</time>
      </trkpt>
      <trkpt lat="40.788144032" lon="-3.836867390">
        <ele>1280.40</ele>
        <time>2026-08-29T08:35:44Z</time>
      </trkpt>
      <trkpt lat="40.788222654" lon="-3.836985324">
        <ele>1281.80</ele>
        <time>2026-08-29T08:35:47Z</time>
      </trkpt>
      <trkpt lat="40.788301528" lon="-3.837161427">
        <ele>1283.00</ele>
        <time>2026-08-29T08:35:51Z</time>
      </trkpt>
      <trkpt lat="40.788380736" lon="-3.837320181">
        <ele>1284.00</ele>
        <time>2026-08-29T08:35:55Z</time>
      </trkpt>
      <trkpt lat="40.788425663" lon="-3.837434929">
        <ele>1284.80</ele>
        <time>2026-08-29T08:35:58Z</time>
      </trkpt>
      <trkpt lat="40.788493641" lon="-3.837698121">
        <ele>1285.80</ele>
        <time>2026-08-29T08:36:04Z</time>
      </trkpt>
      <trkpt lat="40.788527252" lon="-3.837815970">
        <ele>1286.20</ele>
        <time>2026-08-29T08:36:07Z</time>
      </trkpt>
      <trkpt lat="40.788558600" lon="-3.837933233">
        <ele>1286.60</ele>
        <time>2026-08-29T08:36:10Z</time>
      </trkpt>
      <trkpt lat="40.788611239" lon="-3.838099949">
        <ele>1287.00</ele>
        <time>2026-08-29T08:36:14Z</time>
      </trkpt>
      <trkpt lat="40.788660273" lon="-3.838384934">
        <ele>1286.60</ele>
        <time>2026-08-29T08:36:20Z</time>
      </trkpt>
      <trkpt lat="40.788677623" lon="-3.838630943">
        <ele>1287.40</ele>
        <time>2026-08-29T08:36:27Z</time>
      </trkpt>
      <trkpt lat="40.788729172" lon="-3.838754743">
        <ele>1288.40</ele>
        <time>2026-08-29T08:36:31Z</time>
      </trkpt>
      <trkpt lat="40.788802095" lon="-3.838934870">
        <ele>1289.40</ele>
        <time>2026-08-29T08:36:36Z</time>
      </trkpt>
      <trkpt lat="40.788845764" lon="-3.839069987">
        <ele>1289.80</ele>
        <time>2026-08-29T08:36:39Z</time>
      </trkpt>
      <trkpt lat="40.788897313" lon="-3.839169815">
        <ele>1290.60</ele>
        <time>2026-08-29T08:36:42Z</time>
      </trkpt>
      <trkpt lat="40.788949113" lon="-3.839273248">
        <ele>1291.40</ele>
        <time>2026-08-29T08:36:45Z</time>
      </trkpt>
      <trkpt lat="40.789011475" lon="-3.839462595">
        <ele>1293.40</ele>
        <time>2026-08-29T08:36:50Z</time>
      </trkpt>
      <trkpt lat="40.789103257" lon="-3.839674238">
        <ele>1294.60</ele>
        <time>2026-08-29T08:36:55Z</time>
      </trkpt>
      <trkpt lat="40.789169138" lon="-3.839850510">
        <ele>1295.20</ele>
        <time>2026-08-29T08:36:59Z</time>
      </trkpt>
      <trkpt lat="40.789256645" lon="-3.840048406">
        <ele>1296.40</ele>
        <time>2026-08-29T08:37:04Z</time>
      </trkpt>
      <trkpt lat="40.789294112" lon="-3.840161059">
        <ele>1296.80</ele>
        <time>2026-08-29T08:37:07Z</time>
      </trkpt>
      <trkpt lat="40.789332753" lon="-3.840281088">
        <ele>1297.40</ele>
        <time>2026-08-29T08:37:10Z</time>
      </trkpt>
      <trkpt lat="40.789365359" lon="-3.840406816">
        <ele>1298.20</ele>
        <time>2026-08-29T08:37:13Z</time>
      </trkpt>
      <trkpt lat="40.789421182" lon="-3.840564815">
        <ele>1299.00</ele>
        <time>2026-08-29T08:37:17Z</time>
      </trkpt>
      <trkpt lat="40.789475832" lon="-3.840698088">
        <ele>1299.60</ele>
        <time>2026-08-29T08:37:20Z</time>
      </trkpt>
      <trkpt lat="40.789597705" lon="-3.840961698">
        <ele>1300.80</ele>
        <time>2026-08-29T08:37:26Z</time>
      </trkpt>
      <trkpt lat="40.789646655" lon="-3.841154817">
        <ele>1301.60</ele>
        <time>2026-08-29T08:37:31Z</time>
      </trkpt>
      <trkpt lat="40.789701641" lon="-3.841340058">
        <ele>1302.80</ele>
        <time>2026-08-29T08:37:36Z</time>
      </trkpt>
      <trkpt lat="40.789777916" lon="-3.841544241">
        <ele>1303.80</ele>
        <time>2026-08-29T08:37:41Z</time>
      </trkpt>
      <trkpt lat="40.789862825" lon="-3.841669550">
        <ele>1304.80</ele>
        <time>2026-08-29T08:37:45Z</time>
      </trkpt>
      <trkpt lat="40.789927868" lon="-3.841857053">
        <ele>1306.20</ele>
        <time>2026-08-29T08:37:50Z</time>
      </trkpt>
      <trkpt lat="40.789961396" lon="-3.841998288">
        <ele>1307.40</ele>
        <time>2026-08-29T08:37:54Z</time>
      </trkpt>
      <trkpt lat="40.789975394" lon="-3.842134159">
        <ele>1308.60</ele>
        <time>2026-08-29T08:37:59Z</time>
      </trkpt>
      <trkpt lat="40.790007412" lon="-3.842265084">
        <ele>1309.60</ele>
        <time>2026-08-29T08:38:04Z</time>
      </trkpt>
      <trkpt lat="40.790080922" lon="-3.842392070">
        <ele>1310.20</ele>
        <time>2026-08-29T08:38:07Z</time>
      </trkpt>
      <trkpt lat="40.790177146" lon="-3.842671774">
        <ele>1311.60</ele>
        <time>2026-08-29T08:38:12Z</time>
      </trkpt>
      <trkpt lat="40.790217211" lon="-3.842782248">
        <ele>1312.00</ele>
        <time>2026-08-29T08:38:14Z</time>
      </trkpt>
      <trkpt lat="40.790281836" lon="-3.842976205">
        <ele>1313.00</ele>
        <time>2026-08-29T08:38:18Z</time>
      </trkpt>
      <trkpt lat="40.790371774" lon="-3.843224393">
        <ele>1313.40</ele>
        <time>2026-08-29T08:38:23Z</time>
      </trkpt>
      <trkpt lat="40.790490964" lon="-3.843448693">
        <ele>1314.00</ele>
        <time>2026-08-29T08:38:28Z</time>
      </trkpt>
      <trkpt lat="40.790608395" lon="-3.843611721">
        <ele>1315.20</ele>
        <time>2026-08-29T08:38:33Z</time>
      </trkpt>
      <trkpt lat="40.790731525" lon="-3.843779862">
        <ele>1316.20</ele>
        <time>2026-08-29T08:38:38Z</time>
      </trkpt>
      <trkpt lat="40.790809561" lon="-3.843889413">
        <ele>1316.60</ele>
        <time>2026-08-29T08:38:41Z</time>
      </trkpt>
      <trkpt lat="40.790952723" lon="-3.844038779">
        <ele>1316.40</ele>
        <time>2026-08-29T08:38:46Z</time>
      </trkpt>
      <trkpt lat="40.791087253" lon="-3.844125113">
        <ele>1316.40</ele>
        <time>2026-08-29T08:38:51Z</time>
      </trkpt>
      <trkpt lat="40.791256316" lon="-3.844146067">
        <ele>1316.60</ele>
        <time>2026-08-29T08:38:56Z</time>
      </trkpt>
      <trkpt lat="40.791410711" lon="-3.844132237">
        <ele>1317.40</ele>
        <time>2026-08-29T08:39:00Z</time>
      </trkpt>
      <trkpt lat="40.791529063" lon="-3.844110612">
        <ele>1318.00</ele>
        <time>2026-08-29T08:39:03Z</time>
      </trkpt>
      <trkpt lat="40.791644482" lon="-3.844084879">
        <ele>1318.60</ele>
        <time>2026-08-29T08:39:06Z</time>
      </trkpt>
      <trkpt lat="40.791820921" lon="-3.844023021">
        <ele>1319.80</ele>
        <time>2026-08-29T08:39:11Z</time>
      </trkpt>
      <trkpt lat="40.791947152" lon="-3.843932748">
        <ele>1320.80</ele>
        <time>2026-08-29T08:39:15Z</time>
      </trkpt>
      <trkpt lat="40.792043628" lon="-3.843809282">
        <ele>1322.20</ele>
        <time>2026-08-29T08:39:19Z</time>
      </trkpt>
      <trkpt lat="40.792134153" lon="-3.843629071">
        <ele>1323.20</ele>
        <time>2026-08-29T08:39:24Z</time>
      </trkpt>
      <trkpt lat="40.792216295" lon="-3.843423380">
        <ele>1324.40</ele>
        <time>2026-08-29T08:39:29Z</time>
      </trkpt>
      <trkpt lat="40.792298773" lon="-3.843216179">
        <ele>1325.60</ele>
        <time>2026-08-29T08:39:34Z</time>
      </trkpt>
      <trkpt lat="40.792408828" lon="-3.843002189">
        <ele>1326.80</ele>
        <time>2026-08-29T08:39:39Z</time>
      </trkpt>
      <trkpt lat="40.792477559" lon="-3.842856595">
        <ele>1328.00</ele>
        <time>2026-08-29T08:39:43Z</time>
      </trkpt>
      <trkpt lat="40.792543860" lon="-3.842712259">
        <ele>1329.00</ele>
        <time>2026-08-29T08:39:47Z</time>
      </trkpt>
      <trkpt lat="40.792583171" lon="-3.842575885">
        <ele>1330.20</ele>
        <time>2026-08-29T08:39:52Z</time>
      </trkpt>
      <trkpt lat="40.792619046" lon="-3.842465580">
        <ele>1331.20</ele>
        <time>2026-08-29T08:39:56Z</time>
      </trkpt>
      <trkpt lat="40.792672941" lon="-3.842292242">
        <ele>1332.40</ele>
        <time>2026-08-29T08:40:01Z</time>
      </trkpt>
      <trkpt lat="40.792718455" lon="-3.842119742">
        <ele>1333.40</ele>
        <time>2026-08-29T08:40:06Z</time>
      </trkpt>
      <trkpt lat="40.792775033" lon="-3.841907931">
        <ele>1334.20</ele>
        <time>2026-08-29T08:40:13Z</time>
      </trkpt>
      <trkpt lat="40.792816188" lon="-3.841734510">
        <ele>1335.40</ele>
        <time>2026-08-29T08:40:18Z</time>
      </trkpt>
      <trkpt lat="40.792897157" lon="-3.841572236">
        <ele>1336.60</ele>
        <time>2026-08-29T08:40:23Z</time>
      </trkpt>
      <trkpt lat="40.792947197" lon="-3.841444915">
        <ele>1337.60</ele>
        <time>2026-08-29T08:40:27Z</time>
      </trkpt>
      <trkpt lat="40.793027580" lon="-3.841305356">
        <ele>1338.20</ele>
        <time>2026-08-29T08:40:30Z</time>
      </trkpt>
      <trkpt lat="40.793105029" lon="-3.841205696">
        <ele>1338.80</ele>
        <time>2026-08-29T08:40:32Z</time>
      </trkpt>
      <trkpt lat="40.793166719" lon="-3.841113411">
        <ele>1339.60</ele>
        <time>2026-08-29T08:40:35Z</time>
      </trkpt>
      <trkpt lat="40.793239390" lon="-3.841012577">
        <ele>1340.80</ele>
        <time>2026-08-29T08:40:41Z</time>
      </trkpt>
      <trkpt lat="40.793332011" lon="-3.840916939">
        <ele>1341.60</ele>
        <time>2026-08-29T08:40:45Z</time>
      </trkpt>
      <trkpt lat="40.793559663" lon="-3.840859272">
        <ele>1342.60</ele>
        <time>2026-08-29T08:40:51Z</time>
      </trkpt>
      <trkpt lat="40.793657312" lon="-3.840828007">
        <ele>1343.00</ele>
        <time>2026-08-29T08:40:53Z</time>
      </trkpt>
      <trkpt lat="40.793789746" lon="-3.840806130">
        <ele>1343.60</ele>
        <time>2026-08-29T08:40:56Z</time>
      </trkpt>
      <trkpt lat="40.794063583" lon="-3.840770843">
        <ele>1344.80</ele>
        <time>2026-08-29T08:41:03Z</time>
      </trkpt>
      <trkpt lat="40.794213368" lon="-3.840765646">
        <ele>1346.00</ele>
        <time>2026-08-29T08:41:08Z</time>
      </trkpt>
      <trkpt lat="40.794362985" lon="-3.840780230">
        <ele>1347.20</ele>
        <time>2026-08-29T08:41:12Z</time>
      </trkpt>
      <trkpt lat="40.794563731" lon="-3.840832449">
        <ele>1348.40</ele>
        <time>2026-08-29T08:41:17Z</time>
      </trkpt>
      <trkpt lat="40.794679066" lon="-3.840875197">
        <ele>1349.00</ele>
        <time>2026-08-29T08:41:20Z</time>
      </trkpt>
      <trkpt lat="40.794782666" lon="-3.840929428">
        <ele>1349.60</ele>
        <time>2026-08-29T08:41:23Z</time>
      </trkpt>
      <trkpt lat="40.794878639" lon="-3.840987850">
        <ele>1350.60</ele>
        <time>2026-08-29T08:41:26Z</time>
      </trkpt>
      <trkpt lat="40.794981066" lon="-3.841037890">
        <ele>1351.80</ele>
        <time>2026-08-29T08:41:29Z</time>
      </trkpt>
      <trkpt lat="40.795070585" lon="-3.841075189">
        <ele>1352.80</ele>
        <time>2026-08-29T08:41:32Z</time>
      </trkpt>
      <trkpt lat="40.795216681" lon="-3.841144759">
        <ele>1354.00</ele>
        <time>2026-08-29T08:41:38Z</time>
      </trkpt>
      <trkpt lat="40.795410136" lon="-3.841215922">
        <ele>1355.00</ele>
        <time>2026-08-29T08:41:44Z</time>
      </trkpt>
      <trkpt lat="40.795539217" lon="-3.841278953">
        <ele>1356.20</ele>
        <time>2026-08-29T08:41:48Z</time>
      </trkpt>
      <trkpt lat="40.795657905" lon="-3.841267722">
        <ele>1357.40</ele>
        <time>2026-08-29T08:41:52Z</time>
      </trkpt>
      <trkpt lat="40.795715824" lon="-3.841166804">
        <ele>1358.40</ele>
        <time>2026-08-29T08:41:56Z</time>
      </trkpt>
      <trkpt lat="40.795707693" lon="-3.841039734">
        <ele>1359.20</ele>
        <time>2026-08-29T08:41:59Z</time>
      </trkpt>
      <trkpt lat="40.795670561" lon="-3.840769585">
        <ele>1359.40</ele>
        <time>2026-08-29T08:42:04Z</time>
      </trkpt>
      <trkpt lat="40.795649691" lon="-3.840545285">
        <ele>1359.80</ele>
        <time>2026-08-29T08:42:09Z</time>
      </trkpt>
      <trkpt lat="40.795592107" lon="-3.840266839">
        <ele>1360.80</ele>
        <time>2026-08-29T08:42:15Z</time>
      </trkpt>
      <trkpt lat="40.795515748" lon="-3.839994678">
        <ele>1361.80</ele>
        <time>2026-08-29T08:42:21Z</time>
      </trkpt>
      <trkpt lat="40.795434611" lon="-3.839775659">
        <ele>1362.80</ele>
        <time>2026-08-29T08:42:26Z</time>
      </trkpt>
      <trkpt lat="40.795368897" lon="-3.839639788">
        <ele>1363.20</ele>
        <time>2026-08-29T08:42:29Z</time>
      </trkpt>
      <trkpt lat="40.795310559" lon="-3.839495955">
        <ele>1364.00</ele>
        <time>2026-08-29T08:42:32Z</time>
      </trkpt>
      <trkpt lat="40.795222633" lon="-3.839305434">
        <ele>1364.60</ele>
        <time>2026-08-29T08:42:36Z</time>
      </trkpt>
      <trkpt lat="40.795134874" lon="-3.839046098">
        <ele>1365.20</ele>
        <time>2026-08-29T08:42:41Z</time>
      </trkpt>
      <trkpt lat="40.795039404" lon="-3.838799084">
        <ele>1365.60</ele>
        <time>2026-08-29T08:42:46Z</time>
      </trkpt>
      <trkpt lat="40.794977127" lon="-3.838649215">
        <ele>1365.60</ele>
        <time>2026-08-29T08:42:49Z</time>
      </trkpt>
      <trkpt lat="40.794795658" lon="-3.838304216">
        <ele>1364.80</ele>
        <time>2026-08-29T08:42:56Z</time>
      </trkpt>
      <trkpt lat="40.794707732" lon="-3.838162143">
        <ele>1364.00</ele>
        <time>2026-08-29T08:42:59Z</time>
      </trkpt>
      <trkpt lat="40.794653753" lon="-3.838025182">
        <ele>1363.40</ele>
        <time>2026-08-29T08:43:02Z</time>
      </trkpt>
      <trkpt lat="40.794610586" lon="-3.837919151">
        <ele>1362.40</ele>
        <time>2026-08-29T08:43:04Z</time>
      </trkpt>
      <trkpt lat="40.794530706" lon="-3.837746065">
        <ele>1361.20</ele>
        <time>2026-08-29T08:43:07Z</time>
      </trkpt>
      <trkpt lat="40.794500951" lon="-3.837534674">
        <ele>1359.80</ele>
        <time>2026-08-29T08:43:10Z</time>
      </trkpt>
      <trkpt lat="40.794469854" lon="-3.837383045">
        <ele>1358.40</ele>
        <time>2026-08-29T08:43:12Z</time>
      </trkpt>
      <trkpt lat="40.794399697" lon="-3.837166708">
        <ele>1356.80</ele>
        <time>2026-08-29T08:43:15Z</time>
      </trkpt>
      <trkpt lat="40.794348400" lon="-3.837003345">
        <ele>1356.00</ele>
        <time>2026-08-29T08:43:17Z</time>
      </trkpt>
      <trkpt lat="40.794324595" lon="-3.836846352">
        <ele>1355.40</ele>
        <time>2026-08-29T08:43:19Z</time>
      </trkpt>
      <trkpt lat="40.794289056" lon="-3.836659016">
        <ele>1354.20</ele>
        <time>2026-08-29T08:43:21Z</time>
      </trkpt>
      <trkpt lat="40.794258378" lon="-3.836458856">
        <ele>1352.40</ele>
        <time>2026-08-29T08:43:23Z</time>
      </trkpt>
      <trkpt lat="40.794203309" lon="-3.836213099">
        <ele>1351.00</ele>
        <time>2026-08-29T08:43:25Z</time>
      </trkpt>
      <trkpt lat="40.794117646" lon="-3.835958792">
        <ele>1349.40</ele>
        <time>2026-08-29T08:43:27Z</time>
      </trkpt>
      <trkpt lat="40.794027625" lon="-3.835738935">
        <ele>1347.80</ele>
        <time>2026-08-29T08:43:29Z</time>
      </trkpt>
      <trkpt lat="40.793885384" lon="-3.835497452">
        <ele>1346.40</ele>
        <time>2026-08-29T08:43:31Z</time>
      </trkpt>
      <trkpt lat="40.793820340" lon="-3.835374992">
        <ele>1346.00</ele>
        <time>2026-08-29T08:43:32Z</time>
      </trkpt>
      <trkpt lat="40.793745657" lon="-3.835244318">
        <ele>1345.20</ele>
        <time>2026-08-29T08:43:33Z</time>
      </trkpt>
      <trkpt lat="40.793634178" lon="-3.835094618">
        <ele>1344.60</ele>
        <time>2026-08-29T08:43:34Z</time>
      </trkpt>
      <trkpt lat="40.793540888" lon="-3.834956400">
        <ele>1343.40</ele>
        <time>2026-08-29T08:43:35Z</time>
      </trkpt>
      <trkpt lat="40.793468552" lon="-3.834828911">
        <ele>1343.00</ele>
        <time>2026-08-29T08:43:36Z</time>
      </trkpt>
      <trkpt lat="40.793374926" lon="-3.834569491">
        <ele>1342.40</ele>
        <time>2026-08-29T08:43:38Z</time>
      </trkpt>
      <trkpt lat="40.793351037" lon="-3.834445188">
        <ele>1342.00</ele>
        <time>2026-08-29T08:43:39Z</time>
      </trkpt>
      <trkpt lat="40.793217598" lon="-3.833904136">
        <ele>1341.80</ele>
        <time>2026-08-29T08:43:44Z</time>
      </trkpt>
      <trkpt lat="40.793072088" lon="-3.833485711">
        <ele>1342.00</ele>
        <time>2026-08-29T08:43:49Z</time>
      </trkpt>
      <trkpt lat="40.792967817" lon="-3.833246911">
        <ele>1342.40</ele>
        <time>2026-08-29T08:43:53Z</time>
      </trkpt>
      <trkpt lat="40.792859355" lon="-3.832952287">
        <ele>1343.20</ele>
        <time>2026-08-29T08:43:58Z</time>
      </trkpt>
      <trkpt lat="40.792734046" lon="-3.832735866">
        <ele>1344.00</ele>
        <time>2026-08-29T08:44:02Z</time>
      </trkpt>
      <trkpt lat="40.792613178" lon="-3.832593961">
        <ele>1344.40</ele>
        <time>2026-08-29T08:44:05Z</time>
      </trkpt>
      <trkpt lat="40.792501615" lon="-3.832440320">
        <ele>1345.00</ele>
        <time>2026-08-29T08:44:08Z</time>
      </trkpt>
      <trkpt lat="40.792430369" lon="-3.832324483">
        <ele>1345.60</ele>
        <time>2026-08-29T08:44:10Z</time>
      </trkpt>
      <trkpt lat="40.792308412" lon="-3.832113845">
        <ele>1346.20</ele>
        <time>2026-08-29T08:44:14Z</time>
      </trkpt>
      <trkpt lat="40.792205315" lon="-3.831919134">
        <ele>1346.40</ele>
        <time>2026-08-29T08:44:18Z</time>
      </trkpt>
      <trkpt lat="40.792065253" lon="-3.831631718">
        <ele>1347.40</ele>
        <time>2026-08-29T08:44:25Z</time>
      </trkpt>
      <trkpt lat="40.791933155" lon="-3.831455447">
        <ele>1348.40</ele>
        <time>2026-08-29T08:44:29Z</time>
      </trkpt>
      <trkpt lat="40.791862411" lon="-3.831380093">
        <ele>1349.20</ele>
        <time>2026-08-29T08:44:31Z</time>
      </trkpt>
      <trkpt lat="40.791791333" lon="-3.831304489">
        <ele>1350.40</ele>
        <time>2026-08-29T08:44:34Z</time>
      </trkpt>
      <trkpt lat="40.791646829" lon="-3.831201475">
        <ele>1351.60</ele>
        <time>2026-08-29T08:44:38Z</time>
      </trkpt>
      <trkpt lat="40.791518250" lon="-3.831108436">
        <ele>1353.00</ele>
        <time>2026-08-29T08:44:41Z</time>
      </trkpt>
      <trkpt lat="40.791444490" lon="-3.831031993">
        <ele>1353.60</ele>
        <time>2026-08-29T08:44:43Z</time>
      </trkpt>
      <trkpt lat="40.791269559" lon="-3.830890926">
        <ele>1355.40</ele>
        <time>2026-08-29T08:44:47Z</time>
      </trkpt>
      <trkpt lat="40.791136120" lon="-3.830811800">
        <ele>1356.20</ele>
        <time>2026-08-29T08:44:50Z</time>
      </trkpt>
      <trkpt lat="40.790897571" lon="-3.830595547">
        <ele>1357.20</ele>
        <time>2026-08-29T08:44:56Z</time>
      </trkpt>
      <trkpt lat="40.790792797" lon="-3.830498233">
        <ele>1357.60</ele>
        <time>2026-08-29T08:44:59Z</time>
      </trkpt>
      <trkpt lat="40.790682072" lon="-3.830346940">
        <ele>1358.20</ele>
        <time>2026-08-29T08:45:03Z</time>
      </trkpt>
      <trkpt lat="40.790623147" lon="-3.830229426">
        <ele>1358.40</ele>
        <time>2026-08-29T08:45:06Z</time>
      </trkpt>
      <trkpt lat="40.790603617" lon="-3.830103027">
        <ele>1358.60</ele>
        <time>2026-08-29T08:45:10Z</time>
      </trkpt>
      <trkpt lat="40.790604707" lon="-3.829953829">
        <ele>1358.40</ele>
        <time>2026-08-29T08:45:15Z</time>
      </trkpt>
      <trkpt lat="40.790603533" lon="-3.829808319">
        <ele>1357.60</ele>
        <time>2026-08-29T08:47:32Z</time>
      </trkpt>
      <trkpt lat="40.790629098" lon="-3.829659373">
        <ele>1357.00</ele>
        <time>2026-08-29T08:47:39Z</time>
      </trkpt>
      <trkpt lat="40.790675618" lon="-3.829506487">
        <ele>1356.80</ele>
        <time>2026-08-29T08:47:44Z</time>
      </trkpt>
      <trkpt lat="40.790715264" lon="-3.829385703">
        <ele>1356.40</ele>
        <time>2026-08-29T08:47:47Z</time>
      </trkpt>
      <trkpt lat="40.790762957" lon="-3.829263998">
        <ele>1355.80</ele>
        <time>2026-08-29T08:47:50Z</time>
      </trkpt>
      <trkpt lat="40.790811405" lon="-3.829095187">
        <ele>1355.20</ele>
        <time>2026-08-29T08:47:54Z</time>
      </trkpt>
      <trkpt lat="40.790852057" lon="-3.828968704">
        <ele>1354.40</ele>
        <time>2026-08-29T08:47:57Z</time>
      </trkpt>
      <trkpt lat="40.790884579" lon="-3.828854123">
        <ele>1353.80</ele>
        <time>2026-08-29T08:48:00Z</time>
      </trkpt>
      <trkpt lat="40.790934451" lon="-3.828733005">
        <ele>1353.60</ele>
        <time>2026-08-29T08:48:03Z</time>
      </trkpt>
      <trkpt lat="40.791052803" lon="-3.828480877">
        <ele>1352.80</ele>
        <time>2026-08-29T08:48:07Z</time>
      </trkpt>
      <trkpt lat="40.791202672" lon="-3.828224642">
        <ele>1352.40</ele>
        <time>2026-08-29T08:48:12Z</time>
      </trkpt>
      <trkpt lat="40.791303925" lon="-3.828047784">
        <ele>1351.80</ele>
        <time>2026-08-29T08:48:15Z</time>
      </trkpt>
      <trkpt lat="40.791403167" lon="-3.827923145">
        <ele>1351.00</ele>
        <time>2026-08-29T08:48:17Z</time>
      </trkpt>
      <trkpt lat="40.791475251" lon="-3.827828597">
        <ele>1350.60</ele>
        <time>2026-08-29T08:48:18Z</time>
      </trkpt>
      <trkpt lat="40.791571140" lon="-3.827674789">
        <ele>1350.20</ele>
        <time>2026-08-29T08:48:20Z</time>
      </trkpt>
      <trkpt lat="40.791641045" lon="-3.827534895">
        <ele>1349.60</ele>
        <time>2026-08-29T08:48:22Z</time>
      </trkpt>
      <trkpt lat="40.791696617" lon="-3.827395337">
        <ele>1348.80</ele>
        <time>2026-08-29T08:48:24Z</time>
      </trkpt>
      <trkpt lat="40.791767025" lon="-3.827281594">
        <ele>1348.00</ele>
        <time>2026-08-29T08:48:26Z</time>
      </trkpt>
      <trkpt lat="40.791868949" lon="-3.827169612">
        <ele>1347.20</ele>
        <time>2026-08-29T08:48:28Z</time>
      </trkpt>
      <trkpt lat="40.791976992" lon="-3.827093923">
        <ele>1346.40</ele>
        <time>2026-08-29T08:48:30Z</time>
      </trkpt>
      <trkpt lat="40.792088807" lon="-3.827056289">
        <ele>1345.40</ele>
        <time>2026-08-29T08:48:32Z</time>
      </trkpt>
      <trkpt lat="40.792187294" lon="-3.827053104">
        <ele>1344.80</ele>
        <time>2026-08-29T08:48:34Z</time>
      </trkpt>
      <trkpt lat="40.792341270" lon="-3.827047655">
        <ele>1344.00</ele>
        <time>2026-08-29T08:48:36Z</time>
      </trkpt>
      <trkpt lat="40.792470938" lon="-3.827088308">
        <ele>1343.20</ele>
        <time>2026-08-29T08:48:38Z</time>
      </trkpt>
      <trkpt lat="40.792662632" lon="-3.827074058">
        <ele>1342.60</ele>
        <time>2026-08-29T08:48:41Z</time>
      </trkpt>
      <trkpt lat="40.792784085" lon="-3.826908683">
        <ele>1342.40</ele>
        <time>2026-08-29T08:48:44Z</time>
      </trkpt>
      <trkpt lat="40.792901851" lon="-3.826631745">
        <ele>1341.80</ele>
        <time>2026-08-29T08:48:48Z</time>
      </trkpt>
      <trkpt lat="40.792977121" lon="-3.826204939">
        <ele>1340.40</ele>
        <time>2026-08-29T08:48:55Z</time>
      </trkpt>
      <trkpt lat="40.792926159" lon="-3.825957002">
        <ele>1339.00</ele>
        <time>2026-08-29T08:48:58Z</time>
      </trkpt>
      <trkpt lat="40.792871090" lon="-3.825795986">
        <ele>1338.00</ele>
        <time>2026-08-29T08:49:00Z</time>
      </trkpt>
      <trkpt lat="40.792820463" lon="-3.825613763">
        <ele>1336.40</ele>
        <time>2026-08-29T08:49:02Z</time>
      </trkpt>
      <trkpt lat="40.792804370" lon="-3.825432546">
        <ele>1335.20</ele>
        <time>2026-08-29T08:49:04Z</time>
      </trkpt>
      <trkpt lat="40.792758269" lon="-3.825265998">
        <ele>1333.80</ele>
        <time>2026-08-29T08:49:06Z</time>
      </trkpt>
      <trkpt lat="40.792685850" lon="-3.825156111">
        <ele>1332.40</ele>
        <time>2026-08-29T08:49:08Z</time>
      </trkpt>
      <trkpt lat="40.792591637" lon="-3.825077657">
        <ele>1331.60</ele>
        <time>2026-08-29T08:49:10Z</time>
      </trkpt>
      <trkpt lat="40.792441852" lon="-3.824937344">
        <ele>1329.40</ele>
        <time>2026-08-29T08:49:13Z</time>
      </trkpt>
      <trkpt lat="40.792356776" lon="-3.824816979">
        <ele>1327.80</ele>
        <time>2026-08-29T08:49:15Z</time>
      </trkpt>
      <trkpt lat="40.792289972" lon="-3.824540293">
        <ele>1326.40</ele>
        <time>2026-08-29T08:49:18Z</time>
      </trkpt>
      <trkpt lat="40.792270442" lon="-3.824335271">
        <ele>1325.00</ele>
        <time>2026-08-29T08:49:20Z</time>
      </trkpt>
      <trkpt lat="40.792212607" lon="-3.824058082">
        <ele>1323.40</ele>
        <time>2026-08-29T08:49:23Z</time>
      </trkpt>
      <trkpt lat="40.792165082" lon="-3.823867142">
        <ele>1322.40</ele>
        <time>2026-08-29T08:49:25Z</time>
      </trkpt>
      <trkpt lat="40.792123843" lon="-3.823641920">
        <ele>1320.20</ele>
        <time>2026-08-29T08:49:27Z</time>
      </trkpt>
      <trkpt lat="40.792072462" lon="-3.823409323">
        <ele>1318.60</ele>
        <time>2026-08-29T08:49:29Z</time>
      </trkpt>
      <trkpt lat="40.792012867" lon="-3.823169433">
        <ele>1317.20</ele>
        <time>2026-08-29T08:49:31Z</time>
      </trkpt>
      <trkpt lat="40.791976405" lon="-3.823047895">
        <ele>1315.80</ele>
        <time>2026-08-29T08:49:32Z</time>
      </trkpt>
      <trkpt lat="40.791942040" lon="-3.822921077">
        <ele>1314.40</ele>
        <time>2026-08-29T08:49:33Z</time>
      </trkpt>
      <trkpt lat="40.791907758" lon="-3.822793337">
        <ele>1313.40</ele>
        <time>2026-08-29T08:49:34Z</time>
      </trkpt>
      <trkpt lat="40.791878756" lon="-3.822656628">
        <ele>1311.40</ele>
        <time>2026-08-29T08:49:35Z</time>
      </trkpt>
      <trkpt lat="40.791852772" lon="-3.822517153">
        <ele>1310.40</ele>
        <time>2026-08-29T08:49:36Z</time>
      </trkpt>
      <trkpt lat="40.791827459" lon="-3.822377175">
        <ele>1309.20</ele>
        <time>2026-08-29T08:49:37Z</time>
      </trkpt>
      <trkpt lat="40.791802146" lon="-3.822242143">
        <ele>1308.00</ele>
        <time>2026-08-29T08:49:38Z</time>
      </trkpt>
      <trkpt lat="40.791787729" lon="-3.822109457">
        <ele>1307.00</ele>
        <time>2026-08-29T08:49:39Z</time>
      </trkpt>
      <trkpt lat="40.791763673" lon="-3.821835453">
        <ele>1305.20</ele>
        <time>2026-08-29T08:49:41Z</time>
      </trkpt>
      <trkpt lat="40.791744897" lon="-3.821700588">
        <ele>1304.60</ele>
        <time>2026-08-29T08:49:42Z</time>
      </trkpt>
      <trkpt lat="40.791732408" lon="-3.821562370">
        <ele>1303.60</ele>
        <time>2026-08-29T08:49:43Z</time>
      </trkpt>
      <trkpt lat="40.791711621" lon="-3.821287695">
        <ele>1301.80</ele>
        <time>2026-08-29T08:49:45Z</time>
      </trkpt>
      <trkpt lat="40.791691253" lon="-3.821016289">
        <ele>1300.00</ele>
        <time>2026-08-29T08:49:47Z</time>
      </trkpt>
      <trkpt lat="40.791685386" lon="-3.820883436">
        <ele>1298.60</ele>
        <time>2026-08-29T08:49:48Z</time>
      </trkpt>
      <trkpt lat="40.791669041" lon="-3.820625693">
        <ele>1297.00</ele>
        <time>2026-08-29T08:49:50Z</time>
      </trkpt>
      <trkpt lat="40.791660240" lon="-3.820354957">
        <ele>1295.80</ele>
        <time>2026-08-29T08:49:52Z</time>
      </trkpt>
      <trkpt lat="40.791662922" lon="-3.820213638">
        <ele>1295.20</ele>
        <time>2026-08-29T08:49:53Z</time>
      </trkpt>
      <trkpt lat="40.791655462" lon="-3.820078187">
        <ele>1294.40</ele>
        <time>2026-08-29T08:49:54Z</time>
      </trkpt>
      <trkpt lat="40.791636854" lon="-3.819792951">
        <ele>1293.20</ele>
        <time>2026-08-29T08:49:56Z</time>
      </trkpt>
      <trkpt lat="40.791620174" lon="-3.819655990">
        <ele>1292.80</ele>
        <time>2026-08-29T08:49:57Z</time>
      </trkpt>
      <trkpt lat="40.791601231" lon="-3.819512660">
        <ele>1292.20</ele>
        <time>2026-08-29T08:49:58Z</time>
      </trkpt>
      <trkpt lat="40.791575164" lon="-3.819221389">
        <ele>1290.40</ele>
        <time>2026-08-29T08:50:00Z</time>
      </trkpt>
      <trkpt lat="40.791541217" lon="-3.818938751">
        <ele>1289.00</ele>
        <time>2026-08-29T08:50:02Z</time>
      </trkpt>
      <trkpt lat="40.791512467" lon="-3.818796258">
        <ele>1288.40</ele>
        <time>2026-08-29T08:50:03Z</time>
      </trkpt>
      <trkpt lat="40.791486399" lon="-3.818655275">
        <ele>1287.60</ele>
        <time>2026-08-29T08:50:04Z</time>
      </trkpt>
      <trkpt lat="40.791447340" lon="-3.818514878">
        <ele>1287.00</ele>
        <time>2026-08-29T08:50:05Z</time>
      </trkpt>
      <trkpt lat="40.791401993" lon="-3.818371044">
        <ele>1286.40</ele>
        <time>2026-08-29T08:50:06Z</time>
      </trkpt>
      <trkpt lat="40.791355055" lon="-3.818225618">
        <ele>1285.20</ele>
        <time>2026-08-29T08:50:07Z</time>
      </trkpt>
      <trkpt lat="40.791309038" lon="-3.818083964">
        <ele>1283.60</ele>
        <time>2026-08-29T08:50:08Z</time>
      </trkpt>
      <trkpt lat="40.791259753" lon="-3.817944825">
        <ele>1282.00</ele>
        <time>2026-08-29T08:50:09Z</time>
      </trkpt>
      <trkpt lat="40.791174006" lon="-3.817685321">
        <ele>1279.80</ele>
        <time>2026-08-29T08:50:11Z</time>
      </trkpt>
      <trkpt lat="40.791134778" lon="-3.817546936">
        <ele>1278.20</ele>
        <time>2026-08-29T08:50:12Z</time>
      </trkpt>
      <trkpt lat="40.791102676" lon="-3.817401174">
        <ele>1277.20</ele>
        <time>2026-08-29T08:50:13Z</time>
      </trkpt>
      <trkpt lat="40.791043583" lon="-3.817094229">
        <ele>1274.80</ele>
        <time>2026-08-29T08:50:15Z</time>
      </trkpt>
      <trkpt lat="40.791014582" lon="-3.816936733">
        <ele>1273.60</ele>
        <time>2026-08-29T08:50:16Z</time>
      </trkpt>
      <trkpt lat="40.790970828" lon="-3.816629034">
        <ele>1271.20</ele>
        <time>2026-08-29T08:50:18Z</time>
      </trkpt>
      <trkpt lat="40.790954148" lon="-3.816471454">
        <ele>1270.00</ele>
        <time>2026-08-29T08:50:19Z</time>
      </trkpt>
      <trkpt lat="40.790931685" lon="-3.816321166">
        <ele>1268.60</ele>
        <time>2026-08-29T08:50:20Z</time>
      </trkpt>
      <trkpt lat="40.790870329" lon="-3.816022100">
        <ele>1267.00</ele>
        <time>2026-08-29T08:50:22Z</time>
      </trkpt>
      <trkpt lat="40.790830767" lon="-3.815878183">
        <ele>1265.80</ele>
        <time>2026-08-29T08:50:23Z</time>
      </trkpt>
      <trkpt lat="40.790795982" lon="-3.815736528">
        <ele>1264.80</ele>
        <time>2026-08-29T08:50:24Z</time>
      </trkpt>
      <trkpt lat="40.790758347" lon="-3.815591522">
        <ele>1263.40</ele>
        <time>2026-08-29T08:50:25Z</time>
      </trkpt>
      <trkpt lat="40.790717779" lon="-3.815450454">
        <ele>1262.40</ele>
        <time>2026-08-29T08:50:26Z</time>
      </trkpt>
      <trkpt lat="40.790678719" lon="-3.815312153">
        <ele>1261.20</ele>
        <time>2026-08-29T08:50:27Z</time>
      </trkpt>
      <trkpt lat="40.790649215" lon="-3.815171337">
        <ele>1259.80</ele>
        <time>2026-08-29T08:50:28Z</time>
      </trkpt>
      <trkpt lat="40.790632283" lon="-3.815026078">
        <ele>1258.80</ele>
        <time>2026-08-29T08:50:29Z</time>
      </trkpt>
      <trkpt lat="40.790620465" lon="-3.814741010">
        <ele>1257.00</ele>
        <time>2026-08-29T08:50:31Z</time>
      </trkpt>
      <trkpt lat="40.790606886" lon="-3.814448146">
        <ele>1256.00</ele>
        <time>2026-08-29T08:50:33Z</time>
      </trkpt>
      <trkpt lat="40.790550392" lon="-3.814026453">
        <ele>1254.80</ele>
        <time>2026-08-29T08:50:36Z</time>
      </trkpt>
      <trkpt lat="40.790513596" lon="-3.813759824">
        <ele>1254.00</ele>
        <time>2026-08-29T08:50:38Z</time>
      </trkpt>
      <trkpt lat="40.790499095" lon="-3.813636610">
        <ele>1253.60</ele>
        <time>2026-08-29T08:50:39Z</time>
      </trkpt>
      <trkpt lat="40.790487863" lon="-3.813287001">
        <ele>1253.20</ele>
        <time>2026-08-29T08:50:42Z</time>
      </trkpt>
      <trkpt lat="40.790485935" lon="-3.813101845">
        <ele>1253.40</ele>
        <time>2026-08-29T08:50:44Z</time>
      </trkpt>
      <trkpt lat="40.790499598" lon="-3.812841084">
        <ele>1255.00</ele>
        <time>2026-08-29T08:50:48Z</time>
      </trkpt>
      <trkpt lat="40.790506219" lon="-3.812635895">
        <ele>1256.80</ele>
        <time>2026-08-29T08:50:54Z</time>
      </trkpt>
      <trkpt lat="40.790509405" lon="-3.812471861">
        <ele>1258.00</ele>
        <time>2026-08-29T08:50:59Z</time>
      </trkpt>
      <trkpt lat="40.790542513" lon="-3.812198695">
        <ele>1259.00</ele>
        <time>2026-08-29T08:51:05Z</time>
      </trkpt>
      <trkpt lat="40.790580148" lon="-3.811911363">
        <ele>1260.40</ele>
        <time>2026-08-29T08:51:11Z</time>
      </trkpt>
      <trkpt lat="40.790595822" lon="-3.811792927">
        <ele>1260.40</ele>
        <time>2026-08-29T08:51:13Z</time>
      </trkpt>
      <trkpt lat="40.790647287" lon="-3.811353715">
        <ele>1261.40</ele>
        <time>2026-08-29T08:51:20Z</time>
      </trkpt>
      <trkpt lat="40.790651562" lon="-3.811186748">
        <ele>1261.60</ele>
        <time>2026-08-29T08:51:22Z</time>
      </trkpt>
      <trkpt lat="40.790644940" lon="-3.810866391">
        <ele>1262.60</ele>
        <time>2026-08-29T08:51:26Z</time>
      </trkpt>
      <trkpt lat="40.790703027" lon="-3.810601775">
        <ele>1263.00</ele>
        <time>2026-08-29T08:51:30Z</time>
      </trkpt>
      <trkpt lat="40.790765053" lon="-3.810453750">
        <ele>1262.60</ele>
        <time>2026-08-29T08:51:32Z</time>
      </trkpt>
      <trkpt lat="40.790813584" lon="-3.810260296">
        <ele>1262.40</ele>
        <time>2026-08-29T08:51:35Z</time>
      </trkpt>
      <trkpt lat="40.790867480" lon="-3.810005654">
        <ele>1262.80</ele>
        <time>2026-08-29T08:51:39Z</time>
      </trkpt>
      <trkpt lat="40.790944677" lon="-3.809737936">
        <ele>1263.40</ele>
        <time>2026-08-29T08:51:44Z</time>
      </trkpt>
      <trkpt lat="40.790941995" lon="-3.809553199">
        <ele>1263.80</ele>
        <time>2026-08-29T08:51:48Z</time>
      </trkpt>
      <trkpt lat="40.790915759" lon="-3.809273159">
        <ele>1265.20</ele>
        <time>2026-08-29T08:51:53Z</time>
      </trkpt>
      <trkpt lat="40.790956579" lon="-3.809066713">
        <ele>1265.80</ele>
        <time>2026-08-29T08:51:57Z</time>
      </trkpt>
      <trkpt lat="40.790989520" lon="-3.808950456">
        <ele>1266.00</ele>
        <time>2026-08-29T08:51:59Z</time>
      </trkpt>
      <trkpt lat="40.791088762" lon="-3.808680810">
        <ele>1266.20</ele>
        <time>2026-08-29T08:52:03Z</time>
      </trkpt>
      <trkpt lat="40.791182639" lon="-3.808415942">
        <ele>1267.40</ele>
        <time>2026-08-29T08:52:08Z</time>
      </trkpt>
      <trkpt lat="40.791272996" lon="-3.808160797">
        <ele>1268.60</ele>
        <time>2026-08-29T08:52:12Z</time>
      </trkpt>
      <trkpt lat="40.791319683" lon="-3.808022244">
        <ele>1270.00</ele>
        <time>2026-08-29T08:52:15Z</time>
      </trkpt>
      <trkpt lat="40.791366454" lon="-3.807891235">
        <ele>1270.80</ele>
        <time>2026-08-29T08:52:18Z</time>
      </trkpt>
      <trkpt lat="40.791530572" lon="-3.807585044">
        <ele>1271.80</ele>
        <time>2026-08-29T08:52:23Z</time>
      </trkpt>
      <trkpt lat="40.791652445" lon="-3.807463422">
        <ele>1271.80</ele>
        <time>2026-08-29T08:52:26Z</time>
      </trkpt>
      <trkpt lat="40.791880600" lon="-3.807397792">
        <ele>1271.60</ele>
        <time>2026-08-29T08:52:30Z</time>
      </trkpt>
      <trkpt lat="40.792226018" lon="-3.807377843">
        <ele>1271.40</ele>
        <time>2026-08-29T08:52:36Z</time>
      </trkpt>
      <trkpt lat="40.792356357" lon="-3.807461662">
        <ele>1271.40</ele>
        <time>2026-08-29T08:52:39Z</time>
      </trkpt>
      <trkpt lat="40.792458281" lon="-3.807452442">
        <ele>1271.80</ele>
        <time>2026-08-29T08:52:42Z</time>
      </trkpt>
      <trkpt lat="40.792478733" lon="-3.807321601">
        <ele>1272.40</ele>
        <time>2026-08-29T08:52:46Z</time>
      </trkpt>
      <trkpt lat="40.792479571" lon="-3.807192771">
        <ele>1273.00</ele>
        <time>2026-08-29T08:52:49Z</time>
      </trkpt>
      <trkpt lat="40.792541597" lon="-3.807007698">
        <ele>1273.00</ele>
        <time>2026-08-29T08:52:52Z</time>
      </trkpt>
      <trkpt lat="40.792584261" lon="-3.806898147">
        <ele>1273.00</ele>
        <time>2026-08-29T08:52:54Z</time>
      </trkpt>
      <trkpt lat="40.792638073" lon="-3.806722378">
        <ele>1273.20</ele>
        <time>2026-08-29T08:52:57Z</time>
      </trkpt>
      <trkpt lat="40.792799760" lon="-3.806278557">
        <ele>1272.60</ele>
        <time>2026-08-29T08:53:03Z</time>
      </trkpt>
      <trkpt lat="40.792864971" lon="-3.806053586">
        <ele>1271.80</ele>
        <time>2026-08-29T08:53:07Z</time>
      </trkpt>
      <trkpt lat="40.792960357" lon="-3.805805650">
        <ele>1271.20</ele>
        <time>2026-08-29T08:53:12Z</time>
      </trkpt>
      <trkpt lat="40.793024227" lon="-3.805633401">
        <ele>1270.60</ele>
        <time>2026-08-29T08:53:15Z</time>
      </trkpt>
      <trkpt lat="40.793096898" lon="-3.805403905">
        <ele>1270.60</ele>
        <time>2026-08-29T08:53:20Z</time>
      </trkpt>
      <trkpt lat="40.793217095" lon="-3.805139456">
        <ele>1270.40</ele>
        <time>2026-08-29T08:53:24Z</time>
      </trkpt>
      <trkpt lat="40.793405939" lon="-3.804978942">
        <ele>1270.20</ele>
        <time>2026-08-29T08:53:28Z</time>
      </trkpt>
      <trkpt lat="40.793644991" lon="-3.804869391">
        <ele>1270.80</ele>
        <time>2026-08-29T08:53:33Z</time>
      </trkpt>
      <trkpt lat="40.793868452" lon="-3.804782806">
        <ele>1271.60</ele>
        <time>2026-08-29T08:53:38Z</time>
      </trkpt>
      <trkpt lat="40.794051765" lon="-3.804774340">
        <ele>1272.40</ele>
        <time>2026-08-29T08:53:43Z</time>
      </trkpt>
      <trkpt lat="40.794204734" lon="-3.804867212">
        <ele>1271.20</ele>
        <time>2026-08-29T08:53:47Z</time>
      </trkpt>
      <trkpt lat="40.794300372" lon="-3.804936027">
        <ele>1270.60</ele>
        <time>2026-08-29T08:53:49Z</time>
      </trkpt>
      <trkpt lat="40.794407828" lon="-3.804996042">
        <ele>1270.00</ele>
        <time>2026-08-29T08:53:51Z</time>
      </trkpt>
      <trkpt lat="40.794543363" lon="-3.804939883">
        <ele>1269.80</ele>
        <time>2026-08-29T08:53:55Z</time>
      </trkpt>
      <trkpt lat="40.794566832" lon="-3.804815495">
        <ele>1270.00</ele>
        <time>2026-08-29T08:53:58Z</time>
      </trkpt>
      <trkpt lat="40.794577310" lon="-3.804518357">
        <ele>1270.60</ele>
        <time>2026-08-29T08:54:04Z</time>
      </trkpt>
      <trkpt lat="40.794594577" lon="-3.804095322">
        <ele>1271.40</ele>
        <time>2026-08-29T08:54:11Z</time>
      </trkpt>
      <trkpt lat="40.794611089" lon="-3.803976551">
        <ele>1271.80</ele>
        <time>2026-08-29T08:54:13Z</time>
      </trkpt>
      <trkpt lat="40.794638917" lon="-3.803700199">
        <ele>1272.80</ele>
        <time>2026-08-29T08:54:18Z</time>
      </trkpt>
      <trkpt lat="40.794645874" lon="-3.803509343">
        <ele>1274.00</ele>
        <time>2026-08-29T08:54:22Z</time>
      </trkpt>
      <trkpt lat="40.794634474" lon="-3.803328294">
        <ele>1275.40</ele>
        <time>2026-08-29T08:54:26Z</time>
      </trkpt>
      <trkpt lat="40.794653585" lon="-3.803184712">
        <ele>1276.60</ele>
        <time>2026-08-29T08:54:29Z</time>
      </trkpt>
      <trkpt lat="40.794686694" lon="-3.803049093">
        <ele>1277.60</ele>
        <time>2026-08-29T08:54:32Z</time>
      </trkpt>
      <trkpt lat="40.794739667" lon="-3.802939039">
        <ele>1278.60</ele>
        <time>2026-08-29T08:54:35Z</time>
      </trkpt>
      <trkpt lat="40.794795156" lon="-3.802811634">
        <ele>1280.20</ele>
        <time>2026-08-29T08:54:39Z</time>
      </trkpt>
      <trkpt lat="40.794843100" lon="-3.802680373">
        <ele>1281.80</ele>
        <time>2026-08-29T08:54:43Z</time>
      </trkpt>
      <trkpt lat="40.794940917" lon="-3.802537713">
        <ele>1283.80</ele>
        <time>2026-08-29T08:54:48Z</time>
      </trkpt>
      <trkpt lat="40.795017276" lon="-3.802456912">
        <ele>1285.00</ele>
        <time>2026-08-29T08:54:52Z</time>
      </trkpt>
      <trkpt lat="40.795191284" lon="-3.802336631">
        <ele>1287.20</ele>
        <time>2026-08-29T08:54:58Z</time>
      </trkpt>
      <trkpt lat="40.795274936" lon="-3.802286675">
        <ele>1288.20</ele>
        <time>2026-08-29T08:55:00Z</time>
      </trkpt>
      <trkpt lat="40.795380380" lon="-3.802239904">
        <ele>1289.40</ele>
        <time>2026-08-29T08:55:03Z</time>
      </trkpt>
      <trkpt lat="40.795530919" lon="-3.802192379">
        <ele>1290.60</ele>
        <time>2026-08-29T08:55:07Z</time>
      </trkpt>
      <trkpt lat="40.795653546" lon="-3.802160947">
        <ele>1291.60</ele>
        <time>2026-08-29T08:55:10Z</time>
      </trkpt>
      <trkpt lat="40.795746418" lon="-3.802140076">
        <ele>1292.60</ele>
        <time>2026-08-29T08:55:13Z</time>
      </trkpt>
      <trkpt lat="40.795867033" lon="-3.802096155">
        <ele>1294.20</ele>
        <time>2026-08-29T08:55:17Z</time>
      </trkpt>
      <trkpt lat="40.795953451" lon="-3.802044773">
        <ele>1295.20</ele>
        <time>2026-08-29T08:55:20Z</time>
      </trkpt>
      <trkpt lat="40.796051184" lon="-3.801971180">
        <ele>1296.60</ele>
        <time>2026-08-29T08:55:24Z</time>
      </trkpt>
      <trkpt lat="40.796151180" lon="-3.801908903">
        <ele>1297.80</ele>
        <time>2026-08-29T08:55:28Z</time>
      </trkpt>
      <trkpt lat="40.796240112" lon="-3.801847044">
        <ele>1299.00</ele>
        <time>2026-08-29T08:55:31Z</time>
      </trkpt>
      <trkpt lat="40.796372881" lon="-3.801768254">
        <ele>1300.00</ele>
        <time>2026-08-29T08:55:35Z</time>
      </trkpt>
      <trkpt lat="40.796487629" lon="-3.801720142">
        <ele>1301.20</ele>
        <time>2026-08-29T08:55:38Z</time>
      </trkpt>
      <trkpt lat="40.796597013" lon="-3.801686363">
        <ele>1302.20</ele>
        <time>2026-08-29T08:55:41Z</time>
      </trkpt>
      <trkpt lat="40.796728525" lon="-3.801660463">
        <ele>1303.60</ele>
        <time>2026-08-29T08:55:45Z</time>
      </trkpt>
      <trkpt lat="40.796816619" lon="-3.801633390">
        <ele>1304.60</ele>
        <time>2026-08-29T08:55:48Z</time>
      </trkpt>
      <trkpt lat="40.796905300" lon="-3.801584523">
        <ele>1305.60</ele>
        <time>2026-08-29T08:55:51Z</time>
      </trkpt>
      <trkpt lat="40.797080565" lon="-3.801457789">
        <ele>1308.20</ele>
        <time>2026-08-29T08:55:59Z</time>
      </trkpt>
      <trkpt lat="40.797233367" lon="-3.801351758">
        <ele>1309.40</ele>
        <time>2026-08-29T08:56:05Z</time>
      </trkpt>
      <trkpt lat="40.797304949" lon="-3.801415041">
        <ele>1310.40</ele>
        <time>2026-08-29T08:56:12Z</time>
      </trkpt>
      <trkpt lat="40.797236050" lon="-3.801508918">
        <ele>1311.40</ele>
        <time>2026-08-29T08:56:23Z</time>
      </trkpt>
      <trkpt lat="40.797147369" lon="-3.801692650">
        <ele>1312.60</ele>
        <time>2026-08-29T08:56:35Z</time>
      </trkpt>
      <trkpt lat="40.797016947" lon="-3.801848805">
        <ele>1313.40</ele>
        <time>2026-08-29T08:56:43Z</time>
      </trkpt>
      <trkpt lat="40.797046535" lon="-3.801936312">
        <ele>1314.20</ele>
        <time>2026-08-29T08:56:49Z</time>
      </trkpt>
      <trkpt lat="40.797166564" lon="-3.801861126">
        <ele>1315.40</ele>
        <time>2026-08-29T08:56:56Z</time>
      </trkpt>
      <trkpt lat="40.797286425" lon="-3.801753083">
        <ele>1316.80</ele>
        <time>2026-08-29T08:57:03Z</time>
      </trkpt>
      <trkpt lat="40.797400502" lon="-3.801681334">
        <ele>1317.40</ele>
        <time>2026-08-29T08:57:07Z</time>
      </trkpt>
      <trkpt lat="40.797494547" lon="-3.801631043">
        <ele>1317.80</ele>
        <time>2026-08-29T08:57:10Z</time>
      </trkpt>
      <trkpt lat="40.797592029" lon="-3.801568681">
        <ele>1319.00</ele>
        <time>2026-08-29T08:57:14Z</time>
      </trkpt>
      <trkpt lat="40.797668640" lon="-3.801505817">
        <ele>1319.40</ele>
        <time>2026-08-29T08:57:17Z</time>
      </trkpt>
      <trkpt lat="40.797740137" lon="-3.801433397">
        <ele>1320.00</ele>
        <time>2026-08-29T08:57:20Z</time>
      </trkpt>
      <trkpt lat="40.797829321" lon="-3.801396601">
        <ele>1321.00</ele>
        <time>2026-08-29T08:57:24Z</time>
      </trkpt>
      <trkpt lat="40.797805851" lon="-3.801544290">
        <ele>1322.20</ele>
        <time>2026-08-29T08:57:30Z</time>
      </trkpt>
      <trkpt lat="40.797724295" lon="-3.801640263">
        <ele>1323.40</ele>
        <time>2026-08-29T08:57:34Z</time>
      </trkpt>
      <trkpt lat="40.797638213" lon="-3.801791053">
        <ele>1324.40</ele>
        <time>2026-08-29T08:57:39Z</time>
      </trkpt>
      <trkpt lat="40.797563363" lon="-3.801919883">
        <ele>1325.40</ele>
        <time>2026-08-29T08:57:44Z</time>
      </trkpt>
      <trkpt lat="40.797497146" lon="-3.802014263">
        <ele>1326.20</ele>
        <time>2026-08-29T08:57:48Z</time>
      </trkpt>
      <trkpt lat="40.797404442" lon="-3.802157426">
        <ele>1327.40</ele>
        <time>2026-08-29T08:57:53Z</time>
      </trkpt>
      <trkpt lat="40.797272511" lon="-3.802353395">
        <ele>1328.80</ele>
        <time>2026-08-29T08:57:59Z</time>
      </trkpt>
      <trkpt lat="40.797175365" lon="-3.802484488">
        <ele>1330.00</ele>
        <time>2026-08-29T08:58:03Z</time>
      </trkpt>
      <trkpt lat="40.797104370" lon="-3.802574342">
        <ele>1330.60</ele>
        <time>2026-08-29T08:58:06Z</time>
      </trkpt>
      <trkpt lat="40.797043098" lon="-3.802743657">
        <ele>1332.20</ele>
        <time>2026-08-29T08:58:12Z</time>
      </trkpt>
      <trkpt lat="40.797153907" lon="-3.802709794">
        <ele>1333.20</ele>
        <time>2026-08-29T08:58:17Z</time>
      </trkpt>
      <trkpt lat="40.797259435" lon="-3.802651288">
        <ele>1334.60</ele>
        <time>2026-08-29T08:58:21Z</time>
      </trkpt>
      <trkpt lat="40.797368065" lon="-3.802601499">
        <ele>1336.00</ele>
        <time>2026-08-29T08:58:25Z</time>
      </trkpt>
      <trkpt lat="40.797495386" lon="-3.802548777">
        <ele>1337.80</ele>
        <time>2026-08-29T08:58:31Z</time>
      </trkpt>
      <trkpt lat="40.797647936" lon="-3.802476106">
        <ele>1339.20</ele>
        <time>2026-08-29T08:58:36Z</time>
      </trkpt>
      <trkpt lat="40.797768719" lon="-3.802405531">
        <ele>1340.40</ele>
        <time>2026-08-29T08:58:41Z</time>
      </trkpt>
      <trkpt lat="40.797875170" lon="-3.802355239">
        <ele>1341.60</ele>
        <time>2026-08-29T08:58:45Z</time>
      </trkpt>
      <trkpt lat="40.798024703" lon="-3.802282149">
        <ele>1342.60</ele>
        <time>2026-08-29T08:58:49Z</time>
      </trkpt>
      <trkpt lat="40.798143810" lon="-3.802233953">
        <ele>1343.80</ele>
        <time>2026-08-29T08:58:53Z</time>
      </trkpt>
      <trkpt lat="40.798244895" lon="-3.802195564">
        <ele>1345.00</ele>
        <time>2026-08-29T08:58:57Z</time>
      </trkpt>
      <trkpt lat="40.798362996" lon="-3.802119875">
        <ele>1346.00</ele>
        <time>2026-08-29T08:59:01Z</time>
      </trkpt>
      <trkpt lat="40.798529880" lon="-3.802016191">
        <ele>1347.40</ele>
        <time>2026-08-29T08:59:06Z</time>
      </trkpt>
      <trkpt lat="40.798674468" lon="-3.801942095">
        <ele>1348.60</ele>
        <time>2026-08-29T08:59:10Z</time>
      </trkpt>
      <trkpt lat="40.798775889" lon="-3.801879231">
        <ele>1349.40</ele>
        <time>2026-08-29T08:59:13Z</time>
      </trkpt>
      <trkpt lat="40.798896337" lon="-3.801789377">
        <ele>1350.60</ele>
        <time>2026-08-29T08:59:18Z</time>
      </trkpt>
      <trkpt lat="40.799006391" lon="-3.801695332">
        <ele>1351.60</ele>
        <time>2026-08-29T08:59:22Z</time>
      </trkpt>
      <trkpt lat="40.799125414" lon="-3.801686950">
        <ele>1352.80</ele>
        <time>2026-08-29T08:59:27Z</time>
      </trkpt>
      <trkpt lat="40.799125247" lon="-3.801806895">
        <ele>1355.00</ele>
        <time>2026-08-29T08:59:33Z</time>
      </trkpt>
      <trkpt lat="40.799067998" lon="-3.801901694">
        <ele>1356.40</ele>
        <time>2026-08-29T08:59:37Z</time>
      </trkpt>
      <trkpt lat="40.798916705" lon="-3.802085761">
        <ele>1358.00</ele>
        <time>2026-08-29T08:59:44Z</time>
      </trkpt>
      <trkpt lat="40.798794497" lon="-3.802230349">
        <ele>1359.40</ele>
        <time>2026-08-29T08:59:49Z</time>
      </trkpt>
      <trkpt lat="40.798687544" lon="-3.802319951">
        <ele>1360.60</ele>
        <time>2026-08-29T08:59:53Z</time>
      </trkpt>
      <trkpt lat="40.798608251" lon="-3.802454732">
        <ele>1361.80</ele>
        <time>2026-08-29T08:59:57Z</time>
      </trkpt>
      <trkpt lat="40.798664242" lon="-3.802562859">
        <ele>1363.00</ele>
        <time>2026-08-29T09:00:01Z</time>
      </trkpt>
      <trkpt lat="40.798763316" lon="-3.802529834">
        <ele>1363.80</ele>
        <time>2026-08-29T09:00:04Z</time>
      </trkpt>
      <trkpt lat="40.798919303" lon="-3.802403938">
        <ele>1365.00</ele>
        <time>2026-08-29T09:00:10Z</time>
      </trkpt>
      <trkpt lat="40.799021479" lon="-3.802338224">
        <ele>1366.20</ele>
        <time>2026-08-29T09:00:14Z</time>
      </trkpt>
      <trkpt lat="40.799126420" lon="-3.802275527">
        <ele>1367.00</ele>
        <time>2026-08-29T09:00:18Z</time>
      </trkpt>
      <trkpt lat="40.799291963" lon="-3.802205119">
        <ele>1368.60</ele>
        <time>2026-08-29T09:00:23Z</time>
      </trkpt>
      <trkpt lat="40.799463540" lon="-3.802121133">
        <ele>1369.80</ele>
        <time>2026-08-29T09:00:28Z</time>
      </trkpt>
      <trkpt lat="40.799579127" lon="-3.802066231">
        <ele>1370.60</ele>
        <time>2026-08-29T09:00:31Z</time>
      </trkpt>
      <trkpt lat="40.799767133" lon="-3.801984843">
        <ele>1372.00</ele>
        <time>2026-08-29T09:00:36Z</time>
      </trkpt>
      <trkpt lat="40.799888503" lon="-3.801943352">
        <ele>1373.00</ele>
        <time>2026-08-29T09:00:40Z</time>
      </trkpt>
      <trkpt lat="40.800006855" lon="-3.801916530">
        <ele>1374.40</ele>
        <time>2026-08-29T09:00:44Z</time>
      </trkpt>
      <trkpt lat="40.800109534" lon="-3.801917285">
        <ele>1375.60</ele>
        <time>2026-08-29T09:00:48Z</time>
      </trkpt>
      <trkpt lat="40.800246075" lon="-3.801901443">
        <ele>1376.80</ele>
        <time>2026-08-29T09:00:52Z</time>
      </trkpt>
      <trkpt lat="40.800344395" lon="-3.801889373">
        <ele>1377.80</ele>
        <time>2026-08-29T09:00:55Z</time>
      </trkpt>
      <trkpt lat="40.800467944" lon="-3.801866658">
        <ele>1379.20</ele>
        <time>2026-08-29T09:00:58Z</time>
      </trkpt>
      <trkpt lat="40.800555870" lon="-3.801846458">
        <ele>1380.40</ele>
        <time>2026-08-29T09:01:01Z</time>
      </trkpt>
      <trkpt lat="40.800669780" lon="-3.801865233">
        <ele>1382.00</ele>
        <time>2026-08-29T09:01:04Z</time>
      </trkpt>
      <trkpt lat="40.800815793" lon="-3.801866490">
        <ele>1383.80</ele>
        <time>2026-08-29T09:01:09Z</time>
      </trkpt>
      <trkpt lat="40.800921991" lon="-3.801870262">
        <ele>1385.40</ele>
        <time>2026-08-29T09:01:12Z</time>
      </trkpt>
      <trkpt lat="40.801062053" lon="-3.801888702">
        <ele>1387.00</ele>
        <time>2026-08-29T09:01:16Z</time>
      </trkpt>
      <trkpt lat="40.801154338" lon="-3.801904209">
        <ele>1388.40</ele>
        <time>2026-08-29T09:01:19Z</time>
      </trkpt>
      <trkpt lat="40.801269086" lon="-3.801914016">
        <ele>1389.60</ele>
        <time>2026-08-29T09:01:22Z</time>
      </trkpt>
      <trkpt lat="40.801361622" lon="-3.801932288">
        <ele>1391.00</ele>
        <time>2026-08-29T09:01:25Z</time>
      </trkpt>
      <trkpt lat="40.801526997" lon="-3.801962715">
        <ele>1393.00</ele>
        <time>2026-08-29T09:01:30Z</time>
      </trkpt>
      <trkpt lat="40.801639231" lon="-3.802006803">
        <ele>1394.40</ele>
        <time>2026-08-29T09:01:33Z</time>
      </trkpt>
      <trkpt lat="40.801726738" lon="-3.802036727">
        <ele>1395.60</ele>
        <time>2026-08-29T09:01:36Z</time>
      </trkpt>
      <trkpt lat="40.801868308" lon="-3.802081486">
        <ele>1397.80</ele>
        <time>2026-08-29T09:01:42Z</time>
      </trkpt>
      <trkpt lat="40.801966460" lon="-3.802112667">
        <ele>1399.40</ele>
        <time>2026-08-29T09:01:46Z</time>
      </trkpt>
      <trkpt lat="40.802054470" lon="-3.802143428">
        <ele>1400.40</ele>
        <time>2026-08-29T09:01:49Z</time>
      </trkpt>
      <trkpt lat="40.802213140" lon="-3.802212998">
        <ele>1403.00</ele>
        <time>2026-08-29T09:01:55Z</time>
      </trkpt>
      <trkpt lat="40.802340042" lon="-3.802308217">
        <ele>1404.00</ele>
        <time>2026-08-29T09:01:58Z</time>
      </trkpt>
      <trkpt lat="40.802517487" lon="-3.802415086">
        <ele>1406.20</ele>
        <time>2026-08-29T09:02:03Z</time>
      </trkpt>
      <trkpt lat="40.802608179" lon="-3.802450961">
        <ele>1408.60</ele>
        <time>2026-08-29T09:02:07Z</time>
      </trkpt>
      <trkpt lat="40.802732818" lon="-3.802506700">
        <ele>1410.00</ele>
        <time>2026-08-29T09:02:11Z</time>
      </trkpt>
      <trkpt lat="40.802833820" lon="-3.802585322">
        <ele>1411.20</ele>
        <time>2026-08-29T09:02:14Z</time>
      </trkpt>
      <trkpt lat="40.802929206" lon="-3.802648857">
        <ele>1412.40</ele>
        <time>2026-08-29T09:02:17Z</time>
      </trkpt>
      <trkpt lat="40.803040266" lon="-3.802730329">
        <ele>1413.60</ele>
        <time>2026-08-29T09:02:20Z</time>
      </trkpt>
      <trkpt lat="40.803174963" lon="-3.802784057">
        <ele>1415.60</ele>
        <time>2026-08-29T09:02:25Z</time>
      </trkpt>
      <trkpt lat="40.803286191" lon="-3.802842228">
        <ele>1417.20</ele>
        <time>2026-08-29T09:02:29Z</time>
      </trkpt>
      <trkpt lat="40.803490290" lon="-3.802958233">
        <ele>1419.40</ele>
        <time>2026-08-29T09:02:35Z</time>
      </trkpt>
      <trkpt lat="40.803637896" lon="-3.803061666">
        <ele>1420.80</ele>
        <time>2026-08-29T09:02:39Z</time>
      </trkpt>
      <trkpt lat="40.803747196" lon="-3.803089159">
        <ele>1421.80</ele>
        <time>2026-08-29T09:02:42Z</time>
      </trkpt>
      <trkpt lat="40.803905195" lon="-3.803139953">
        <ele>1422.80</ele>
        <time>2026-08-29T09:02:46Z</time>
      </trkpt>
      <trkpt lat="40.804024553" lon="-3.803194603">
        <ele>1424.00</ele>
        <time>2026-08-29T09:02:49Z</time>
      </trkpt>
      <trkpt lat="40.804124800" lon="-3.803225700">
        <ele>1424.60</ele>
        <time>2026-08-29T09:02:52Z</time>
      </trkpt>
      <trkpt lat="40.804237118" lon="-3.803269789">
        <ele>1425.20</ele>
        <time>2026-08-29T09:02:55Z</time>
      </trkpt>
      <trkpt lat="40.804394614" lon="-3.803338688">
        <ele>1426.20</ele>
        <time>2026-08-29T09:02:58Z</time>
      </trkpt>
      <trkpt lat="40.804610364" lon="-3.803435331">
        <ele>1427.20</ele>
        <time>2026-08-29T09:03:03Z</time>
      </trkpt>
      <trkpt lat="40.804734081" lon="-3.803481935">
        <ele>1428.40</ele>
        <time>2026-08-29T09:03:07Z</time>
      </trkpt>
      <trkpt lat="40.804848075" lon="-3.803549157">
        <ele>1429.40</ele>
        <time>2026-08-29T09:03:11Z</time>
      </trkpt>
      <trkpt lat="40.805039769" lon="-3.803688968">
        <ele>1431.80</ele>
        <time>2026-08-29T09:03:19Z</time>
      </trkpt>
      <trkpt lat="40.805158792" lon="-3.803678071">
        <ele>1432.80</ele>
        <time>2026-08-29T09:03:23Z</time>
      </trkpt>
      <trkpt lat="40.805322742" lon="-3.803695170">
        <ele>1434.00</ele>
        <time>2026-08-29T09:03:27Z</time>
      </trkpt>
      <trkpt lat="40.805465067" lon="-3.803624092">
        <ele>1435.20</ele>
        <time>2026-08-29T09:03:32Z</time>
      </trkpt>
      <trkpt lat="40.805587275" lon="-3.803573968">
        <ele>1436.40</ele>
        <time>2026-08-29T09:03:36Z</time>
      </trkpt>
      <trkpt lat="40.805789866" lon="-3.803530298">
        <ele>1437.60</ele>
        <time>2026-08-29T09:03:41Z</time>
      </trkpt>
      <trkpt lat="40.805900088" lon="-3.803488640">
        <ele>1438.60</ele>
        <time>2026-08-29T09:03:44Z</time>
      </trkpt>
      <trkpt lat="40.806052135" lon="-3.803480510">
        <ele>1439.60</ele>
        <time>2026-08-29T09:03:48Z</time>
      </trkpt>
      <trkpt lat="40.806175182" lon="-3.803448994">
        <ele>1440.80</ele>
        <time>2026-08-29T09:03:52Z</time>
      </trkpt>
      <trkpt lat="40.806326307" lon="-3.803390572">
        <ele>1441.80</ele>
        <time>2026-08-29T09:03:57Z</time>
      </trkpt>
      <trkpt lat="40.806426974" lon="-3.803330977">
        <ele>1443.00</ele>
        <time>2026-08-29T09:04:00Z</time>
      </trkpt>
      <trkpt lat="40.806554295" lon="-3.803246738">
        <ele>1443.80</ele>
        <time>2026-08-29T09:04:04Z</time>
      </trkpt>
      <trkpt lat="40.806755209" lon="-3.803180102">
        <ele>1444.80</ele>
        <time>2026-08-29T09:04:09Z</time>
      </trkpt>
      <trkpt lat="40.806940785" lon="-3.803096032">
        <ele>1446.00</ele>
        <time>2026-08-29T09:04:14Z</time>
      </trkpt>
      <trkpt lat="40.807126025" lon="-3.803023444">
        <ele>1446.80</ele>
        <time>2026-08-29T09:04:18Z</time>
      </trkpt>
      <trkpt lat="40.807312522" lon="-3.802942811">
        <ele>1448.20</ele>
        <time>2026-08-29T09:04:23Z</time>
      </trkpt>
      <trkpt lat="40.807483597" lon="-3.802888244">
        <ele>1449.20</ele>
        <time>2026-08-29T09:04:28Z</time>
      </trkpt>
      <trkpt lat="40.807699515" lon="-3.802794619">
        <ele>1450.40</ele>
        <time>2026-08-29T09:04:34Z</time>
      </trkpt>
      <trkpt lat="40.807874277" lon="-3.802712476">
        <ele>1451.40</ele>
        <time>2026-08-29T09:04:39Z</time>
      </trkpt>
      <trkpt lat="40.808056081" lon="-3.802606277">
        <ele>1452.00</ele>
        <time>2026-08-29T09:04:44Z</time>
      </trkpt>
      <trkpt lat="40.808223384" lon="-3.802506700">
        <ele>1453.40</ele>
        <time>2026-08-29T09:04:49Z</time>
      </trkpt>
      <trkpt lat="40.808413737" lon="-3.802379211">
        <ele>1453.80</ele>
        <time>2026-08-29T09:04:54Z</time>
      </trkpt>
      <trkpt lat="40.808572406" lon="-3.802255159">
        <ele>1454.40</ele>
        <time>2026-08-29T09:04:59Z</time>
      </trkpt>
      <trkpt lat="40.808802992" lon="-3.802105458">
        <ele>1455.20</ele>
        <time>2026-08-29T09:05:05Z</time>
      </trkpt>
      <trkpt lat="40.808994519" lon="-3.802040834">
        <ele>1455.80</ele>
        <time>2026-08-29T09:05:10Z</time>
      </trkpt>
      <trkpt lat="40.809090910" lon="-3.802031530">
        <ele>1456.40</ele>
        <time>2026-08-29T09:05:13Z</time>
      </trkpt>
      <trkpt lat="40.809192667" lon="-3.802035050">
        <ele>1457.00</ele>
        <time>2026-08-29T09:05:16Z</time>
      </trkpt>
      <trkpt lat="40.809352174" lon="-3.802037900">
        <ele>1458.60</ele>
        <time>2026-08-29T09:05:21Z</time>
      </trkpt>
      <trkpt lat="40.809458625" lon="-3.802026249">
        <ele>1459.60</ele>
        <time>2026-08-29T09:05:25Z</time>
      </trkpt>
      <trkpt lat="40.809595753" lon="-3.802015604">
        <ele>1460.80</ele>
        <time>2026-08-29T09:05:29Z</time>
      </trkpt>
      <trkpt lat="40.809750650" lon="-3.802011497">
        <ele>1462.00</ele>
        <time>2026-08-29T09:05:33Z</time>
      </trkpt>
      <trkpt lat="40.809852406" lon="-3.801995739">
        <ele>1463.00</ele>
        <time>2026-08-29T09:05:36Z</time>
      </trkpt>
      <trkpt lat="40.809963634" lon="-3.801967828">
        <ele>1464.20</ele>
        <time>2026-08-29T09:05:39Z</time>
      </trkpt>
      <trkpt lat="40.810054075" lon="-3.801946789">
        <ele>1465.20</ele>
        <time>2026-08-29T09:05:42Z</time>
      </trkpt>
      <trkpt lat="40.810173182" lon="-3.801918710">
        <ele>1466.80</ele>
        <time>2026-08-29T09:05:45Z</time>
      </trkpt>
      <trkpt lat="40.810342329" lon="-3.801874705">
        <ele>1468.40</ele>
        <time>2026-08-29T09:05:50Z</time>
      </trkpt>
      <trkpt lat="40.810471578" lon="-3.801862467">
        <ele>1470.00</ele>
        <time>2026-08-29T09:05:54Z</time>
      </trkpt>
      <trkpt lat="40.810563527" lon="-3.801879985">
        <ele>1470.60</ele>
        <time>2026-08-29T09:05:57Z</time>
      </trkpt>
      <trkpt lat="40.810792604" lon="-3.801959530">
        <ele>1472.40</ele>
        <time>2026-08-29T09:06:03Z</time>
      </trkpt>
      <trkpt lat="40.810956052" lon="-3.801958859">
        <ele>1473.20</ele>
        <time>2026-08-29T09:06:08Z</time>
      </trkpt>
      <trkpt lat="40.811146405" lon="-3.801894989">
        <ele>1474.20</ele>
        <time>2026-08-29T09:06:13Z</time>
      </trkpt>
      <trkpt lat="40.811382020" lon="-3.801839920">
        <ele>1475.40</ele>
        <time>2026-08-29T09:06:19Z</time>
      </trkpt>
      <trkpt lat="40.811495678" lon="-3.801840590">
        <ele>1476.40</ele>
        <time>2026-08-29T09:06:25Z</time>
      </trkpt>
      <trkpt lat="40.811590645" lon="-3.801816618">
        <ele>1477.00</ele>
        <time>2026-08-29T09:07:01Z</time>
      </trkpt>
      <trkpt lat="40.811692737" lon="-3.801714275">
        <ele>1475.80</ele>
        <time>2026-08-29T09:07:05Z</time>
      </trkpt>
      <trkpt lat="40.811897507" lon="-3.801580332">
        <ele>1473.40</ele>
        <time>2026-08-29T09:07:10Z</time>
      </trkpt>
      <trkpt lat="40.811992139" lon="-3.801509421">
        <ele>1472.60</ele>
        <time>2026-08-29T09:07:13Z</time>
      </trkpt>
      <trkpt lat="40.812084256" lon="-3.801319990">
        <ele>1471.40</ele>
        <time>2026-08-29T09:07:18Z</time>
      </trkpt>
      <trkpt lat="40.812174948" lon="-3.801252097">
        <ele>1470.20</ele>
        <time>2026-08-29T09:07:21Z</time>
      </trkpt>
      <trkpt lat="40.812407378" lon="-3.801087644">
        <ele>1469.20</ele>
        <time>2026-08-29T09:13:56Z</time>
      </trkpt>
      <trkpt lat="40.812448617" lon="-3.800945655">
        <ele>1468.60</ele>
        <time>2026-08-29T09:14:04Z</time>
      </trkpt>
      <trkpt lat="40.812474350" lon="-3.800832750">
        <ele>1468.00</ele>
        <time>2026-08-29T09:16:04Z</time>
      </trkpt>
      <trkpt lat="40.812526736" lon="-3.800732838">
        <ele>1467.80</ele>
        <time>2026-08-29T09:16:09Z</time>
      </trkpt>
      <trkpt lat="40.812580045" lon="-3.800594537">
        <ele>1467.40</ele>
        <time>2026-08-29T09:16:15Z</time>
      </trkpt>
      <trkpt lat="40.812640144" lon="-3.800382139">
        <ele>1467.20</ele>
        <time>2026-08-29T09:16:22Z</time>
      </trkpt>
      <trkpt lat="40.812706864" lon="-3.800120037">
        <ele>1465.60</ele>
        <time>2026-08-29T09:16:28Z</time>
      </trkpt>
      <trkpt lat="40.812714491" lon="-3.799876207">
        <ele>1464.20</ele>
        <time>2026-08-29T09:16:31Z</time>
      </trkpt>
      <trkpt lat="40.812718766" lon="-3.799702199">
        <ele>1463.00</ele>
        <time>2026-08-29T09:16:33Z</time>
      </trkpt>
      <trkpt lat="40.812714910" lon="-3.799541602">
        <ele>1461.60</ele>
        <time>2026-08-29T09:16:35Z</time>
      </trkpt>
      <trkpt lat="40.812713569" lon="-3.799382597">
        <ele>1460.00</ele>
        <time>2026-08-29T09:16:37Z</time>
      </trkpt>
      <trkpt lat="40.812749024" lon="-3.799202051">
        <ele>1458.00</ele>
        <time>2026-08-29T09:16:39Z</time>
      </trkpt>
      <trkpt lat="40.812794371" lon="-3.799014464">
        <ele>1456.60</ele>
        <time>2026-08-29T09:16:41Z</time>
      </trkpt>
      <trkpt lat="40.812819768" lon="-3.798808688">
        <ele>1454.80</ele>
        <time>2026-08-29T09:16:43Z</time>
      </trkpt>
      <trkpt lat="40.812833179" lon="-3.798545077">
        <ele>1452.20</ele>
        <time>2026-08-29T09:16:46Z</time>
      </trkpt>
      <trkpt lat="40.812840303" lon="-3.798402501">
        <ele>1450.60</ele>
        <time>2026-08-29T09:16:48Z</time>
      </trkpt>
      <trkpt lat="40.812797723" lon="-3.798225224">
        <ele>1448.40</ele>
        <time>2026-08-29T09:16:51Z</time>
      </trkpt>
      <trkpt lat="40.812734021" lon="-3.798096478">
        <ele>1446.80</ele>
        <time>2026-08-29T09:16:53Z</time>
      </trkpt>
      <trkpt lat="40.812663864" lon="-3.797932360">
        <ele>1443.80</ele>
        <time>2026-08-29T09:16:55Z</time>
      </trkpt>
      <trkpt lat="40.812601922" lon="-3.797735553">
        <ele>1441.60</ele>
        <time>2026-08-29T09:16:57Z</time>
      </trkpt>
      <trkpt lat="40.812531514" lon="-3.797538998">
        <ele>1440.00</ele>
        <time>2026-08-29T09:16:59Z</time>
      </trkpt>
      <trkpt lat="40.812458424" lon="-3.797347555">
        <ele>1438.80</ele>
        <time>2026-08-29T09:17:01Z</time>
      </trkpt>
      <trkpt lat="40.812384747" lon="-3.797176564">
        <ele>1437.40</ele>
        <time>2026-08-29T09:17:03Z</time>
      </trkpt>
      <trkpt lat="40.812322218" lon="-3.796995347">
        <ele>1436.40</ele>
        <time>2026-08-29T09:17:05Z</time>
      </trkpt>
      <trkpt lat="40.812296318" lon="-3.796816729">
        <ele>1435.20</ele>
        <time>2026-08-29T09:17:07Z</time>
      </trkpt>
      <trkpt lat="40.812324984" lon="-3.796637692">
        <ele>1434.00</ele>
        <time>2026-08-29T09:17:09Z</time>
      </trkpt>
      <trkpt lat="40.812377622" lon="-3.796466449">
        <ele>1432.80</ele>
        <time>2026-08-29T09:17:11Z</time>
      </trkpt>
      <trkpt lat="40.812436296" lon="-3.796289172">
        <ele>1431.40</ele>
        <time>2026-08-29T09:17:14Z</time>
      </trkpt>
      <trkpt lat="40.812489185" lon="-3.795977701">
        <ele>1430.00</ele>
        <time>2026-08-29T09:17:19Z</time>
      </trkpt>
      <trkpt lat="40.812520869" lon="-3.795849960">
        <ele>1429.20</ele>
        <time>2026-08-29T09:17:21Z</time>
      </trkpt>
      <trkpt lat="40.812549954" lon="-3.795530023">
        <ele>1427.20</ele>
        <time>2026-08-29T09:17:26Z</time>
      </trkpt>
      <trkpt lat="40.812530508" lon="-3.795347633">
        <ele>1425.40</ele>
        <time>2026-08-29T09:17:29Z</time>
      </trkpt>
      <trkpt lat="40.812478457" lon="-3.795124087">
        <ele>1423.60</ele>
        <time>2026-08-29T09:17:33Z</time>
      </trkpt>
      <trkpt lat="40.812438559" lon="-3.795013614">
        <ele>1421.80</ele>
        <time>2026-08-29T09:17:35Z</time>
      </trkpt>
      <trkpt lat="40.812392961" lon="-3.794901883">
        <ele>1420.60</ele>
        <time>2026-08-29T09:17:37Z</time>
      </trkpt>
      <trkpt lat="40.812349711" lon="-3.794784034">
        <ele>1418.80</ele>
        <time>2026-08-29T09:17:39Z</time>
      </trkpt>
      <trkpt lat="40.812302185" lon="-3.794659479">
        <ele>1417.20</ele>
        <time>2026-08-29T09:17:41Z</time>
      </trkpt>
      <trkpt lat="40.812262287" lon="-3.794503659">
        <ele>1416.00</ele>
        <time>2026-08-29T09:17:43Z</time>
      </trkpt>
      <trkpt lat="40.812227502" lon="-3.794351611">
        <ele>1414.40</ele>
        <time>2026-08-29T09:17:45Z</time>
      </trkpt>
      <trkpt lat="40.812139576" lon="-3.794184644">
        <ele>1413.20</ele>
        <time>2026-08-29T09:17:48Z</time>
      </trkpt>
      <trkpt lat="40.812031701" lon="-3.794026142">
        <ele>1410.60</ele>
        <time>2026-08-29T09:17:52Z</time>
      </trkpt>
      <trkpt lat="40.811920390" lon="-3.793874513">
        <ele>1408.00</ele>
        <time>2026-08-29T09:17:56Z</time>
      </trkpt>
      <trkpt lat="40.811845623" lon="-3.793724813">
        <ele>1405.00</ele>
        <time>2026-08-29T09:18:00Z</time>
      </trkpt>
      <trkpt lat="40.811787285" lon="-3.793590032">
        <ele>1402.40</ele>
        <time>2026-08-29T09:18:04Z</time>
      </trkpt>
      <trkpt lat="40.811744956" lon="-3.793452065">
        <ele>1400.00</ele>
        <time>2026-08-29T09:18:08Z</time>
      </trkpt>
      <trkpt lat="40.811619982" lon="-3.793504620">
        <ele>1397.00</ele>
        <time>2026-08-29T09:18:15Z</time>
      </trkpt>
      <trkpt lat="40.811518226" lon="-3.793591876">
        <ele>1395.80</ele>
        <time>2026-08-29T09:18:19Z</time>
      </trkpt>
      <trkpt lat="40.811400292" lon="-3.793684496">
        <ele>1393.20</ele>
        <time>2026-08-29T09:18:23Z</time>
      </trkpt>
      <trkpt lat="40.811240533" lon="-3.793809386">
        <ele>1390.20</ele>
        <time>2026-08-29T09:18:28Z</time>
      </trkpt>
      <trkpt lat="40.811115727" lon="-3.793904521">
        <ele>1387.60</ele>
        <time>2026-08-29T09:18:32Z</time>
      </trkpt>
      <trkpt lat="40.811007097" lon="-3.794009127">
        <ele>1386.00</ele>
        <time>2026-08-29T09:18:35Z</time>
      </trkpt>
      <trkpt lat="40.810911711" lon="-3.794069476">
        <ele>1383.80</ele>
        <time>2026-08-29T09:18:38Z</time>
      </trkpt>
      <trkpt lat="40.810840297" lon="-3.794148434">
        <ele>1381.80</ele>
        <time>2026-08-29T09:18:41Z</time>
      </trkpt>
      <trkpt lat="40.810758993" lon="-3.794388073">
        <ele>1379.00</ele>
        <time>2026-08-29T09:18:46Z</time>
      </trkpt>
      <trkpt lat="40.810693195" lon="-3.794525201">
        <ele>1377.20</ele>
        <time>2026-08-29T09:18:50Z</time>
      </trkpt>
      <trkpt lat="40.810601749" lon="-3.794514053">
        <ele>1375.80</ele>
        <time>2026-08-29T09:18:53Z</time>
      </trkpt>
      <trkpt lat="40.810528155" lon="-3.794431658">
        <ele>1374.40</ele>
        <time>2026-08-29T09:18:55Z</time>
      </trkpt>
      <trkpt lat="40.810407875" lon="-3.794274498">
        <ele>1372.20</ele>
        <time>2026-08-29T09:18:59Z</time>
      </trkpt>
      <trkpt lat="40.810327325" lon="-3.794220518">
        <ele>1371.00</ele>
        <time>2026-08-29T09:19:01Z</time>
      </trkpt>
      <trkpt lat="40.810205620" lon="-3.793997392">
        <ele>1367.80</ele>
        <time>2026-08-29T09:19:06Z</time>
      </trkpt>
      <trkpt lat="40.810110904" lon="-3.793839728">
        <ele>1366.60</ele>
        <time>2026-08-29T09:19:09Z</time>
      </trkpt>
      <trkpt lat="40.810047369" lon="-3.793754987">
        <ele>1365.40</ele>
        <time>2026-08-29T09:19:11Z</time>
      </trkpt>
      <trkpt lat="40.809979560" lon="-3.793649375">
        <ele>1363.00</ele>
        <time>2026-08-29T09:19:14Z</time>
      </trkpt>
      <trkpt lat="40.809920887" lon="-3.793491712">
        <ele>1361.00</ele>
        <time>2026-08-29T09:19:18Z</time>
      </trkpt>
      <trkpt lat="40.809858609" lon="-3.793373359">
        <ele>1359.40</ele>
        <time>2026-08-29T09:19:21Z</time>
      </trkpt>
      <trkpt lat="40.809782837" lon="-3.793277554">
        <ele>1358.60</ele>
        <time>2026-08-29T09:19:23Z</time>
      </trkpt>
      <trkpt lat="40.809686612" lon="-3.793167416">
        <ele>1356.80</ele>
        <time>2026-08-29T09:19:25Z</time>
      </trkpt>
      <trkpt lat="40.809615282" lon="-3.793072030">
        <ele>1355.20</ele>
        <time>2026-08-29T09:19:27Z</time>
      </trkpt>
      <trkpt lat="40.809550993" lon="-3.792957198">
        <ele>1353.40</ele>
        <time>2026-08-29T09:19:30Z</time>
      </trkpt>
      <trkpt lat="40.809476478" lon="-3.792784028">
        <ele>1352.20</ele>
        <time>2026-08-29T09:19:34Z</time>
      </trkpt>
      <trkpt lat="40.809421996" lon="-3.792633908">
        <ele>1350.40</ele>
        <time>2026-08-29T09:19:37Z</time>
      </trkpt>
      <trkpt lat="40.809364580" lon="-3.792438610">
        <ele>1349.00</ele>
        <time>2026-08-29T09:19:41Z</time>
      </trkpt>
      <trkpt lat="40.809347648" lon="-3.792314054">
        <ele>1347.40</ele>
        <time>2026-08-29T09:19:43Z</time>
      </trkpt>
      <trkpt lat="40.809286041" lon="-3.792098137">
        <ele>1346.20</ele>
        <time>2026-08-29T09:19:46Z</time>
      </trkpt>
      <trkpt lat="40.809264416" lon="-3.791935863">
        <ele>1345.00</ele>
        <time>2026-08-29T09:19:48Z</time>
      </trkpt>
      <trkpt lat="40.809223847" lon="-3.791742744">
        <ele>1344.00</ele>
        <time>2026-08-29T09:19:51Z</time>
      </trkpt>
      <trkpt lat="40.809178837" lon="-3.791579297">
        <ele>1342.80</ele>
        <time>2026-08-29T09:19:54Z</time>
      </trkpt>
      <trkpt lat="40.809112871" lon="-3.791444767">
        <ele>1341.60</ele>
        <time>2026-08-29T09:19:57Z</time>
      </trkpt>
      <trkpt lat="40.809073057" lon="-3.791295905">
        <ele>1339.00</ele>
        <time>2026-08-29T09:20:00Z</time>
      </trkpt>
      <trkpt lat="40.809016479" lon="-3.791121226">
        <ele>1337.40</ele>
        <time>2026-08-29T09:20:03Z</time>
      </trkpt>
      <trkpt lat="40.808974067" lon="-3.790961048">
        <ele>1335.80</ele>
        <time>2026-08-29T09:20:06Z</time>
      </trkpt>
      <trkpt lat="40.808970379" lon="-3.790807826">
        <ele>1334.20</ele>
        <time>2026-08-29T09:20:09Z</time>
      </trkpt>
      <trkpt lat="40.808948753" lon="-3.790586377">
        <ele>1331.80</ele>
        <time>2026-08-29T09:20:14Z</time>
      </trkpt>
      <trkpt lat="40.808906173" lon="-3.790376494">
        <ele>1329.20</ele>
        <time>2026-08-29T09:20:19Z</time>
      </trkpt>
      <trkpt lat="40.808869293" lon="-3.790164683">
        <ele>1326.60</ele>
        <time>2026-08-29T09:20:24Z</time>
      </trkpt>
      <trkpt lat="40.808845405" lon="-3.789962931">
        <ele>1324.60</ele>
        <time>2026-08-29T09:20:30Z</time>
      </trkpt>
      <trkpt lat="40.808817493" lon="-3.789838208">
        <ele>1322.60</ele>
        <time>2026-08-29T09:20:34Z</time>
      </trkpt>
      <trkpt lat="40.808762759" lon="-3.789625810">
        <ele>1319.80</ele>
        <time>2026-08-29T09:20:40Z</time>
      </trkpt>
      <trkpt lat="40.808744486" lon="-3.789486503">
        <ele>1318.40</ele>
        <time>2026-08-29T09:20:43Z</time>
      </trkpt>
      <trkpt lat="40.808712803" lon="-3.789358763">
        <ele>1316.80</ele>
        <time>2026-08-29T09:20:46Z</time>
      </trkpt>
      <trkpt lat="40.808702577" lon="-3.789231693">
        <ele>1314.80</ele>
        <time>2026-08-29T09:20:50Z</time>
      </trkpt>
      <trkpt lat="40.808727136" lon="-3.789085429">
        <ele>1313.60</ele>
        <time>2026-08-29T09:21:48Z</time>
      </trkpt>
      <trkpt lat="40.808761586" lon="-3.788962299">
        <ele>1312.20</ele>
        <time>2026-08-29T09:21:52Z</time>
      </trkpt>
      <trkpt lat="40.808775080" lon="-3.788837157">
        <ele>1311.00</ele>
        <time>2026-08-29T09:21:55Z</time>
      </trkpt>
      <trkpt lat="40.808740128" lon="-3.788682679">
        <ele>1309.60</ele>
        <time>2026-08-29T09:21:58Z</time>
      </trkpt>
      <trkpt lat="40.808695788" lon="-3.788555190">
        <ele>1307.20</ele>
        <time>2026-08-29T09:22:01Z</time>
      </trkpt>
      <trkpt lat="40.808670726" lon="-3.788325777">
        <ele>1304.60</ele>
        <time>2026-08-29T09:22:05Z</time>
      </trkpt>
      <trkpt lat="40.808647089" lon="-3.788152775">
        <ele>1303.00</ele>
        <time>2026-08-29T09:22:08Z</time>
      </trkpt>
      <trkpt lat="40.808654549" lon="-3.788032662">
        <ele>1301.60</ele>
        <time>2026-08-29T09:22:10Z</time>
      </trkpt>
      <trkpt lat="40.808630493" lon="-3.787860330">
        <ele>1300.00</ele>
        <time>2026-08-29T09:22:13Z</time>
      </trkpt>
      <trkpt lat="40.808601826" lon="-3.787735943">
        <ele>1298.60</ele>
        <time>2026-08-29T09:22:15Z</time>
      </trkpt>
      <trkpt lat="40.808565365" lon="-3.787620692">
        <ele>1297.20</ele>
        <time>2026-08-29T09:22:17Z</time>
      </trkpt>
      <trkpt lat="40.808528485" lon="-3.787504267">
        <ele>1295.80</ele>
        <time>2026-08-29T09:22:19Z</time>
      </trkpt>
      <trkpt lat="40.808643233" lon="-3.787331516">
        <ele>1293.40</ele>
        <time>2026-08-29T09:22:24Z</time>
      </trkpt>
      <trkpt lat="40.808797712" lon="-3.787288936">
        <ele>1292.60</ele>
        <time>2026-08-29T09:22:28Z</time>
      </trkpt>
      <trkpt lat="40.808967445" lon="-3.787215510">
        <ele>1290.80</ele>
        <time>2026-08-29T09:22:32Z</time>
      </trkpt>
      <trkpt lat="40.809064005" lon="-3.787175780">
        <ele>1289.60</ele>
        <time>2026-08-29T09:22:35Z</time>
      </trkpt>
      <trkpt lat="40.809181686" lon="-3.787154993">
        <ele>1288.20</ele>
        <time>2026-08-29T09:22:39Z</time>
      </trkpt>
      <trkpt lat="40.809289562" lon="-3.787147366">
        <ele>1286.80</ele>
        <time>2026-08-29T09:22:42Z</time>
      </trkpt>
      <trkpt lat="40.809477903" lon="-3.787206793">
        <ele>1284.60</ele>
        <time>2026-08-29T09:22:48Z</time>
      </trkpt>
      <trkpt lat="40.809584102" lon="-3.787200674">
        <ele>1283.80</ele>
        <time>2026-08-29T09:22:51Z</time>
      </trkpt>
      <trkpt lat="40.809691055" lon="-3.787179384">
        <ele>1282.40</ele>
        <time>2026-08-29T09:22:54Z</time>
      </trkpt>
      <trkpt lat="40.809830362" lon="-3.787165387">
        <ele>1279.20</ele>
        <time>2026-08-29T09:22:58Z</time>
      </trkpt>
      <trkpt lat="40.809972351" lon="-3.787123561">
        <ele>1276.00</ele>
        <time>2026-08-29T09:23:02Z</time>
      </trkpt>
      <trkpt lat="40.810054159" lon="-3.787051979">
        <ele>1274.80</ele>
        <time>2026-08-29T09:23:04Z</time>
      </trkpt>
      <trkpt lat="40.810114844" lon="-3.786934717">
        <ele>1272.80</ele>
        <time>2026-08-29T09:23:07Z</time>
      </trkpt>
      <trkpt lat="40.810182486" lon="-3.786801444">
        <ele>1269.20</ele>
        <time>2026-08-29T09:23:11Z</time>
      </trkpt>
      <trkpt lat="40.810274184" lon="-3.786605475">
        <ele>1266.80</ele>
        <time>2026-08-29T09:23:15Z</time>
      </trkpt>
      <trkpt lat="40.810314082" lon="-3.786493409">
        <ele>1265.40</ele>
        <time>2026-08-29T09:23:17Z</time>
      </trkpt>
      <trkpt lat="40.810360517" lon="-3.786381930">
        <ele>1263.60</ele>
        <time>2026-08-29T09:23:19Z</time>
      </trkpt>
      <trkpt lat="40.810412485" lon="-3.786272798">
        <ele>1263.00</ele>
        <time>2026-08-29T09:23:21Z</time>
      </trkpt>
      <trkpt lat="40.810523462" lon="-3.785899971">
        <ele>1261.20</ele>
        <time>2026-08-29T09:23:26Z</time>
      </trkpt>
      <trkpt lat="40.810515834" lon="-3.785629068">
        <ele>1260.00</ele>
        <time>2026-08-29T09:23:29Z</time>
      </trkpt>
      <trkpt lat="40.810520444" lon="-3.785458747">
        <ele>1258.00</ele>
        <time>2026-08-29T09:23:31Z</time>
      </trkpt>
      <trkpt lat="40.810537878" lon="-3.785298737">
        <ele>1256.40</ele>
        <time>2026-08-29T09:23:33Z</time>
      </trkpt>
      <trkpt lat="40.810534442" lon="-3.785165297">
        <ele>1255.60</ele>
        <time>2026-08-29T09:23:35Z</time>
      </trkpt>
      <trkpt lat="40.810527150" lon="-3.785045939">
        <ele>1254.00</ele>
        <time>2026-08-29T09:23:37Z</time>
      </trkpt>
      <trkpt lat="40.810538465" lon="-3.784780400">
        <ele>1251.40</ele>
        <time>2026-08-29T09:23:42Z</time>
      </trkpt>
      <trkpt lat="40.810572328" lon="-3.784601782">
        <ele>1250.20</ele>
        <time>2026-08-29T09:23:45Z</time>
      </trkpt>
      <trkpt lat="40.810608454" lon="-3.784443028">
        <ele>1249.40</ele>
        <time>2026-08-29T09:23:48Z</time>
      </trkpt>
      <trkpt lat="40.810619853" lon="-3.784290059">
        <ele>1248.00</ele>
        <time>2026-08-29T09:23:51Z</time>
      </trkpt>
      <trkpt lat="40.810646005" lon="-3.784157457">
        <ele>1246.60</ele>
        <time>2026-08-29T09:23:54Z</time>
      </trkpt>
      <trkpt lat="40.810698811" lon="-3.784043044">
        <ele>1245.20</ele>
        <time>2026-08-29T09:23:57Z</time>
      </trkpt>
      <trkpt lat="40.810741978" lon="-3.783914549">
        <ele>1244.00</ele>
        <time>2026-08-29T09:24:00Z</time>
      </trkpt>
      <trkpt lat="40.810787994" lon="-3.783750264">
        <ele>1242.40</ele>
        <time>2026-08-29T09:24:05Z</time>
      </trkpt>
      <trkpt lat="40.810862342" lon="-3.783566030">
        <ele>1240.60</ele>
        <time>2026-08-29T09:24:12Z</time>
      </trkpt>
      <trkpt lat="40.810924955" lon="-3.783352626">
        <ele>1239.40</ele>
        <time>2026-08-29T09:24:16Z</time>
      </trkpt>
      <trkpt lat="40.810950017" lon="-3.783216253">
        <ele>1238.40</ele>
        <time>2026-08-29T09:24:18Z</time>
      </trkpt>
      <trkpt lat="40.811002990" lon="-3.783069318">
        <ele>1237.40</ele>
        <time>2026-08-29T09:24:20Z</time>
      </trkpt>
      <trkpt lat="40.811001398" lon="-3.782861363">
        <ele>1235.00</ele>
        <time>2026-08-29T09:24:24Z</time>
      </trkpt>
      <trkpt lat="40.810917998" lon="-3.782750722">
        <ele>1233.00</ele>
        <time>2026-08-29T09:24:27Z</time>
      </trkpt>
      <trkpt lat="40.810851948" lon="-3.782656761">
        <ele>1230.20</ele>
        <time>2026-08-29T09:24:31Z</time>
      </trkpt>
      <trkpt lat="40.810791682" lon="-3.782576798">
        <ele>1228.60</ele>
        <time>2026-08-29T09:25:06Z</time>
      </trkpt>
      <trkpt lat="40.810714820" lon="-3.782539750">
        <ele>1227.00</ele>
        <time>2026-08-29T09:25:13Z</time>
      </trkpt>
      <trkpt lat="40.810739798" lon="-3.782412093">
        <ele>1226.00</ele>
        <time>2026-08-29T09:26:02Z</time>
      </trkpt>
      <trkpt lat="40.810813727" lon="-3.782322155">
        <ele>1225.40</ele>
        <time>2026-08-29T09:26:07Z</time>
      </trkpt>
      <trkpt lat="40.810903078" lon="-3.782224674">
        <ele>1225.00</ele>
        <time>2026-08-29T09:26:10Z</time>
      </trkpt>
      <trkpt lat="40.811039284" lon="-3.782145130">
        <ele>1224.40</ele>
        <time>2026-08-29T09:26:13Z</time>
      </trkpt>
      <trkpt lat="40.811181189" lon="-3.782117553">
        <ele>1223.60</ele>
        <time>2026-08-29T09:26:16Z</time>
      </trkpt>
      <trkpt lat="40.811492745" lon="-3.782136496">
        <ele>1222.80</ele>
        <time>2026-08-29T09:26:23Z</time>
      </trkpt>
      <trkpt lat="40.811719391" lon="-3.782191901">
        <ele>1222.00</ele>
        <time>2026-08-29T09:26:28Z</time>
      </trkpt>
      <trkpt lat="40.811899267" lon="-3.782243533">
        <ele>1221.20</ele>
        <time>2026-08-29T09:26:32Z</time>
      </trkpt>
      <trkpt lat="40.811999766" lon="-3.782250239">
        <ele>1220.80</ele>
        <time>2026-08-29T09:26:34Z</time>
      </trkpt>
      <trkpt lat="40.812171344" lon="-3.782250825">
        <ele>1220.00</ele>
        <time>2026-08-29T09:26:38Z</time>
      </trkpt>
      <trkpt lat="40.812262204" lon="-3.782268176">
        <ele>1219.00</ele>
        <time>2026-08-29T09:26:40Z</time>
      </trkpt>
      <trkpt lat="40.812493544" lon="-3.782376135">
        <ele>1217.60</ele>
        <time>2026-08-29T09:26:45Z</time>
      </trkpt>
      <trkpt lat="40.812596222" lon="-3.782457439">
        <ele>1216.60</ele>
        <time>2026-08-29T09:26:47Z</time>
      </trkpt>
      <trkpt lat="40.812703762" lon="-3.782548634">
        <ele>1215.60</ele>
        <time>2026-08-29T09:26:49Z</time>
      </trkpt>
      <trkpt lat="40.812869137" lon="-3.782686600">
        <ele>1214.00</ele>
        <time>2026-08-29T09:26:52Z</time>
      </trkpt>
      <trkpt lat="40.812969217" lon="-3.782767067">
        <ele>1213.20</ele>
        <time>2026-08-29T09:26:54Z</time>
      </trkpt>
      <trkpt lat="40.813090336" lon="-3.782853987">
        <ele>1212.20</ele>
        <time>2026-08-29T09:26:56Z</time>
      </trkpt>
      <trkpt lat="40.813225787" lon="-3.782936130">
        <ele>1211.40</ele>
        <time>2026-08-29T09:26:58Z</time>
      </trkpt>
      <trkpt lat="40.813362496" lon="-3.783015506">
        <ele>1210.40</ele>
        <time>2026-08-29T09:27:00Z</time>
      </trkpt>
      <trkpt lat="40.813561818" lon="-3.783112569">
        <ele>1209.20</ele>
        <time>2026-08-29T09:27:03Z</time>
      </trkpt>
      <trkpt lat="40.813738843" lon="-3.783210721">
        <ele>1208.20</ele>
        <time>2026-08-29T09:27:06Z</time>
      </trkpt>
      <trkpt lat="40.813869098" lon="-3.783293366">
        <ele>1207.60</ele>
        <time>2026-08-29T09:27:09Z</time>
      </trkpt>
      <trkpt lat="40.813999604" lon="-3.783347514">
        <ele>1206.00</ele>
        <time>2026-08-29T09:27:13Z</time>
      </trkpt>
      <trkpt lat="40.814171098" lon="-3.783358913">
        <ele>1205.20</ele>
        <time>2026-08-29T09:27:17Z</time>
      </trkpt>
      <trkpt lat="40.814307807" lon="-3.783268137">
        <ele>1204.20</ele>
        <time>2026-08-29T09:27:20Z</time>
      </trkpt>
      <trkpt lat="40.814374946" lon="-3.783180462">
        <ele>1203.60</ele>
        <time>2026-08-29T09:27:22Z</time>
      </trkpt>
      <trkpt lat="40.814442756" lon="-3.783066720">
        <ele>1203.40</ele>
        <time>2026-08-29T09:27:25Z</time>
      </trkpt>
      <trkpt lat="40.814370504" lon="-3.782876534">
        <ele>1203.20</ele>
        <time>2026-08-29T09:27:31Z</time>
      </trkpt>
      <trkpt lat="40.814214684" lon="-3.782703700">
        <ele>1202.00</ele>
        <time>2026-08-29T09:27:36Z</time>
      </trkpt>
      <trkpt lat="40.814136565" lon="-3.782617785">
        <ele>1201.60</ele>
        <time>2026-08-29T09:27:38Z</time>
      </trkpt>
      <trkpt lat="40.814077808" lon="-3.782506892">
        <ele>1201.00</ele>
        <time>2026-08-29T09:27:40Z</time>
      </trkpt>
      <trkpt lat="40.814015362" lon="-3.782374961">
        <ele>1200.60</ele>
        <time>2026-08-29T09:27:42Z</time>
      </trkpt>
      <trkpt lat="40.813928777" lon="-3.782153428">
        <ele>1198.80</ele>
        <time>2026-08-29T09:27:45Z</time>
      </trkpt>
      <trkpt lat="40.813874966" lon="-3.782005738">
        <ele>1197.80</ele>
        <time>2026-08-29T09:27:47Z</time>
      </trkpt>
      <trkpt lat="40.813745884" lon="-3.781850422">
        <ele>1196.80</ele>
        <time>2026-08-29T09:27:50Z</time>
      </trkpt>
      <trkpt lat="40.813611690" lon="-3.781685634">
        <ele>1195.60</ele>
        <time>2026-08-29T09:27:53Z</time>
      </trkpt>
      <trkpt lat="40.813604565" lon="-3.781435601">
        <ele>1195.20</ele>
        <time>2026-08-29T09:27:56Z</time>
      </trkpt>
      <trkpt lat="40.813629627" lon="-3.781185653">
        <ele>1194.20</ele>
        <time>2026-08-29T09:27:59Z</time>
      </trkpt>
      <trkpt lat="40.813614456" lon="-3.780968729">
        <ele>1194.00</ele>
        <time>2026-08-29T09:28:02Z</time>
      </trkpt>
      <trkpt lat="40.813582353" lon="-3.780692713">
        <ele>1194.20</ele>
        <time>2026-08-29T09:28:07Z</time>
      </trkpt>
      <trkpt lat="40.813664244" lon="-3.780579558">
        <ele>1194.20</ele>
        <time>2026-08-29T09:28:14Z</time>
      </trkpt>
      <trkpt lat="40.813777484" lon="-3.780685337">
        <ele>1195.20</ele>
        <time>2026-08-29T09:28:19Z</time>
      </trkpt>
      <trkpt lat="40.813887035" lon="-3.780753147">
        <ele>1196.60</ele>
        <time>2026-08-29T09:28:23Z</time>
      </trkpt>
      <trkpt lat="40.814024080" lon="-3.780845851">
        <ele>1198.80</ele>
        <time>2026-08-29T09:28:29Z</time>
      </trkpt>
      <trkpt lat="40.814106222" lon="-3.780929921">
        <ele>1200.20</ele>
        <time>2026-08-29T09:28:33Z</time>
      </trkpt>
      <trkpt lat="40.814185599" lon="-3.781026397">
        <ele>1201.60</ele>
        <time>2026-08-29T09:28:37Z</time>
      </trkpt>
      <trkpt lat="40.814270843" lon="-3.781130416">
        <ele>1203.00</ele>
        <time>2026-08-29T09:28:42Z</time>
      </trkpt>
      <trkpt lat="40.814346364" lon="-3.781217504">
        <ele>1204.00</ele>
        <time>2026-08-29T09:28:46Z</time>
      </trkpt>
      <trkpt lat="40.814420041" lon="-3.781288667">
        <ele>1205.00</ele>
        <time>2026-08-29T09:28:49Z</time>
      </trkpt>
      <trkpt lat="40.814558929" lon="-3.781408947">
        <ele>1207.00</ele>
        <time>2026-08-29T09:28:55Z</time>
      </trkpt>
      <trkpt lat="40.814710222" lon="-3.781493437">
        <ele>1208.60</ele>
        <time>2026-08-29T09:29:01Z</time>
      </trkpt>
      <trkpt lat="40.814867383" lon="-3.781552194">
        <ele>1210.60</ele>
        <time>2026-08-29T09:29:07Z</time>
      </trkpt>
      <trkpt lat="40.814971402" lon="-3.781591756">
        <ele>1212.00</ele>
        <time>2026-08-29T09:29:11Z</time>
      </trkpt>
      <trkpt lat="40.815121857" lon="-3.781649591">
        <ele>1214.40</ele>
        <time>2026-08-29T09:29:17Z</time>
      </trkpt>
      <trkpt lat="40.815300392" lon="-3.781706924">
        <ele>1217.20</ele>
        <time>2026-08-29T09:29:24Z</time>
      </trkpt>
      <trkpt lat="40.815367112" lon="-3.781611957">
        <ele>1219.40</ele>
        <time>2026-08-29T09:29:29Z</time>
      </trkpt>
      <trkpt lat="40.815279186" lon="-3.781543812">
        <ele>1220.00</ele>
        <time>2026-08-29T09:29:32Z</time>
      </trkpt>
      <trkpt lat="40.815143902" lon="-3.781431159">
        <ele>1220.40</ele>
        <time>2026-08-29T09:29:37Z</time>
      </trkpt>
      <trkpt lat="40.815004678" lon="-3.781268047">
        <ele>1220.00</ele>
        <time>2026-08-29T09:29:42Z</time>
      </trkpt>
      <trkpt lat="40.814836370" lon="-3.781034527">
        <ele>1220.00</ele>
        <time>2026-08-29T09:29:48Z</time>
      </trkpt>
      <trkpt lat="40.814719778" lon="-3.780820202">
        <ele>1220.20</ele>
        <time>2026-08-29T09:29:53Z</time>
      </trkpt>
      <trkpt lat="40.814545602" lon="-3.780517364">
        <ele>1220.00</ele>
        <time>2026-08-29T09:30:00Z</time>
      </trkpt>
      <trkpt lat="40.814432111" lon="-3.780306978">
        <ele>1220.00</ele>
        <time>2026-08-29T09:30:05Z</time>
      </trkpt>
      <trkpt lat="40.814364301" lon="-3.780134730">
        <ele>1220.60</ele>
        <time>2026-08-29T09:30:09Z</time>
      </trkpt>
      <trkpt lat="40.814271430" lon="-3.779795934">
        <ele>1221.00</ele>
        <time>2026-08-29T09:30:16Z</time>
      </trkpt>
      <trkpt lat="40.814205380" lon="-3.779512793">
        <ele>1221.60</ele>
        <time>2026-08-29T09:30:22Z</time>
      </trkpt>
      <trkpt lat="40.814180905" lon="-3.779380694">
        <ele>1222.80</ele>
        <time>2026-08-29T09:30:25Z</time>
      </trkpt>
      <trkpt lat="40.814160453" lon="-3.779254463">
        <ele>1223.80</ele>
        <time>2026-08-29T09:30:28Z</time>
      </trkpt>
      <trkpt lat="40.814134385" lon="-3.779049860">
        <ele>1225.60</ele>
        <time>2026-08-29T09:30:33Z</time>
      </trkpt>
      <trkpt lat="40.814087950" lon="-3.778797314">
        <ele>1225.60</ele>
        <time>2026-08-29T09:30:37Z</time>
      </trkpt>
      <trkpt lat="40.814098762" lon="-3.778430270">
        <ele>1224.40</ele>
        <time>2026-08-29T09:30:42Z</time>
      </trkpt>
      <trkpt lat="40.814083591" lon="-3.778128438">
        <ele>1223.40</ele>
        <time>2026-08-29T09:30:46Z</time>
      </trkpt>
      <trkpt lat="40.814029025" lon="-3.777982509">
        <ele>1222.80</ele>
        <time>2026-08-29T09:30:48Z</time>
      </trkpt>
      <trkpt lat="40.813927520" lon="-3.777867509">
        <ele>1222.40</ele>
        <time>2026-08-29T09:30:50Z</time>
      </trkpt>
      <trkpt lat="40.813812520" lon="-3.777766339">
        <ele>1221.60</ele>
        <time>2026-08-29T09:30:52Z</time>
      </trkpt>
      <trkpt lat="40.813617054" lon="-3.777601048">
        <ele>1220.20</ele>
        <time>2026-08-29T09:30:55Z</time>
      </trkpt>
      <trkpt lat="40.813409183" lon="-3.777427627">
        <ele>1219.00</ele>
        <time>2026-08-29T09:30:58Z</time>
      </trkpt>
      <trkpt lat="40.813193684" lon="-3.777231826">
        <ele>1217.80</ele>
        <time>2026-08-29T09:31:01Z</time>
      </trkpt>
      <trkpt lat="40.813045325" lon="-3.777101906">
        <ele>1216.60</ele>
        <time>2026-08-29T09:31:03Z</time>
      </trkpt>
      <trkpt lat="40.812821276" lon="-3.776902584">
        <ele>1215.40</ele>
        <time>2026-08-29T09:31:06Z</time>
      </trkpt>
      <trkpt lat="40.812677443" lon="-3.776772413">
        <ele>1214.60</ele>
        <time>2026-08-29T09:31:08Z</time>
      </trkpt>
      <trkpt lat="40.812473763" lon="-3.776594382">
        <ele>1212.80</ele>
        <time>2026-08-29T09:31:11Z</time>
      </trkpt>
      <trkpt lat="40.812276285" lon="-3.776423559">
        <ele>1211.80</ele>
        <time>2026-08-29T09:31:14Z</time>
      </trkpt>
      <trkpt lat="40.812080903" lon="-3.776261201">
        <ele>1210.40</ele>
        <time>2026-08-29T09:31:17Z</time>
      </trkpt>
      <trkpt lat="40.811896250" lon="-3.776068417">
        <ele>1209.40</ele>
        <time>2026-08-29T09:31:20Z</time>
      </trkpt>
      <trkpt lat="40.811656611" lon="-3.775765244">
        <ele>1208.00</ele>
        <time>2026-08-29T09:31:24Z</time>
      </trkpt>
      <trkpt lat="40.811544796" lon="-3.775601545">
        <ele>1207.00</ele>
        <time>2026-08-29T09:31:26Z</time>
      </trkpt>
      <trkpt lat="40.811443878" lon="-3.775310358">
        <ele>1205.60</ele>
        <time>2026-08-29T09:31:29Z</time>
      </trkpt>
      <trkpt lat="40.811419236" lon="-3.774954630">
        <ele>1204.20</ele>
        <time>2026-08-29T09:31:32Z</time>
      </trkpt>
      <trkpt lat="40.811423007" lon="-3.774712812">
        <ele>1202.80</ele>
        <time>2026-08-29T09:31:34Z</time>
      </trkpt>
      <trkpt lat="40.811434491" lon="-3.774331771">
        <ele>1201.60</ele>
        <time>2026-08-29T09:31:37Z</time>
      </trkpt>
      <trkpt lat="40.811440106" lon="-3.774204534">
        <ele>1201.00</ele>
        <time>2026-08-29T09:31:38Z</time>
      </trkpt>
      <trkpt lat="40.811449662" lon="-3.774080481">
        <ele>1200.20</ele>
        <time>2026-08-29T09:31:39Z</time>
      </trkpt>
      <trkpt lat="40.811462989" lon="-3.773710337">
        <ele>1199.20</ele>
        <time>2026-08-29T09:31:42Z</time>
      </trkpt>
      <trkpt lat="40.811475813" lon="-3.773346981">
        <ele>1197.80</ele>
        <time>2026-08-29T09:31:45Z</time>
      </trkpt>
      <trkpt lat="40.811498109" lon="-3.772986978">
        <ele>1197.00</ele>
        <time>2026-08-29T09:31:48Z</time>
      </trkpt>
      <trkpt lat="40.811526775" lon="-3.772472916">
        <ele>1196.00</ele>
        <time>2026-08-29T09:31:53Z</time>
      </trkpt>
      <trkpt lat="40.811547814" lon="-3.772277785">
        <ele>1195.80</ele>
        <time>2026-08-29T09:31:55Z</time>
      </trkpt>
      <trkpt lat="40.811610259" lon="-3.771991376">
        <ele>1195.00</ele>
        <time>2026-08-29T09:31:58Z</time>
      </trkpt>
      <trkpt lat="40.811765241" lon="-3.771518301">
        <ele>1193.60</ele>
        <time>2026-08-29T09:32:04Z</time>
      </trkpt>
      <trkpt lat="40.811889712" lon="-3.771183444">
        <ele>1192.60</ele>
        <time>2026-08-29T09:32:09Z</time>
      </trkpt>
      <trkpt lat="40.811962383" lon="-3.770972136">
        <ele>1192.40</ele>
        <time>2026-08-29T09:32:12Z</time>
      </trkpt>
      <trkpt lat="40.812073275" lon="-3.770686314">
        <ele>1191.60</ele>
        <time>2026-08-29T09:32:16Z</time>
      </trkpt>
      <trkpt lat="40.812133374" lon="-3.770525968">
        <ele>1191.20</ele>
        <time>2026-08-29T09:32:18Z</time>
      </trkpt>
      <trkpt lat="40.812194310" lon="-3.770369478">
        <ele>1190.40</ele>
        <time>2026-08-29T09:32:20Z</time>
      </trkpt>
      <trkpt lat="40.812344598" lon="-3.770061526">
        <ele>1188.80</ele>
        <time>2026-08-29T09:32:24Z</time>
      </trkpt>
      <trkpt lat="40.812472589" lon="-3.769820798">
        <ele>1187.80</ele>
        <time>2026-08-29T09:32:27Z</time>
      </trkpt>
      <trkpt lat="40.812637545" lon="-3.769504214">
        <ele>1186.40</ele>
        <time>2026-08-29T09:32:31Z</time>
      </trkpt>
      <trkpt lat="40.812758747" lon="-3.769281087">
        <ele>1186.20</ele>
        <time>2026-08-29T09:32:34Z</time>
      </trkpt>
      <trkpt lat="40.812942479" lon="-3.768959641">
        <ele>1186.00</ele>
        <time>2026-08-29T09:32:39Z</time>
      </trkpt>
      <trkpt lat="40.813021939" lon="-3.768701227">
        <ele>1186.00</ele>
        <time>2026-08-29T09:32:43Z</time>
      </trkpt>
      <trkpt lat="40.813041637" lon="-3.768537026">
        <ele>1186.00</ele>
        <time>2026-08-29T09:32:46Z</time>
      </trkpt>
      <trkpt lat="40.812986400" lon="-3.768367376">
        <ele>1185.60</ele>
        <time>2026-08-29T09:32:50Z</time>
      </trkpt>
      <trkpt lat="40.812865533" lon="-3.768383972">
        <ele>1184.20</ele>
        <time>2026-08-29T09:32:53Z</time>
      </trkpt>
      <trkpt lat="40.812757993" lon="-3.768452369">
        <ele>1182.80</ele>
        <time>2026-08-29T09:32:55Z</time>
      </trkpt>
      <trkpt lat="40.812601922" lon="-3.768577594">
        <ele>1181.60</ele>
        <time>2026-08-29T09:32:58Z</time>
      </trkpt>
      <trkpt lat="40.812365720" lon="-3.768777922">
        <ele>1180.80</ele>
        <time>2026-08-29T09:33:04Z</time>
      </trkpt>
      <trkpt lat="40.812247619" lon="-3.768845815">
        <ele>1180.60</ele>
        <time>2026-08-29T09:33:08Z</time>
      </trkpt>
      <trkpt lat="40.812062798" lon="-3.768927874">
        <ele>1179.60</ele>
        <time>2026-08-29T09:33:14Z</time>
      </trkpt>
      <trkpt lat="40.811980907" lon="-3.768904572">
        <ele>1179.00</ele>
        <time>2026-08-29T09:33:20Z</time>
      </trkpt>
      <trkpt lat="40.811966071" lon="-3.768764678">
        <ele>1178.40</ele>
        <time>2026-08-29T09:33:24Z</time>
      </trkpt>
      <trkpt lat="40.811909661" lon="-3.768435856">
        <ele>1176.80</ele>
        <time>2026-08-29T09:33:30Z</time>
      </trkpt>
      <trkpt lat="40.811844449" lon="-3.768185824">
        <ele>1175.40</ele>
        <time>2026-08-29T09:33:33Z</time>
      </trkpt>
      <trkpt lat="40.811807569" lon="-3.768010978">
        <ele>1173.40</ele>
        <time>2026-08-29T09:33:35Z</time>
      </trkpt>
      <trkpt lat="40.811773287" lon="-3.767844094">
        <ele>1172.20</ele>
        <time>2026-08-29T09:33:37Z</time>
      </trkpt>
      <trkpt lat="40.811731210" lon="-3.767665895">
        <ele>1171.20</ele>
        <time>2026-08-29T09:33:39Z</time>
      </trkpt>
      <trkpt lat="40.811688295" lon="-3.767490042">
        <ele>1169.80</ele>
        <time>2026-08-29T09:33:41Z</time>
      </trkpt>
      <trkpt lat="40.811589137" lon="-3.767150156">
        <ele>1168.80</ele>
        <time>2026-08-29T09:33:45Z</time>
      </trkpt>
      <trkpt lat="40.811429881" lon="-3.766848156">
        <ele>1168.20</ele>
        <time>2026-08-29T09:33:49Z</time>
      </trkpt>
      <trkpt lat="40.811371291" lon="-3.766698288">
        <ele>1167.80</ele>
        <time>2026-08-29T09:33:51Z</time>
      </trkpt>
      <trkpt lat="40.811355701" lon="-3.766464600">
        <ele>1167.00</ele>
        <time>2026-08-29T09:33:54Z</time>
      </trkpt>
      <trkpt lat="40.811380008" lon="-3.766004099">
        <ele>1166.20</ele>
        <time>2026-08-29T09:34:00Z</time>
      </trkpt>
      <trkpt lat="40.811406914" lon="-3.765796395">
        <ele>1166.20</ele>
        <time>2026-08-29T09:34:03Z</time>
      </trkpt>
      <trkpt lat="40.811446058" lon="-3.765525073">
        <ele>1167.00</ele>
        <time>2026-08-29T09:34:08Z</time>
      </trkpt>
      <trkpt lat="40.811555441" lon="-3.765261630">
        <ele>1167.00</ele>
        <time>2026-08-29T09:34:13Z</time>
      </trkpt>
      <trkpt lat="40.811673878" lon="-3.765019141">
        <ele>1167.80</ele>
        <time>2026-08-29T09:34:18Z</time>
      </trkpt>
      <trkpt lat="40.811916115" lon="-3.764618151">
        <ele>1168.40</ele>
        <time>2026-08-29T09:34:27Z</time>
      </trkpt>
      <trkpt lat="40.812148713" lon="-3.764254041">
        <ele>1168.00</ele>
        <time>2026-08-29T09:34:34Z</time>
      </trkpt>
      <trkpt lat="40.812387932" lon="-3.763881465">
        <ele>1166.40</ele>
        <time>2026-08-29T09:34:40Z</time>
      </trkpt>
      <trkpt lat="40.812602509" lon="-3.763555661">
        <ele>1165.20</ele>
        <time>2026-08-29T09:34:45Z</time>
      </trkpt>
      <trkpt lat="40.812729746" lon="-3.763353992">
        <ele>1164.20</ele>
        <time>2026-08-29T09:34:49Z</time>
      </trkpt>
      <trkpt lat="40.812761262" lon="-3.763215020">
        <ele>1163.40</ele>
        <time>2026-08-29T09:34:52Z</time>
      </trkpt>
      <trkpt lat="40.812693872" lon="-3.763091136">
        <ele>1162.80</ele>
        <time>2026-08-29T09:34:55Z</time>
      </trkpt>
      <trkpt lat="40.812615082" lon="-3.763020476">
        <ele>1161.80</ele>
        <time>2026-08-29T09:34:57Z</time>
      </trkpt>
      <trkpt lat="40.812450629" lon="-3.762884270">
        <ele>1160.20</ele>
        <time>2026-08-29T09:35:01Z</time>
      </trkpt>
      <trkpt lat="40.812325990" lon="-3.762803469">
        <ele>1159.00</ele>
        <time>2026-08-29T09:35:04Z</time>
      </trkpt>
      <trkpt lat="40.812148713" lon="-3.762688469">
        <ele>1157.80</ele>
        <time>2026-08-29T09:35:08Z</time>
      </trkpt>
      <trkpt lat="40.811999766" lon="-3.762600292">
        <ele>1156.20</ele>
        <time>2026-08-29T09:35:11Z</time>
      </trkpt>
      <trkpt lat="40.811895076" lon="-3.762540109">
        <ele>1155.00</ele>
        <time>2026-08-29T09:35:13Z</time>
      </trkpt>
      <trkpt lat="40.811745878" lon="-3.762512784">
        <ele>1153.80</ele>
        <time>2026-08-29T09:35:16Z</time>
      </trkpt>
      <trkpt lat="40.811603637" lon="-3.762535667">
        <ele>1152.80</ele>
        <time>2026-08-29T09:35:20Z</time>
      </trkpt>
      <trkpt lat="40.811516466" lon="-3.762489567">
        <ele>1152.00</ele>
        <time>2026-08-29T09:35:24Z</time>
      </trkpt>
      <trkpt lat="40.811555861" lon="-3.762319665">
        <ele>1151.40</ele>
        <time>2026-08-29T09:35:28Z</time>
      </trkpt>
      <trkpt lat="40.811607493" lon="-3.762188489">
        <ele>1150.60</ele>
        <time>2026-08-29T09:35:30Z</time>
      </trkpt>
      <trkpt lat="40.811675470" lon="-3.762037279">
        <ele>1149.60</ele>
        <time>2026-08-29T09:35:32Z</time>
      </trkpt>
      <trkpt lat="40.811748141" lon="-3.761878945">
        <ele>1148.60</ele>
        <time>2026-08-29T09:35:34Z</time>
      </trkpt>
      <trkpt lat="40.811822740" lon="-3.761718515">
        <ele>1147.20</ele>
        <time>2026-08-29T09:35:36Z</time>
      </trkpt>
      <trkpt lat="40.811889628" lon="-3.761547357">
        <ele>1146.80</ele>
        <time>2026-08-29T09:35:38Z</time>
      </trkpt>
      <trkpt lat="40.811958862" lon="-3.761373181">
        <ele>1146.20</ele>
        <time>2026-08-29T09:35:40Z</time>
      </trkpt>
      <trkpt lat="40.812007980" lon="-3.761240914">
        <ele>1145.80</ele>
        <time>2026-08-29T09:35:42Z</time>
      </trkpt>
      <trkpt lat="40.812125579" lon="-3.760995660">
        <ele>1144.20</ele>
        <time>2026-08-29T09:35:47Z</time>
      </trkpt>
      <trkpt lat="40.812181067" lon="-3.760882672">
        <ele>1143.80</ele>
        <time>2026-08-29T09:35:49Z</time>
      </trkpt>
      <trkpt lat="40.812260946" lon="-3.760700198">
        <ele>1142.80</ele>
        <time>2026-08-29T09:35:52Z</time>
      </trkpt>
      <trkpt lat="40.812370246" lon="-3.760465588">
        <ele>1141.60</ele>
        <time>2026-08-29T09:35:56Z</time>
      </trkpt>
      <trkpt lat="40.812421292" lon="-3.760342961">
        <ele>1141.00</ele>
        <time>2026-08-29T09:35:58Z</time>
      </trkpt>
      <trkpt lat="40.812530341" lon="-3.760083457">
        <ele>1139.00</ele>
        <time>2026-08-29T09:36:02Z</time>
      </trkpt>
      <trkpt lat="40.812625224" lon="-3.759868294">
        <ele>1137.80</ele>
        <time>2026-08-29T09:36:05Z</time>
      </trkpt>
      <trkpt lat="40.812718179" lon="-3.759658495">
        <ele>1136.40</ele>
        <time>2026-08-29T09:36:08Z</time>
      </trkpt>
      <trkpt lat="40.812794873" lon="-3.759465711">
        <ele>1135.60</ele>
        <time>2026-08-29T09:36:11Z</time>
      </trkpt>
      <trkpt lat="40.812784983" lon="-3.759328332">
        <ele>1135.00</ele>
        <time>2026-08-29T09:36:14Z</time>
      </trkpt>
      <trkpt lat="40.812687585" lon="-3.759171674">
        <ele>1134.40</ele>
        <time>2026-08-29T09:36:17Z</time>
      </trkpt>
      <trkpt lat="40.812639641" lon="-3.759056004">
        <ele>1134.40</ele>
        <time>2026-08-29T09:36:19Z</time>
      </trkpt>
      <trkpt lat="40.812625140" lon="-3.758914517">
        <ele>1134.60</ele>
        <time>2026-08-29T09:36:22Z</time>
      </trkpt>
      <trkpt lat="40.812488180" lon="-3.758671526">
        <ele>1134.80</ele>
        <time>2026-08-29T09:36:28Z</time>
      </trkpt>
      <trkpt lat="40.812368235" lon="-3.758524340">
        <ele>1134.00</ele>
        <time>2026-08-29T09:36:31Z</time>
      </trkpt>
      <trkpt lat="40.812275279" lon="-3.758420236">
        <ele>1133.60</ele>
        <time>2026-08-29T09:36:33Z</time>
      </trkpt>
      <trkpt lat="40.812180312" lon="-3.758313032">
        <ele>1132.80</ele>
        <time>2026-08-29T09:36:35Z</time>
      </trkpt>
      <trkpt lat="40.811982332" lon="-3.758065179">
        <ele>1131.20</ele>
        <time>2026-08-29T09:36:39Z</time>
      </trkpt>
      <trkpt lat="40.811820226" lon="-3.757874491">
        <ele>1130.00</ele>
        <time>2026-08-29T09:36:42Z</time>
      </trkpt>
      <trkpt lat="40.811649570" lon="-3.757683802">
        <ele>1128.60</ele>
        <time>2026-08-29T09:36:45Z</time>
      </trkpt>
      <trkpt lat="40.811531721" lon="-3.757555475">
        <ele>1127.40</ele>
        <time>2026-08-29T09:36:47Z</time>
      </trkpt>
      <trkpt lat="40.811415464" lon="-3.757416420">
        <ele>1126.20</ele>
        <time>2026-08-29T09:36:49Z</time>
      </trkpt>
      <trkpt lat="40.811296273" lon="-3.757277615">
        <ele>1125.40</ele>
        <time>2026-08-29T09:36:51Z</time>
      </trkpt>
      <trkpt lat="40.811067363" lon="-3.756989613">
        <ele>1123.20</ele>
        <time>2026-08-29T09:36:55Z</time>
      </trkpt>
      <trkpt lat="40.810957309" lon="-3.756853659">
        <ele>1122.00</ele>
        <time>2026-08-29T09:36:57Z</time>
      </trkpt>
      <trkpt lat="40.810849685" lon="-3.756722482">
        <ele>1120.80</ele>
        <time>2026-08-29T09:36:59Z</time>
      </trkpt>
      <trkpt lat="40.810680958" lon="-3.756526764">
        <ele>1119.40</ele>
        <time>2026-08-29T09:37:02Z</time>
      </trkpt>
      <trkpt lat="40.810507117" lon="-3.756334316">
        <ele>1117.20</ele>
        <time>2026-08-29T09:37:05Z</time>
      </trkpt>
      <trkpt lat="40.810398571" lon="-3.756215796">
        <ele>1116.00</ele>
        <time>2026-08-29T09:37:07Z</time>
      </trkpt>
      <trkpt lat="40.810292121" lon="-3.756099204">
        <ele>1114.80</ele>
        <time>2026-08-29T09:37:09Z</time>
      </trkpt>
      <trkpt lat="40.810191622" lon="-3.755978001">
        <ele>1113.40</ele>
        <time>2026-08-29T09:37:11Z</time>
      </trkpt>
      <trkpt lat="40.810031276" lon="-3.755792677">
        <ele>1112.20</ele>
        <time>2026-08-29T09:37:14Z</time>
      </trkpt>
      <trkpt lat="40.809861543" lon="-3.755596038">
        <ele>1110.80</ele>
        <time>2026-08-29T09:37:17Z</time>
      </trkpt>
      <trkpt lat="40.809747716" lon="-3.755460419">
        <ele>1109.60</ele>
        <time>2026-08-29T09:37:19Z</time>
      </trkpt>
      <trkpt lat="40.809632465" lon="-3.755322620">
        <ele>1108.00</ele>
        <time>2026-08-29T09:37:21Z</time>
      </trkpt>
      <trkpt lat="40.809517466" lon="-3.755184822">
        <ele>1106.80</ele>
        <time>2026-08-29T09:37:23Z</time>
      </trkpt>
      <trkpt lat="40.809406321" lon="-3.755048700">
        <ele>1105.80</ele>
        <time>2026-08-29T09:37:25Z</time>
      </trkpt>
      <trkpt lat="40.809292747" lon="-3.754917271">
        <ele>1104.40</ele>
        <time>2026-08-29T09:37:27Z</time>
      </trkpt>
      <trkpt lat="40.809175316" lon="-3.754789364">
        <ele>1103.20</ele>
        <time>2026-08-29T09:37:29Z</time>
      </trkpt>
      <trkpt lat="40.809056880" lon="-3.754657684">
        <ele>1101.80</ele>
        <time>2026-08-29T09:37:31Z</time>
      </trkpt>
      <trkpt lat="40.808938527" lon="-3.754521562">
        <ele>1100.40</ele>
        <time>2026-08-29T09:37:33Z</time>
      </trkpt>
      <trkpt lat="40.808816738" lon="-3.754385859">
        <ele>1099.40</ele>
        <time>2026-08-29T09:37:35Z</time>
      </trkpt>
      <trkpt lat="40.808698134" lon="-3.754237667">
        <ele>1098.00</ele>
        <time>2026-08-29T09:37:37Z</time>
      </trkpt>
      <trkpt lat="40.808582213" lon="-3.754092660">
        <ele>1096.80</ele>
        <time>2026-08-29T09:37:39Z</time>
      </trkpt>
      <trkpt lat="40.808394374" lon="-3.753874227">
        <ele>1095.20</ele>
        <time>2026-08-29T09:37:42Z</time>
      </trkpt>
      <trkpt lat="40.808274094" lon="-3.753733579">
        <ele>1093.80</ele>
        <time>2026-08-29T09:37:44Z</time>
      </trkpt>
      <trkpt lat="40.808154568" lon="-3.753585471">
        <ele>1092.20</ele>
        <time>2026-08-29T09:37:46Z</time>
      </trkpt>
      <trkpt lat="40.808039485" lon="-3.753445493">
        <ele>1090.80</ele>
        <time>2026-08-29T09:37:48Z</time>
      </trkpt>
      <trkpt lat="40.807918869" lon="-3.753295541">
        <ele>1089.60</ele>
        <time>2026-08-29T09:37:50Z</time>
      </trkpt>
      <trkpt lat="40.807792554" lon="-3.753152546">
        <ele>1088.20</ele>
        <time>2026-08-29T09:37:52Z</time>
      </trkpt>
      <trkpt lat="40.807662969" lon="-3.753006030">
        <ele>1086.60</ele>
        <time>2026-08-29T09:37:54Z</time>
      </trkpt>
      <trkpt lat="40.807538414" lon="-3.752865382">
        <ele>1085.20</ele>
        <time>2026-08-29T09:37:56Z</time>
      </trkpt>
      <trkpt lat="40.807414614" lon="-3.752718782">
        <ele>1083.20</ele>
        <time>2026-08-29T09:37:58Z</time>
      </trkpt>
      <trkpt lat="40.807200959" lon="-3.752460117">
        <ele>1081.00</ele>
        <time>2026-08-29T09:38:02Z</time>
      </trkpt>
      <trkpt lat="40.807119738" lon="-3.752328521">
        <ele>1080.00</ele>
        <time>2026-08-29T09:38:04Z</time>
      </trkpt>
      <trkpt lat="40.807058383" lon="-3.752132384">
        <ele>1078.80</ele>
        <time>2026-08-29T09:38:07Z</time>
      </trkpt>
      <trkpt lat="40.807010019" lon="-3.751981929">
        <ele>1078.20</ele>
        <time>2026-08-29T09:38:12Z</time>
      </trkpt>
      <trkpt lat="40.806961404" lon="-3.751845555">
        <ele>1077.80</ele>
        <time>2026-08-29T09:38:17Z</time>
      </trkpt>
      <trkpt lat="40.807040948" lon="-3.751707422">
        <ele>1078.00</ele>
        <time>2026-08-29T09:38:21Z</time>
      </trkpt>
      <trkpt lat="40.807137256" lon="-3.751596194">
        <ele>1078.20</ele>
        <time>2026-08-29T09:38:25Z</time>
      </trkpt>
      <trkpt lat="40.807192996" lon="-3.751495024">
        <ele>1078.00</ele>
        <time>2026-08-29T09:38:30Z</time>
      </trkpt>
      <trkpt lat="40.807127533" lon="-3.751382288">
        <ele>1077.60</ele>
        <time>2026-08-29T09:38:35Z</time>
      </trkpt>
      <trkpt lat="40.807164917" lon="-3.751166705">
        <ele>1077.00</ele>
        <time>2026-08-29T09:38:43Z</time>
      </trkpt>
      <trkpt lat="40.807246054" lon="-3.751037121">
        <ele>1077.00</ele>
        <time>2026-08-29T09:38:48Z</time>
      </trkpt>
      <trkpt lat="40.807305481" lon="-3.750929330">
        <ele>1077.00</ele>
        <time>2026-08-29T09:38:51Z</time>
      </trkpt>
      <trkpt lat="40.807389552" lon="-3.750829082">
        <ele>1077.00</ele>
        <time>2026-08-29T09:38:54Z</time>
      </trkpt>
      <trkpt lat="40.807561046" lon="-3.750569327">
        <ele>1077.00</ele>
        <time>2026-08-29T09:39:00Z</time>
      </trkpt>
      <trkpt lat="40.807716949" lon="-3.750332957">
        <ele>1077.00</ele>
        <time>2026-08-29T09:39:05Z</time>
      </trkpt>
      <trkpt lat="40.807915013" lon="-3.750037495">
        <ele>1076.60</ele>
        <time>2026-08-29T09:39:11Z</time>
      </trkpt>
      <trkpt lat="40.808138978" lon="-3.749707919">
        <ele>1076.80</ele>
        <time>2026-08-29T09:39:18Z</time>
      </trkpt>
      <trkpt lat="40.808226233" lon="-3.749576323">
        <ele>1076.80</ele>
        <time>2026-08-29T09:39:21Z</time>
      </trkpt>
      <trkpt lat="40.808314160" lon="-3.749445984">
        <ele>1076.80</ele>
        <time>2026-08-29T09:39:24Z</time>
      </trkpt>
      <trkpt lat="40.808496634" lon="-3.749185810">
        <ele>1077.20</ele>
        <time>2026-08-29T09:39:30Z</time>
      </trkpt>
      <trkpt lat="40.808676677" lon="-3.748931922">
        <ele>1076.80</ele>
        <time>2026-08-29T09:39:36Z</time>
      </trkpt>
      <trkpt lat="40.808842219" lon="-3.748688428">
        <ele>1076.60</ele>
        <time>2026-08-29T09:39:43Z</time>
      </trkpt>
      <trkpt lat="40.808948753" lon="-3.748535709">
        <ele>1077.00</ele>
        <time>2026-08-29T09:39:48Z</time>
      </trkpt>
      <trkpt lat="40.809108596" lon="-3.748312416">
        <ele>1077.00</ele>
        <time>2026-08-29T09:39:54Z</time>
      </trkpt>
      <trkpt lat="40.809168862" lon="-3.748224070">
        <ele>1077.00</ele>
        <time>2026-08-29T09:39:57Z</time>
      </trkpt>
      <trkpt lat="40.809331471" lon="-3.748022402">
        <ele>1077.20</ele>
        <time>2026-08-29T09:40:03Z</time>
      </trkpt>
      <trkpt lat="40.809399365" lon="-3.747937325">
        <ele>1077.20</ele>
        <time>2026-08-29T09:40:05Z</time>
      </trkpt>
      <trkpt lat="40.809557699" lon="-3.747716043">
        <ele>1077.20</ele>
        <time>2026-08-29T09:40:10Z</time>
      </trkpt>
      <trkpt lat="40.809809156" lon="-3.747342881">
        <ele>1077.00</ele>
        <time>2026-08-29T09:40:18Z</time>
      </trkpt>
      <trkpt lat="40.810031192" lon="-3.747010874">
        <ele>1077.20</ele>
        <time>2026-08-29T09:40:25Z</time>
      </trkpt>
      <trkpt lat="40.810245182" lon="-3.746695630">
        <ele>1077.60</ele>
        <time>2026-08-29T09:40:32Z</time>
      </trkpt>
      <trkpt lat="40.810481636" lon="-3.746322133">
        <ele>1078.00</ele>
        <time>2026-08-29T09:40:40Z</time>
      </trkpt>
      <trkpt lat="40.810677186" lon="-3.746003201">
        <ele>1078.20</ele>
        <time>2026-08-29T09:40:46Z</time>
      </trkpt>
      <trkpt lat="40.810799310" lon="-3.745790888">
        <ele>1078.60</ele>
        <time>2026-08-29T09:40:50Z</time>
      </trkpt>
      <trkpt lat="40.810860666" lon="-3.745673038">
        <ele>1078.80</ele>
        <time>2026-08-29T09:40:54Z</time>
      </trkpt>
      <trkpt lat="40.810931409" lon="-3.745541023">
        <ele>1079.00</ele>
        <time>2026-08-29T09:41:02Z</time>
      </trkpt>
      <trkpt lat="40.811014306" lon="-3.745387467">
        <ele>1079.00</ele>
        <time>2026-08-29T09:41:09Z</time>
      </trkpt>
      <trkpt lat="40.811042301" lon="-3.745227372">
        <ele>1079.40</ele>
        <time>2026-08-29T09:41:14Z</time>
      </trkpt>
      <trkpt lat="40.811071638" lon="-3.745100889">
        <ele>1079.60</ele>
        <time>2026-08-29T09:41:17Z</time>
      </trkpt>
      <trkpt lat="40.811126288" lon="-3.744981783">
        <ele>1080.60</ele>
        <time>2026-08-29T09:41:20Z</time>
      </trkpt>
      <trkpt lat="40.811172472" lon="-3.744864017">
        <ele>1082.00</ele>
        <time>2026-08-29T09:41:23Z</time>
      </trkpt>
      <trkpt lat="40.811234917" lon="-3.744711466">
        <ele>1083.40</ele>
        <time>2026-08-29T09:41:27Z</time>
      </trkpt>
      <trkpt lat="40.811287807" lon="-3.744583726">
        <ele>1084.60</ele>
        <time>2026-08-29T09:41:30Z</time>
      </trkpt>
      <trkpt lat="40.811340529" lon="-3.744451879">
        <ele>1085.60</ele>
        <time>2026-08-29T09:41:33Z</time>
      </trkpt>
      <trkpt lat="40.811389061" lon="-3.744343752">
        <ele>1087.40</ele>
        <time>2026-08-29T09:41:36Z</time>
      </trkpt>
      <trkpt lat="40.811410351" lon="-3.744214168">
        <ele>1088.40</ele>
        <time>2026-08-29T09:41:39Z</time>
      </trkpt>
      <trkpt lat="40.811461061" lon="-3.744079303">
        <ele>1089.20</ele>
        <time>2026-08-29T09:41:42Z</time>
      </trkpt>
      <trkpt lat="40.811548568" lon="-3.743901774">
        <ele>1090.80</ele>
        <time>2026-08-29T09:41:47Z</time>
      </trkpt>
      <trkpt lat="40.811494421" lon="-3.743815022">
        <ele>1091.80</ele>
        <time>2026-08-29T09:41:54Z</time>
      </trkpt>
      <trkpt lat="40.811384702" lon="-3.743825750">
        <ele>1091.40</ele>
        <time>2026-08-29T09:41:58Z</time>
      </trkpt>
      <trkpt lat="40.811196864" lon="-3.743897919">
        <ele>1090.40</ele>
        <time>2026-08-29T09:42:13Z</time>
      </trkpt>
      <trkpt lat="40.811088989" lon="-3.743986515">
        <ele>1090.00</ele>
        <time>2026-08-29T09:42:16Z</time>
      </trkpt>
      <trkpt lat="40.810908191" lon="-3.743992550">
        <ele>1089.00</ele>
        <time>2026-08-29T09:42:20Z</time>
      </trkpt>
      <trkpt lat="40.810752455" lon="-3.744001519">
        <ele>1087.80</ele>
        <time>2026-08-29T09:42:23Z</time>
      </trkpt>
      <trkpt lat="40.810640557" lon="-3.744014511">
        <ele>1087.00</ele>
        <time>2026-08-29T09:42:25Z</time>
      </trkpt>
      <trkpt lat="40.810425226" lon="-3.744060611">
        <ele>1085.60</ele>
        <time>2026-08-29T09:42:30Z</time>
      </trkpt>
      <trkpt lat="40.810396476" lon="-3.744196985">
        <ele>1084.80</ele>
        <time>2026-08-29T09:42:33Z</time>
      </trkpt>
      <trkpt lat="40.810332187" lon="-3.744292120">
        <ele>1084.40</ele>
        <time>2026-08-29T09:42:36Z</time>
      </trkpt>
      <trkpt lat="40.810245350" lon="-3.744213413">
        <ele>1083.20</ele>
        <time>2026-08-29T09:42:39Z</time>
      </trkpt>
      <trkpt lat="40.810193634" lon="-3.744035801">
        <ele>1082.20</ele>
        <time>2026-08-29T09:42:43Z</time>
      </trkpt>
      <trkpt lat="40.810148874" lon="-3.743859362">
        <ele>1081.40</ele>
        <time>2026-08-29T09:42:47Z</time>
      </trkpt>
      <trkpt lat="40.810126998" lon="-3.743657693">
        <ele>1080.00</ele>
        <time>2026-08-29T09:42:51Z</time>
      </trkpt>
      <trkpt lat="40.810104366" lon="-3.743524924">
        <ele>1078.80</ele>
        <time>2026-08-29T09:42:54Z</time>
      </trkpt>
      <trkpt lat="40.810079221" lon="-3.743388047">
        <ele>1078.00</ele>
        <time>2026-08-29T09:42:57Z</time>
      </trkpt>
      <trkpt lat="40.810020044" lon="-3.743279250">
        <ele>1077.20</ele>
        <time>2026-08-29T09:43:00Z</time>
      </trkpt>
      <trkpt lat="40.809863890" lon="-3.743193168">
        <ele>1075.60</ele>
        <time>2026-08-29T09:43:04Z</time>
      </trkpt>
      <trkpt lat="40.809731288" lon="-3.743086383">
        <ele>1074.20</ele>
        <time>2026-08-29T09:43:07Z</time>
      </trkpt>
      <trkpt lat="40.809571948" lon="-3.742948165">
        <ele>1073.20</ele>
        <time>2026-08-29T09:43:11Z</time>
      </trkpt>
      <trkpt lat="40.809475807" lon="-3.742768876">
        <ele>1072.20</ele>
        <time>2026-08-29T09:43:15Z</time>
      </trkpt>
      <trkpt lat="40.809381679" lon="-3.742512055">
        <ele>1072.00</ele>
        <time>2026-08-29T09:43:21Z</time>
      </trkpt>
      <trkpt lat="40.809374303" lon="-3.742223131">
        <ele>1071.40</ele>
        <time>2026-08-29T09:43:26Z</time>
      </trkpt>
      <trkpt lat="40.809296267" lon="-3.742063539">
        <ele>1070.20</ele>
        <time>2026-08-29T09:43:29Z</time>
      </trkpt>
      <trkpt lat="40.809206329" lon="-3.741853070">
        <ele>1068.00</ele>
        <time>2026-08-29T09:43:32Z</time>
      </trkpt>
      <trkpt lat="40.809209431" lon="-3.741686102">
        <ele>1066.60</ele>
        <time>2026-08-29T09:43:34Z</time>
      </trkpt>
      <trkpt lat="40.809239689" lon="-3.741442524">
        <ele>1065.60</ele>
        <time>2026-08-29T09:43:37Z</time>
      </trkpt>
      <trkpt lat="40.809230888" lon="-3.741204143">
        <ele>1064.60</ele>
        <time>2026-08-29T09:43:40Z</time>
      </trkpt>
      <trkpt lat="40.809245305" lon="-3.740843385">
        <ele>1062.80</ele>
        <time>2026-08-29T09:43:44Z</time>
      </trkpt>
      <trkpt lat="40.809238600" lon="-3.740646327">
        <ele>1061.80</ele>
        <time>2026-08-29T09:43:46Z</time>
      </trkpt>
      <trkpt lat="40.809158301" lon="-3.740296466">
        <ele>1060.40</ele>
        <time>2026-08-29T09:43:50Z</time>
      </trkpt>
      <trkpt lat="40.809173137" lon="-3.739970746">
        <ele>1060.60</ele>
        <time>2026-08-29T09:43:55Z</time>
      </trkpt>
      <trkpt lat="40.809180178" lon="-3.739736052">
        <ele>1061.60</ele>
        <time>2026-08-29T09:43:59Z</time>
      </trkpt>
      <trkpt lat="40.809191493" lon="-3.739606049">
        <ele>1061.80</ele>
        <time>2026-08-29T09:44:01Z</time>
      </trkpt>
      <trkpt lat="40.809222087" lon="-3.739408823">
        <ele>1061.80</ele>
        <time>2026-08-29T09:44:04Z</time>
      </trkpt>
      <trkpt lat="40.809286376" lon="-3.739222325">
        <ele>1062.80</ele>
        <time>2026-08-29T09:44:08Z</time>
      </trkpt>
      <trkpt lat="40.809335494" lon="-3.739082264">
        <ele>1063.60</ele>
        <time>2026-08-29T09:44:11Z</time>
      </trkpt>
      <trkpt lat="40.809436748" lon="-3.738919403">
        <ele>1064.60</ele>
        <time>2026-08-29T09:44:15Z</time>
      </trkpt>
      <trkpt lat="40.809547389" lon="-3.738695187">
        <ele>1065.60</ele>
        <time>2026-08-29T09:44:20Z</time>
      </trkpt>
      <trkpt lat="40.809676135" lon="-3.738556132">
        <ele>1065.80</ele>
        <time>2026-08-29T09:44:25Z</time>
      </trkpt>
      <trkpt lat="40.809851903" lon="-3.738329820">
        <ele>1065.00</ele>
        <time>2026-08-29T09:44:31Z</time>
      </trkpt>
      <trkpt lat="40.809930945" lon="-3.738265615">
        <ele>1064.80</ele>
        <time>2026-08-29T09:44:33Z</time>
      </trkpt>
      <trkpt lat="40.809996827" lon="-3.738168050">
        <ele>1064.40</ele>
        <time>2026-08-29T09:44:35Z</time>
      </trkpt>
      <trkpt lat="40.810047453" lon="-3.738041315">
        <ele>1064.00</ele>
        <time>2026-08-29T09:44:37Z</time>
      </trkpt>
      <trkpt lat="40.810116436" lon="-3.737915251">
        <ele>1063.00</ele>
        <time>2026-08-29T09:44:39Z</time>
      </trkpt>
      <trkpt lat="40.810268568" lon="-3.737661028">
        <ele>1062.00</ele>
        <time>2026-08-29T09:44:43Z</time>
      </trkpt>
      <trkpt lat="40.810324475" lon="-3.737515183">
        <ele>1061.80</ele>
        <time>2026-08-29T09:44:45Z</time>
      </trkpt>
      <trkpt lat="40.810395386" lon="-3.737385431">
        <ele>1062.00</ele>
        <time>2026-08-29T09:44:47Z</time>
      </trkpt>
      <trkpt lat="40.810467554" lon="-3.737274874">
        <ele>1062.20</ele>
        <time>2026-08-29T09:44:49Z</time>
      </trkpt>
      <trkpt lat="40.810612645" lon="-3.737071110">
        <ele>1063.00</ele>
        <time>2026-08-29T09:44:53Z</time>
      </trkpt>
      <trkpt lat="40.810678359" lon="-3.736954518">
        <ele>1063.40</ele>
        <time>2026-08-29T09:44:55Z</time>
      </trkpt>
      <trkpt lat="40.810748935" lon="-3.736665007">
        <ele>1063.00</ele>
        <time>2026-08-29T09:44:59Z</time>
      </trkpt>
      <trkpt lat="40.810806016" lon="-3.736448586">
        <ele>1062.00</ele>
        <time>2026-08-29T09:45:02Z</time>
      </trkpt>
      <trkpt lat="40.810871059" lon="-3.736183466">
        <ele>1063.20</ele>
        <time>2026-08-29T09:45:06Z</time>
      </trkpt>
      <trkpt lat="40.810918584" lon="-3.736019349">
        <ele>1064.60</ele>
        <time>2026-08-29T09:45:09Z</time>
      </trkpt>
      <trkpt lat="40.810964685" lon="-3.735905187">
        <ele>1065.00</ele>
        <time>2026-08-29T09:45:11Z</time>
      </trkpt>
      <trkpt lat="40.811005924" lon="-3.735787002">
        <ele>1065.60</ele>
        <time>2026-08-29T09:45:13Z</time>
      </trkpt>
      <trkpt lat="40.811034422" lon="-3.735608719">
        <ele>1066.20</ele>
        <time>2026-08-29T09:45:16Z</time>
      </trkpt>
      <trkpt lat="40.811062837" lon="-3.735363381">
        <ele>1066.80</ele>
        <time>2026-08-29T09:45:20Z</time>
      </trkpt>
      <trkpt lat="40.811073231" lon="-3.735233461">
        <ele>1066.80</ele>
        <time>2026-08-29T09:45:22Z</time>
      </trkpt>
      <trkpt lat="40.811094688" lon="-3.735107901">
        <ele>1067.00</ele>
        <time>2026-08-29T09:45:24Z</time>
      </trkpt>
      <trkpt lat="40.811129641" lon="-3.734870693">
        <ele>1067.40</ele>
        <time>2026-08-29T09:45:28Z</time>
      </trkpt>
      <trkpt lat="40.811173059" lon="-3.734583277">
        <ele>1067.60</ele>
        <time>2026-08-29T09:45:33Z</time>
      </trkpt>
      <trkpt lat="40.811195774" lon="-3.734453777">
        <ele>1067.60</ele>
        <time>2026-08-29T09:45:35Z</time>
      </trkpt>
      <trkpt lat="40.811250759" lon="-3.734159153">
        <ele>1066.60</ele>
        <time>2026-08-29T09:45:39Z</time>
      </trkpt>
      <trkpt lat="40.811369950" lon="-3.733826140">
        <ele>1067.40</ele>
        <time>2026-08-29T09:45:44Z</time>
      </trkpt>
      <trkpt lat="40.811428120" lon="-3.733717259">
        <ele>1068.20</ele>
        <time>2026-08-29T09:45:46Z</time>
      </trkpt>
      <trkpt lat="40.811507748" lon="-3.733549202">
        <ele>1068.80</ele>
        <time>2026-08-29T09:45:49Z</time>
      </trkpt>
      <trkpt lat="40.811569858" lon="-3.733437387">
        <ele>1068.80</ele>
        <time>2026-08-29T09:45:51Z</time>
      </trkpt>
      <trkpt lat="40.811718134" lon="-3.733053496">
        <ele>1068.40</ele>
        <time>2026-08-29T09:45:57Z</time>
      </trkpt>
      <trkpt lat="40.811783345" lon="-3.732781252">
        <ele>1068.40</ele>
        <time>2026-08-29T09:46:01Z</time>
      </trkpt>
      <trkpt lat="40.811853837" lon="-3.732524766">
        <ele>1068.40</ele>
        <time>2026-08-29T09:46:05Z</time>
      </trkpt>
      <trkpt lat="40.811878312" lon="-3.732397696">
        <ele>1068.40</ele>
        <time>2026-08-29T09:46:07Z</time>
      </trkpt>
      <trkpt lat="40.811926927" lon="-3.732203655">
        <ele>1068.80</ele>
        <time>2026-08-29T09:46:10Z</time>
      </trkpt>
      <trkpt lat="40.811978644" lon="-3.732008357">
        <ele>1068.60</ele>
        <time>2026-08-29T09:46:13Z</time>
      </trkpt>
      <trkpt lat="40.812073192" lon="-3.731740974">
        <ele>1068.20</ele>
        <time>2026-08-29T09:46:19Z</time>
      </trkpt>
      <trkpt lat="40.812145863" lon="-3.731512651">
        <ele>1067.20</ele>
        <time>2026-08-29T09:46:23Z</time>
      </trkpt>
      <trkpt lat="40.812251642" lon="-3.731234623">
        <ele>1066.00</ele>
        <time>2026-08-29T09:46:27Z</time>
      </trkpt>
      <trkpt lat="40.812304281" lon="-3.731060280">
        <ele>1065.00</ele>
        <time>2026-08-29T09:46:30Z</time>
      </trkpt>
      <trkpt lat="40.812334707" lon="-3.730913512">
        <ele>1063.00</ele>
        <time>2026-08-29T09:46:35Z</time>
      </trkpt>
      <trkpt lat="40.812352225" lon="-3.730767667">
        <ele>1062.20</ele>
        <time>2026-08-29T09:46:40Z</time>
      </trkpt>
      <trkpt lat="40.812369743" lon="-3.730615871">
        <ele>1060.80</ele>
        <time>2026-08-29T09:46:45Z</time>
      </trkpt>
      <trkpt lat="40.812414587" lon="-3.730496429">
        <ele>1059.80</ele>
        <time>2026-08-29T09:46:49Z</time>
      </trkpt>
      <trkpt lat="40.812475691" lon="-3.730329964">
        <ele>1058.40</ele>
        <time>2026-08-29T09:46:53Z</time>
      </trkpt>
      <trkpt lat="40.812518941" lon="-3.730180934">
        <ele>1057.40</ele>
        <time>2026-08-29T09:46:56Z</time>
      </trkpt>
      <trkpt lat="40.812543752" lon="-3.730035424">
        <ele>1056.80</ele>
        <time>2026-08-29T09:46:59Z</time>
      </trkpt>
      <trkpt lat="40.812570071" lon="-3.729772400">
        <ele>1056.80</ele>
        <time>2026-08-29T09:47:05Z</time>
      </trkpt>
      <trkpt lat="40.812594378" lon="-3.729627645">
        <ele>1056.20</ele>
        <time>2026-08-29T09:47:09Z</time>
      </trkpt>
      <trkpt lat="40.812598737" lon="-3.729418768">
        <ele>1055.00</ele>
        <time>2026-08-29T09:47:14Z</time>
      </trkpt>
      <trkpt lat="40.812635785" lon="-3.729279628">
        <ele>1054.20</ele>
        <time>2026-08-29T09:47:18Z</time>
      </trkpt>
      <trkpt lat="40.812640646" lon="-3.729120791">
        <ele>1052.80</ele>
        <time>2026-08-29T09:47:21Z</time>
      </trkpt>
      <trkpt lat="40.812672833" lon="-3.728993051">
        <ele>1051.40</ele>
        <time>2026-08-29T09:47:23Z</time>
      </trkpt>
      <trkpt lat="40.812690770" lon="-3.728852235">
        <ele>1050.20</ele>
        <time>2026-08-29T09:47:25Z</time>
      </trkpt>
      <trkpt lat="40.812701499" lon="-3.728708569">
        <ele>1049.20</ele>
        <time>2026-08-29T09:47:27Z</time>
      </trkpt>
      <trkpt lat="40.812721280" lon="-3.728485527">
        <ele>1047.40</ele>
        <time>2026-08-29T09:47:30Z</time>
      </trkpt>
      <trkpt lat="40.812757239" lon="-3.728323504">
        <ele>1046.40</ele>
        <time>2026-08-29T09:47:33Z</time>
      </trkpt>
      <trkpt lat="40.812819768" lon="-3.728128290">
        <ele>1045.40</ele>
        <time>2026-08-29T09:47:37Z</time>
      </trkpt>
      <trkpt lat="40.812887913" lon="-3.727992419">
        <ele>1044.60</ele>
        <time>2026-08-29T09:47:42Z</time>
      </trkpt>
      <trkpt lat="40.812925883" lon="-3.727860488">
        <ele>1043.60</ele>
        <time>2026-08-29T09:47:45Z</time>
      </trkpt>
      <trkpt lat="40.812955052" lon="-3.727648091">
        <ele>1041.20</ele>
        <time>2026-08-29T09:47:48Z</time>
      </trkpt>
      <trkpt lat="40.812962763" lon="-3.727369644">
        <ele>1040.60</ele>
        <time>2026-08-29T09:47:53Z</time>
      </trkpt>
      <trkpt lat="40.812935270" lon="-3.727194546">
        <ele>1041.40</ele>
        <time>2026-08-29T09:47:57Z</time>
      </trkpt>
      <trkpt lat="40.812942060" lon="-3.727039229">
        <ele>1042.20</ele>
        <time>2026-08-29T09:48:02Z</time>
      </trkpt>
      <trkpt lat="40.812954046" lon="-3.726905035">
        <ele>1042.40</ele>
        <time>2026-08-29T09:48:10Z</time>
      </trkpt>
      <trkpt lat="40.812925464" lon="-3.726792047">
        <ele>1042.60</ele>
        <time>2026-08-29T09:48:13Z</time>
      </trkpt>
      <trkpt lat="40.812864611" lon="-3.726609824">
        <ele>1042.80</ele>
        <time>2026-08-29T09:48:17Z</time>
      </trkpt>
      <trkpt lat="40.812813984" lon="-3.726421650">
        <ele>1042.80</ele>
        <time>2026-08-29T09:48:21Z</time>
      </trkpt>
      <trkpt lat="40.812783977" lon="-3.726270273">
        <ele>1043.60</ele>
        <time>2026-08-29T09:48:24Z</time>
      </trkpt>
      <trkpt lat="40.812755646" lon="-3.726019906">
        <ele>1045.00</ele>
        <time>2026-08-29T09:48:29Z</time>
      </trkpt>
      <trkpt lat="40.812748689" lon="-3.725841036">
        <ele>1045.80</ele>
        <time>2026-08-29T09:48:32Z</time>
      </trkpt>
      <trkpt lat="40.812869389" lon="-3.725632327">
        <ele>1046.00</ele>
        <time>2026-08-29T09:48:37Z</time>
      </trkpt>
      <trkpt lat="40.812929654" lon="-3.725489331">
        <ele>1046.60</ele>
        <time>2026-08-29T09:48:40Z</time>
      </trkpt>
      <trkpt lat="40.812979694" lon="-3.725338122">
        <ele>1047.20</ele>
        <time>2026-08-29T09:48:43Z</time>
      </trkpt>
      <trkpt lat="40.812989082" lon="-3.725093873">
        <ele>1047.60</ele>
        <time>2026-08-29T09:48:47Z</time>
      </trkpt>
      <trkpt lat="40.812984975" lon="-3.724943250">
        <ele>1047.40</ele>
        <time>2026-08-29T09:48:49Z</time>
      </trkpt>
      <trkpt lat="40.813018922" lon="-3.724698918">
        <ele>1046.80</ele>
        <time>2026-08-29T09:48:52Z</time>
      </trkpt>
      <trkpt lat="40.813067369" lon="-3.724543601">
        <ele>1046.40</ele>
        <time>2026-08-29T09:48:54Z</time>
      </trkpt>
      <trkpt lat="40.813122690" lon="-3.724339670">
        <ele>1046.20</ele>
        <time>2026-08-29T09:48:57Z</time>
      </trkpt>
      <trkpt lat="40.813143980" lon="-3.724065414">
        <ele>1046.60</ele>
        <time>2026-08-29T09:49:02Z</time>
      </trkpt>
      <trkpt lat="40.813152529" lon="-3.723910768">
        <ele>1046.20</ele>
        <time>2026-08-29T09:49:05Z</time>
      </trkpt>
      <trkpt lat="40.813176502" lon="-3.723762576">
        <ele>1045.80</ele>
        <time>2026-08-29T09:49:08Z</time>
      </trkpt>
      <trkpt lat="40.813218160" lon="-3.723569289">
        <ele>1045.80</ele>
        <time>2026-08-29T09:49:11Z</time>
      </trkpt>
      <trkpt lat="40.813237857" lon="-3.723413050">
        <ele>1045.60</ele>
        <time>2026-08-29T09:49:13Z</time>
      </trkpt>
      <trkpt lat="40.813305583" lon="-3.723005773">
        <ele>1045.40</ele>
        <time>2026-08-29T09:49:18Z</time>
      </trkpt>
      <trkpt lat="40.813412871" lon="-3.722553318">
        <ele>1046.00</ele>
        <time>2026-08-29T09:49:24Z</time>
      </trkpt>
      <trkpt lat="40.813403232" lon="-3.722272860">
        <ele>1045.00</ele>
        <time>2026-08-29T09:49:28Z</time>
      </trkpt>
      <trkpt lat="40.813348582" lon="-3.722074125">
        <ele>1043.60</ele>
        <time>2026-08-29T09:49:31Z</time>
      </trkpt>
      <trkpt lat="40.813238276" lon="-3.721922077">
        <ele>1042.60</ele>
        <time>2026-08-29T09:49:34Z</time>
      </trkpt>
      <trkpt lat="40.813142555" lon="-3.721849658">
        <ele>1041.80</ele>
        <time>2026-08-29T09:49:36Z</time>
      </trkpt>
      <trkpt lat="40.813021185" lon="-3.721799115">
        <ele>1041.40</ele>
        <time>2026-08-29T09:49:38Z</time>
      </trkpt>
      <trkpt lat="40.812890930" lon="-3.721750248">
        <ele>1040.20</ele>
        <time>2026-08-29T09:49:40Z</time>
      </trkpt>
      <trkpt lat="40.812793113" lon="-3.721673889">
        <ele>1038.60</ele>
        <time>2026-08-29T09:49:42Z</time>
      </trkpt>
      <trkpt lat="40.812726896" lon="-3.721566517">
        <ele>1037.60</ele>
        <time>2026-08-29T09:49:44Z</time>
      </trkpt>
      <trkpt lat="40.812662607" lon="-3.721390665">
        <ele>1037.00</ele>
        <time>2026-08-29T09:49:47Z</time>
      </trkpt>
      <trkpt lat="40.812609801" lon="-3.721172316">
        <ele>1036.80</ele>
        <time>2026-08-29T09:49:51Z</time>
      </trkpt>
      <trkpt lat="40.812526988" lon="-3.721041726">
        <ele>1035.80</ele>
        <time>2026-08-29T09:49:55Z</time>
      </trkpt>
      <trkpt lat="40.812453730" lon="-3.720972575">
        <ele>1034.40</ele>
        <time>2026-08-29T09:50:00Z</time>
      </trkpt>
      <trkpt lat="40.812367983" lon="-3.720891858">
        <ele>1033.40</ele>
        <time>2026-08-29T09:50:07Z</time>
      </trkpt>
      <trkpt lat="40.812264970" lon="-3.720765123">
        <ele>1032.00</ele>
        <time>2026-08-29T09:50:45Z</time>
      </trkpt>
      <trkpt lat="40.812139660" lon="-3.720636461">
        <ele>1030.60</ele>
        <time>2026-08-29T09:50:50Z</time>
      </trkpt>
      <trkpt lat="40.812039999" lon="-3.720628079">
        <ele>1030.40</ele>
        <time>2026-08-29T09:50:56Z</time>
      </trkpt>
      <trkpt lat="40.812026085" lon="-3.720527496">
        <ele>1028.40</ele>
        <time>2026-08-29T09:51:00Z</time>
      </trkpt>
      <trkpt lat="40.812055925" lon="-3.720383747">
        <ele>1026.80</ele>
        <time>2026-08-29T09:51:05Z</time>
      </trkpt>
      <trkpt lat="40.811979482" lon="-3.720248463">
        <ele>1023.60</ele>
        <time>2026-08-29T09:51:11Z</time>
      </trkpt>
      <trkpt lat="40.812017703" lon="-3.720134301">
        <ele>1023.20</ele>
        <time>2026-08-29T09:51:16Z</time>
      </trkpt>
      <trkpt lat="40.812002029" lon="-3.719945624">
        <ele>1023.40</ele>
        <time>2026-08-29T09:51:28Z</time>
      </trkpt>
      <trkpt lat="40.811986690" lon="-3.719792822">
        <ele>1022.60</ele>
        <time>2026-08-29T09:51:32Z</time>
      </trkpt>
      <trkpt lat="40.811982751" lon="-3.719671620">
        <ele>1021.40</ele>
        <time>2026-08-29T09:51:35Z</time>
      </trkpt>
      <trkpt lat="40.811967915" lon="-3.719441872">
        <ele>1020.80</ele>
        <time>2026-08-29T09:51:40Z</time>
      </trkpt>
      <trkpt lat="40.811857441" lon="-3.719165185">
        <ele>1021.20</ele>
        <time>2026-08-29T09:51:45Z</time>
      </trkpt>
      <trkpt lat="40.811768090" lon="-3.718965193">
        <ele>1021.20</ele>
        <time>2026-08-29T09:51:49Z</time>
      </trkpt>
      <trkpt lat="40.811634986" lon="-3.718729410">
        <ele>1021.40</ele>
        <time>2026-08-29T09:51:54Z</time>
      </trkpt>
      <trkpt lat="40.811524848" lon="-3.718604436">
        <ele>1021.40</ele>
        <time>2026-08-29T09:51:58Z</time>
      </trkpt>
      <trkpt lat="40.811448907" lon="-3.718524389">
        <ele>1021.40</ele>
        <time>2026-08-29T09:52:00Z</time>
      </trkpt>
      <trkpt lat="40.811393503" lon="-3.718427913">
        <ele>1021.40</ele>
        <time>2026-08-29T09:52:02Z</time>
      </trkpt>
      <trkpt lat="40.811243299" lon="-3.718152065">
        <ele>1021.00</ele>
        <time>2026-08-29T09:52:08Z</time>
      </trkpt>
      <trkpt lat="40.811148752" lon="-3.717987947">
        <ele>1020.40</ele>
        <time>2026-08-29T09:52:11Z</time>
      </trkpt>
      <trkpt lat="40.811128467" lon="-3.717737412">
        <ele>1020.60</ele>
        <time>2026-08-29T09:52:16Z</time>
      </trkpt>
      <trkpt lat="40.811079517" lon="-3.717635823">
        <ele>1022.00</ele>
        <time>2026-08-29T09:52:19Z</time>
      </trkpt>
      <trkpt lat="40.811019083" lon="-3.717530379">
        <ele>1022.80</ele>
        <time>2026-08-29T09:52:22Z</time>
      </trkpt>
      <trkpt lat="40.810907520" lon="-3.717506826">
        <ele>1023.60</ele>
        <time>2026-08-29T09:52:25Z</time>
      </trkpt>
      <trkpt lat="40.810818840" lon="-3.717467934">
        <ele>1024.40</ele>
        <time>2026-08-29T09:52:28Z</time>
      </trkpt>
      <trkpt lat="40.810631169" lon="-3.717435831">
        <ele>1023.80</ele>
        <time>2026-08-29T09:52:34Z</time>
      </trkpt>
      <trkpt lat="40.810486749" lon="-3.717363747">
        <ele>1022.80</ele>
        <time>2026-08-29T09:52:41Z</time>
      </trkpt>
      <trkpt lat="40.810382981" lon="-3.717326112">
        <ele>1021.40</ele>
        <time>2026-08-29T09:52:46Z</time>
      </trkpt>
      <trkpt lat="40.810271585" lon="-3.717273977">
        <ele>1020.20</ele>
        <time>2026-08-29T09:52:52Z</time>
      </trkpt>
      <trkpt lat="40.810191454" lon="-3.717213375">
        <ele>1019.00</ele>
        <time>2026-08-29T09:52:56Z</time>
      </trkpt>
      <trkpt lat="40.810057763" lon="-3.717187811">
        <ele>1017.40</ele>
        <time>2026-08-29T09:53:02Z</time>
      </trkpt>
      <trkpt lat="40.809969837" lon="-3.717159564">
        <ele>1015.60</ele>
        <time>2026-08-29T09:53:06Z</time>
      </trkpt>
      <trkpt lat="40.809875960" lon="-3.717087395">
        <ele>1013.60</ele>
        <time>2026-08-29T09:53:10Z</time>
      </trkpt>
      <trkpt lat="40.809744447" lon="-3.717039535">
        <ele>1011.60</ele>
        <time>2026-08-29T09:53:14Z</time>
      </trkpt>
      <trkpt lat="40.809608828" lon="-3.716974156">
        <ele>1008.60</ele>
        <time>2026-08-29T09:53:18Z</time>
      </trkpt>
      <trkpt lat="40.809457954" lon="-3.716911878">
        <ele>1006.40</ele>
        <time>2026-08-29T09:53:45Z</time>
      </trkpt>
      <trkpt lat="40.809315210" lon="-3.716859911">
        <ele>1005.20</ele>
        <time>2026-08-29T09:53:48Z</time>
      </trkpt>
      <trkpt lat="40.809205491" lon="-3.716857899">
        <ele>1004.20</ele>
        <time>2026-08-29T09:53:50Z</time>
      </trkpt>
      <trkpt lat="40.809063166" lon="-3.716878518">
        <ele>1001.60</ele>
        <time>2026-08-29T09:53:53Z</time>
      </trkpt>
      <trkpt lat="40.808913466" lon="-3.716957308">
        <ele>999.40</ele>
        <time>2026-08-29T09:53:58Z</time>
      </trkpt>
      <trkpt lat="40.808799639" lon="-3.716979185">
        <ele>997.20</ele>
        <time>2026-08-29T09:54:01Z</time>
      </trkpt>
      <trkpt lat="40.808679359" lon="-3.716941969">
        <ele>996.20</ele>
        <time>2026-08-29T09:54:04Z</time>
      </trkpt>
      <trkpt lat="40.808560168" lon="-3.716877345">
        <ele>995.40</ele>
        <time>2026-08-29T09:54:07Z</time>
      </trkpt>
      <trkpt lat="40.808479534" lon="-3.716814732">
        <ele>994.80</ele>
        <time>2026-08-29T09:54:09Z</time>
      </trkpt>
      <trkpt lat="40.808380377" lon="-3.716740720">
        <ele>994.20</ele>
        <time>2026-08-29T09:54:12Z</time>
      </trkpt>
      <trkpt lat="40.808180720" lon="-3.716656147">
        <ele>992.40</ele>
        <time>2026-08-29T09:54:16Z</time>
      </trkpt>
      <trkpt lat="40.808079215" lon="-3.716617590">
        <ele>991.00</ele>
        <time>2026-08-29T09:54:18Z</time>
      </trkpt>
      <trkpt lat="40.807984499" lon="-3.716583643">
        <ele>989.40</ele>
        <time>2026-08-29T09:54:20Z</time>
      </trkpt>
      <trkpt lat="40.807881402" lon="-3.716574423">
        <ele>987.60</ele>
        <time>2026-08-29T09:54:22Z</time>
      </trkpt>
      <trkpt lat="40.807761960" lon="-3.716585319">
        <ele>986.00</ele>
        <time>2026-08-29T09:54:24Z</time>
      </trkpt>
      <trkpt lat="40.807642182" lon="-3.716590097">
        <ele>985.00</ele>
        <time>2026-08-29T09:54:26Z</time>
      </trkpt>
      <trkpt lat="40.807517292" lon="-3.716560006">
        <ele>983.80</ele>
        <time>2026-08-29T09:54:28Z</time>
      </trkpt>
      <trkpt lat="40.807399023" lon="-3.716505943">
        <ele>982.20</ele>
        <time>2026-08-29T09:54:30Z</time>
      </trkpt>
      <trkpt lat="40.807277905" lon="-3.716430757">
        <ele>979.40</ele>
        <time>2026-08-29T09:54:32Z</time>
      </trkpt>
      <trkpt lat="40.807167767" lon="-3.716341825">
        <ele>977.20</ele>
        <time>2026-08-29T09:54:34Z</time>
      </trkpt>
      <trkpt lat="40.807051091" lon="-3.716252642">
        <ele>975.60</ele>
        <time>2026-08-29T09:54:36Z</time>
      </trkpt>
      <trkpt lat="40.806963835" lon="-3.716176199">
        <ele>974.80</ele>
        <time>2026-08-29T09:54:38Z</time>
      </trkpt>
      <trkpt lat="40.806881022" lon="-3.716086261">
        <ele>974.40</ele>
        <time>2026-08-29T09:55:06Z</time>
      </trkpt>
      <trkpt lat="40.806765854" lon="-3.716044435">
        <ele>974.00</ele>
        <time>2026-08-29T09:55:11Z</time>
      </trkpt>
      <trkpt lat="40.806623194" lon="-3.715950139">
        <ele>973.20</ele>
        <time>2026-08-29T09:55:17Z</time>
      </trkpt>
      <trkpt lat="40.806499729" lon="-3.715849807">
        <ele>973.00</ele>
        <time>2026-08-29T09:55:23Z</time>
      </trkpt>
      <trkpt lat="40.806414066" lon="-3.715792559">
        <ele>973.00</ele>
        <time>2026-08-29T09:55:26Z</time>
      </trkpt>
      <trkpt lat="40.806327481" lon="-3.715740759">
        <ele>973.00</ele>
        <time>2026-08-29T09:55:29Z</time>
      </trkpt>
      <trkpt lat="40.806156155" lon="-3.715675464">
        <ele>972.00</ele>
        <time>2026-08-29T09:55:33Z</time>
      </trkpt>
      <trkpt lat="40.806008801" lon="-3.715656521">
        <ele>970.80</ele>
        <time>2026-08-29T09:55:36Z</time>
      </trkpt>
      <trkpt lat="40.805726331" lon="-3.715600278">
        <ele>969.80</ele>
        <time>2026-08-29T09:55:44Z</time>
      </trkpt>
      <trkpt lat="40.805568583" lon="-3.715548059">
        <ele>968.20</ele>
        <time>2026-08-29T09:55:48Z</time>
      </trkpt>
      <trkpt lat="40.805417374" lon="-3.715524590">
        <ele>965.80</ele>
        <time>2026-08-29T09:55:54Z</time>
      </trkpt>
      <trkpt lat="40.805263650" lon="-3.715550406">
        <ele>964.40</ele>
        <time>2026-08-29T09:55:57Z</time>
      </trkpt>
      <trkpt lat="40.805143453" lon="-3.715558117">
        <ele>963.00</ele>
        <time>2026-08-29T09:55:59Z</time>
      </trkpt>
      <trkpt lat="40.805005068" lon="-3.715543700">
        <ele>962.00</ele>
        <time>2026-08-29T09:56:01Z</time>
      </trkpt>
      <trkpt lat="40.804855786" lon="-3.715526601">
        <ele>961.00</ele>
        <time>2026-08-29T09:56:03Z</time>
      </trkpt>
      <trkpt lat="40.804643724" lon="-3.715558536">
        <ele>959.60</ele>
        <time>2026-08-29T09:56:06Z</time>
      </trkpt>
      <trkpt lat="40.804514140" lon="-3.715590136">
        <ele>959.00</ele>
        <time>2026-08-29T09:56:08Z</time>
      </trkpt>
      <trkpt lat="40.804375419" lon="-3.715573205">
        <ele>958.60</ele>
        <time>2026-08-29T09:56:10Z</time>
      </trkpt>
      <trkpt lat="40.804099739" lon="-3.715536492">
        <ele>957.80</ele>
        <time>2026-08-29T09:56:14Z</time>
      </trkpt>
      <trkpt lat="40.803832524" lon="-3.715497935">
        <ele>957.20</ele>
        <time>2026-08-29T09:56:18Z</time>
      </trkpt>
      <trkpt lat="40.803691037" lon="-3.715519561">
        <ele>956.80</ele>
        <time>2026-08-29T09:56:20Z</time>
      </trkpt>
      <trkpt lat="40.803557513" lon="-3.715585694">
        <ele>956.60</ele>
        <time>2026-08-29T09:56:22Z</time>
      </trkpt>
      <trkpt lat="40.803422229" lon="-3.715649480">
        <ele>956.00</ele>
        <time>2026-08-29T09:56:24Z</time>
      </trkpt>
      <trkpt lat="40.803288035" lon="-3.715707483">
        <ele>955.00</ele>
        <time>2026-08-29T09:56:26Z</time>
      </trkpt>
      <trkpt lat="40.803171108" lon="-3.715810832">
        <ele>954.60</ele>
        <time>2026-08-29T09:56:28Z</time>
      </trkpt>
      <trkpt lat="40.803078823" lon="-3.715948714">
        <ele>954.40</ele>
        <time>2026-08-29T09:56:30Z</time>
      </trkpt>
      <trkpt lat="40.802985616" lon="-3.716081064">
        <ele>954.00</ele>
        <time>2026-08-29T09:56:32Z</time>
      </trkpt>
      <trkpt lat="40.802824013" lon="-3.716253061">
        <ele>953.00</ele>
        <time>2026-08-29T09:56:35Z</time>
      </trkpt>
      <trkpt lat="40.802711695" lon="-3.716362026">
        <ele>952.40</ele>
        <time>2026-08-29T09:56:37Z</time>
      </trkpt>
      <trkpt lat="40.802501980" lon="-3.716596551">
        <ele>951.20</ele>
        <time>2026-08-29T09:56:41Z</time>
      </trkpt>
      <trkpt lat="40.802388489" lon="-3.716774415">
        <ele>950.80</ele>
        <time>2026-08-29T09:56:44Z</time>
      </trkpt>
      <trkpt lat="40.802175421" lon="-3.716861587">
        <ele>950.20</ele>
        <time>2026-08-29T09:56:50Z</time>
      </trkpt>
      <trkpt lat="40.802097805" lon="-3.716743737">
        <ele>950.00</ele>
        <time>2026-08-29T09:56:53Z</time>
      </trkpt>
      <trkpt lat="40.802005604" lon="-3.716650028">
        <ele>949.80</ele>
        <time>2026-08-29T09:56:56Z</time>
      </trkpt>
      <trkpt lat="40.801916588" lon="-3.716633096">
        <ele>950.00</ele>
        <time>2026-08-29T09:56:58Z</time>
      </trkpt>
      <trkpt lat="40.801704358" lon="-3.716555731">
        <ele>951.00</ele>
        <time>2026-08-29T09:57:03Z</time>
      </trkpt>
      <trkpt lat="40.801616265" lon="-3.716518851">
        <ele>951.60</ele>
        <time>2026-08-29T09:57:05Z</time>
      </trkpt>
      <trkpt lat="40.801333794" lon="-3.716429584">
        <ele>952.00</ele>
        <time>2026-08-29T09:57:11Z</time>
      </trkpt>
      <trkpt lat="40.801183507" lon="-3.716327073">
        <ele>951.60</ele>
        <time>2026-08-29T09:57:15Z</time>
      </trkpt>
      <trkpt lat="40.801050738" lon="-3.716260688">
        <ele>951.80</ele>
        <time>2026-08-29T09:57:19Z</time>
      </trkpt>
      <trkpt lat="40.800902797" lon="-3.716164632">
        <ele>951.60</ele>
        <time>2026-08-29T09:57:23Z</time>
      </trkpt>
      <trkpt lat="40.800767848" lon="-3.716072096">
        <ele>950.40</ele>
        <time>2026-08-29T09:57:26Z</time>
      </trkpt>
      <trkpt lat="40.800659889" lon="-3.716010740">
        <ele>949.20</ele>
        <time>2026-08-29T09:57:28Z</time>
      </trkpt>
      <trkpt lat="40.800550003" lon="-3.715950139">
        <ele>947.80</ele>
        <time>2026-08-29T09:57:30Z</time>
      </trkpt>
      <trkpt lat="40.800352274" lon="-3.715865733">
        <ele>945.60</ele>
        <time>2026-08-29T09:57:33Z</time>
      </trkpt>
      <trkpt lat="40.800219001" lon="-3.715826673">
        <ele>943.60</ele>
        <time>2026-08-29T09:57:35Z</time>
      </trkpt>
      <trkpt lat="40.800009118" lon="-3.715742016">
        <ele>940.80</ele>
        <time>2026-08-29T09:57:38Z</time>
      </trkpt>
      <trkpt lat="40.799837792" lon="-3.715675548">
        <ele>940.20</ele>
        <time>2026-08-29T09:57:41Z</time>
      </trkpt>
      <trkpt lat="40.799710890" lon="-3.715584185">
        <ele>939.80</ele>
        <time>2026-08-29T09:57:44Z</time>
      </trkpt>
      <trkpt lat="40.799598238" lon="-3.715524338">
        <ele>939.40</ele>
        <time>2026-08-29T09:57:46Z</time>
      </trkpt>
      <trkpt lat="40.799424564" lon="-3.715450075">
        <ele>939.00</ele>
        <time>2026-08-29T09:57:49Z</time>
      </trkpt>
      <trkpt lat="40.799255082" lon="-3.715426940">
        <ele>938.60</ele>
        <time>2026-08-29T09:57:52Z</time>
      </trkpt>
      <trkpt lat="40.799145196" lon="-3.715407830">
        <ele>938.40</ele>
        <time>2026-08-29T09:57:54Z</time>
      </trkpt>
      <trkpt lat="40.799042769" lon="-3.715348234">
        <ele>938.20</ele>
        <time>2026-08-29T09:57:56Z</time>
      </trkpt>
      <trkpt lat="40.798957441" lon="-3.715270534">
        <ele>938.00</ele>
        <time>2026-08-29T09:57:58Z</time>
      </trkpt>
      <trkpt lat="40.798839675" lon="-3.715150254">
        <ele>938.00</ele>
        <time>2026-08-29T09:58:01Z</time>
      </trkpt>
      <trkpt lat="40.798711181" lon="-3.715038607">
        <ele>937.80</ele>
        <time>2026-08-29T09:58:04Z</time>
      </trkpt>
      <trkpt lat="40.798580758" lon="-3.714914052">
        <ele>938.00</ele>
        <time>2026-08-29T09:58:07Z</time>
      </trkpt>
      <trkpt lat="40.798471291" lon="-3.714793939">
        <ele>938.20</ele>
        <time>2026-08-29T09:58:10Z</time>
      </trkpt>
      <trkpt lat="40.798403146" lon="-3.714693105">
        <ele>938.40</ele>
        <time>2026-08-29T09:58:12Z</time>
      </trkpt>
      <trkpt lat="40.798245063" lon="-3.714562180">
        <ele>938.00</ele>
        <time>2026-08-29T09:58:15Z</time>
      </trkpt>
      <trkpt lat="40.798139451" lon="-3.714463608">
        <ele>937.20</ele>
        <time>2026-08-29T09:58:17Z</time>
      </trkpt>
      <trkpt lat="40.797957815" lon="-3.714288929">
        <ele>935.60</ele>
        <time>2026-08-29T09:58:20Z</time>
      </trkpt>
      <trkpt lat="40.797834266" lon="-3.714165799">
        <ele>934.60</ele>
        <time>2026-08-29T09:58:22Z</time>
      </trkpt>
      <trkpt lat="40.797710884" lon="-3.714055158">
        <ele>934.00</ele>
        <time>2026-08-29T09:58:24Z</time>
      </trkpt>
      <trkpt lat="40.797497062" lon="-3.713877881">
        <ele>933.80</ele>
        <time>2026-08-29T09:58:28Z</time>
      </trkpt>
      <trkpt lat="40.797390863" lon="-3.713753577">
        <ele>933.60</ele>
        <time>2026-08-29T09:58:30Z</time>
      </trkpt>
      <trkpt lat="40.797163881" lon="-3.713457026">
        <ele>933.00</ele>
        <time>2026-08-29T09:58:35Z</time>
      </trkpt>
      <trkpt lat="40.797090288" lon="-3.713378990">
        <ele>932.60</ele>
        <time>2026-08-29T09:58:37Z</time>
      </trkpt>
      <trkpt lat="40.796979563" lon="-3.713263907">
        <ele>931.60</ele>
        <time>2026-08-29T09:58:41Z</time>
      </trkpt>
      <trkpt lat="40.796872526" lon="-3.713193163">
        <ele>930.40</ele>
        <time>2026-08-29T09:58:55Z</time>
      </trkpt>
      <trkpt lat="40.796794491" lon="-3.713123258">
        <ele>930.20</ele>
        <time>2026-08-29T09:59:17Z</time>
      </trkpt>
      <trkpt lat="40.796659794" lon="-3.713049665">
        <ele>929.80</ele>
        <time>2026-08-29T09:59:22Z</time>
      </trkpt>
      <trkpt lat="40.796564240" lon="-3.713021250">
        <ele>929.20</ele>
        <time>2026-08-29T09:59:24Z</time>
      </trkpt>
      <trkpt lat="40.796404565" lon="-3.712959392">
        <ele>927.20</ele>
        <time>2026-08-29T09:59:27Z</time>
      </trkpt>
      <trkpt lat="40.796291158" lon="-3.712902479">
        <ele>926.20</ele>
        <time>2026-08-29T09:59:29Z</time>
      </trkpt>
      <trkpt lat="40.796174230" lon="-3.712835927">
        <ele>924.80</ele>
        <time>2026-08-29T09:59:31Z</time>
      </trkpt>
      <trkpt lat="40.795970047" lon="-3.712739116">
        <ele>923.60</ele>
        <time>2026-08-29T09:59:34Z</time>
      </trkpt>
      <trkpt lat="40.795835098" lon="-3.712662924">
        <ele>922.80</ele>
        <time>2026-08-29T09:59:36Z</time>
      </trkpt>
      <trkpt lat="40.795631837" lon="-3.712563850">
        <ele>921.80</ele>
        <time>2026-08-29T09:59:39Z</time>
      </trkpt>
      <trkpt lat="40.795501331" lon="-3.712493610">
        <ele>921.00</ele>
        <time>2026-08-29T09:59:41Z</time>
      </trkpt>
      <trkpt lat="40.795375602" lon="-3.712428147">
        <ele>920.20</ele>
        <time>2026-08-29T09:59:43Z</time>
      </trkpt>
      <trkpt lat="40.795247108" lon="-3.712360170">
        <ele>919.80</ele>
        <time>2026-08-29T09:59:45Z</time>
      </trkpt>
      <trkpt lat="40.795128755" lon="-3.712283643">
        <ele>919.20</ele>
        <time>2026-08-29T09:59:47Z</time>
      </trkpt>
      <trkpt lat="40.794841340" lon="-3.712129919">
        <ele>918.20</ele>
        <time>2026-08-29T09:59:52Z</time>
      </trkpt>
      <trkpt lat="40.794735895" lon="-3.712066719">
        <ele>918.00</ele>
        <time>2026-08-29T09:59:54Z</time>
      </trkpt>
      <trkpt lat="40.794643359" lon="-3.712004609">
        <ele>917.80</ele>
        <time>2026-08-29T09:59:56Z</time>
      </trkpt>
      <trkpt lat="40.794528611" lon="-3.711985834">
        <ele>917.40</ele>
        <time>2026-08-29T09:59:58Z</time>
      </trkpt>
      <trkpt lat="40.794400116" lon="-3.711973010">
        <ele>917.20</ele>
        <time>2026-08-29T10:00:00Z</time>
      </trkpt>
      <trkpt lat="40.794193167" lon="-3.711949708">
        <ele>916.40</ele>
        <time>2026-08-29T10:00:03Z</time>
      </trkpt>
      <trkpt lat="40.793929305" lon="-3.711791793">
        <ele>914.60</ele>
        <time>2026-08-29T10:00:07Z</time>
      </trkpt>
      <trkpt lat="40.793794105" lon="-3.711713841">
        <ele>914.00</ele>
        <time>2026-08-29T10:00:09Z</time>
      </trkpt>
      <trkpt lat="40.793617247" lon="-3.711574031">
        <ele>913.20</ele>
        <time>2026-08-29T10:00:12Z</time>
      </trkpt>
      <trkpt lat="40.793490428" lon="-3.711374626">
        <ele>912.80</ele>
        <time>2026-08-29T10:00:15Z</time>
      </trkpt>
      <trkpt lat="40.793416500" lon="-3.711153427">
        <ele>912.40</ele>
        <time>2026-08-29T10:00:18Z</time>
      </trkpt>
      <trkpt lat="40.793402921" lon="-3.710932983">
        <ele>912.00</ele>
        <time>2026-08-29T10:00:21Z</time>
      </trkpt>
      <trkpt lat="40.793402167" lon="-3.710788479">
        <ele>911.60</ele>
        <time>2026-08-29T10:00:23Z</time>
      </trkpt>
      <trkpt lat="40.793392360" lon="-3.710651435">
        <ele>911.20</ele>
        <time>2026-08-29T10:00:25Z</time>
      </trkpt>
      <trkpt lat="40.793363024" lon="-3.710508440">
        <ele>911.00</ele>
        <time>2026-08-29T10:00:27Z</time>
      </trkpt>
      <trkpt lat="40.793343242" lon="-3.710340969">
        <ele>910.80</ele>
        <time>2026-08-29T10:00:29Z</time>
      </trkpt>
      <trkpt lat="40.793326646" lon="-3.710185317">
        <ele>910.60</ele>
        <time>2026-08-29T10:00:31Z</time>
      </trkpt>
      <trkpt lat="40.793294376" lon="-3.709776280">
        <ele>910.20</ele>
        <time>2026-08-29T10:00:36Z</time>
      </trkpt>
      <trkpt lat="40.793237463" lon="-3.709485177">
        <ele>910.00</ele>
        <time>2026-08-29T10:00:40Z</time>
      </trkpt>
      <trkpt lat="40.793212485" lon="-3.709346959">
        <ele>909.80</ele>
        <time>2026-08-29T10:00:42Z</time>
      </trkpt>
      <trkpt lat="40.793150375" lon="-3.709149649">
        <ele>909.60</ele>
        <time>2026-08-29T10:00:45Z</time>
      </trkpt>
      <trkpt lat="40.793048115" lon="-3.708903557">
        <ele>909.60</ele>
        <time>2026-08-29T10:00:49Z</time>
      </trkpt>
      <trkpt lat="40.792967314" lon="-3.708736422">
        <ele>909.40</ele>
        <time>2026-08-29T10:00:52Z</time>
      </trkpt>
      <trkpt lat="40.792999668" lon="-3.708550846">
        <ele>909.60</ele>
        <time>2026-08-29T10:00:57Z</time>
      </trkpt>
      <trkpt lat="40.792991202" lon="-3.708436936">
        <ele>910.20</ele>
        <time>2026-08-29T10:01:02Z</time>
      </trkpt>
      <trkpt lat="40.792905288" lon="-3.708497286">
        <ele>910.20</ele>
        <time>2026-08-29T10:01:10Z</time>
      </trkpt>
      <trkpt lat="40.792832449" lon="-3.708653608">
        <ele>909.80</ele>
        <time>2026-08-29T10:01:15Z</time>
      </trkpt>
      <trkpt lat="40.792662129" lon="-3.708803477">
        <ele>909.80</ele>
        <time>2026-08-29T10:01:21Z</time>
      </trkpt>
      <trkpt lat="40.792571688" lon="-3.708697446">
        <ele>909.20</ele>
        <time>2026-08-29T10:01:24Z</time>
      </trkpt>
      <trkpt lat="40.792408995" lon="-3.708522096">
        <ele>909.20</ele>
        <time>2026-08-29T10:01:29Z</time>
      </trkpt>
      <trkpt lat="40.792296259" lon="-3.708419586">
        <ele>909.20</ele>
        <time>2026-08-29T10:01:32Z</time>
      </trkpt>
      <trkpt lat="40.792221744" lon="-3.708349094">
        <ele>909.40</ele>
        <time>2026-08-29T10:01:34Z</time>
      </trkpt>
      <trkpt lat="40.792030888" lon="-3.708292767">
        <ele>909.60</ele>
        <time>2026-08-29T10:01:38Z</time>
      </trkpt>
      <trkpt lat="40.791658144" lon="-3.708246248">
        <ele>910.00</ele>
        <time>2026-08-29T10:01:45Z</time>
      </trkpt>
      <trkpt lat="40.791400652" lon="-3.708204674">
        <ele>910.20</ele>
        <time>2026-08-29T10:01:50Z</time>
      </trkpt>
      <trkpt lat="40.791089768" lon="-3.708189419">
        <ele>910.00</ele>
        <time>2026-08-29T10:01:56Z</time>
      </trkpt>
      <trkpt lat="40.790945850" lon="-3.708150694">
        <ele>910.40</ele>
        <time>2026-08-29T10:01:59Z</time>
      </trkpt>
      <trkpt lat="40.790762119" lon="-3.707991941">
        <ele>911.60</ele>
        <time>2026-08-29T10:02:05Z</time>
      </trkpt>
      <trkpt lat="40.790701350" lon="-3.707865290">
        <ele>912.20</ele>
        <time>2026-08-29T10:02:08Z</time>
      </trkpt>
      <trkpt lat="40.790602947" lon="-3.707682062">
        <ele>912.20</ele>
        <time>2026-08-29T10:02:12Z</time>
      </trkpt>
      <trkpt lat="40.790507058" lon="-3.707458936">
        <ele>912.20</ele>
        <time>2026-08-29T10:02:16Z</time>
      </trkpt>
      <trkpt lat="40.790436231" lon="-3.707268080">
        <ele>912.40</ele>
        <time>2026-08-29T10:02:19Z</time>
      </trkpt>
      <trkpt lat="40.790383928" lon="-3.707142770">
        <ele>912.40</ele>
        <time>2026-08-29T10:02:21Z</time>
      </trkpt>
      <trkpt lat="40.790206315" lon="-3.706839848">
        <ele>912.20</ele>
        <time>2026-08-29T10:02:26Z</time>
      </trkpt>
      <trkpt lat="40.789991822" lon="-3.706681263">
        <ele>911.40</ele>
        <time>2026-08-29T10:02:30Z</time>
      </trkpt>
      <trkpt lat="40.789812952" lon="-3.706573052">
        <ele>911.00</ele>
        <time>2026-08-29T10:02:33Z</time>
      </trkpt>
      <trkpt lat="40.789689571" lon="-3.706545979">
        <ele>910.80</ele>
        <time>2026-08-29T10:02:35Z</time>
      </trkpt>
      <trkpt lat="40.789563591" lon="-3.706537932">
        <ele>910.40</ele>
        <time>2026-08-29T10:02:37Z</time>
      </trkpt>
      <trkpt lat="40.789451608" lon="-3.706553690">
        <ele>909.80</ele>
        <time>2026-08-29T10:02:39Z</time>
      </trkpt>
      <trkpt lat="40.789353456" lon="-3.706552433">
        <ele>909.60</ele>
        <time>2026-08-29T10:02:42Z</time>
      </trkpt>
      <trkpt lat="40.789278690" lon="-3.706443636">
        <ele>909.60</ele>
        <time>2026-08-29T10:02:47Z</time>
      </trkpt>
      <trkpt lat="40.789173748" lon="-3.706366187">
        <ele>909.40</ele>
        <time>2026-08-29T10:02:51Z</time>
      </trkpt>
      <trkpt lat="40.789034022" lon="-3.706424441">
        <ele>909.20</ele>
        <time>2026-08-29T10:02:54Z</time>
      </trkpt>
      <trkpt lat="40.788888680" lon="-3.706451934">
        <ele>908.60</ele>
        <time>2026-08-29T10:02:57Z</time>
      </trkpt>
      <trkpt lat="40.788791031" lon="-3.706463920">
        <ele>908.60</ele>
        <time>2026-08-29T10:02:59Z</time>
      </trkpt>
      <trkpt lat="40.788569162" lon="-3.706373814">
        <ele>908.20</ele>
        <time>2026-08-29T10:03:05Z</time>
      </trkpt>
      <trkpt lat="40.788480816" lon="-3.706338275">
        <ele>908.20</ele>
        <time>2026-08-29T10:03:07Z</time>
      </trkpt>
      <trkpt lat="40.788348885" lon="-3.706259737">
        <ele>908.20</ele>
        <time>2026-08-29T10:03:10Z</time>
      </trkpt>
      <trkpt lat="40.788174458" lon="-3.706113556">
        <ele>908.00</ele>
        <time>2026-08-29T10:03:14Z</time>
      </trkpt>
      <trkpt lat="40.788085861" lon="-3.706056476">
        <ele>907.80</ele>
        <time>2026-08-29T10:03:16Z</time>
      </trkpt>
      <trkpt lat="40.787965497" lon="-3.705938039">
        <ele>907.60</ele>
        <time>2026-08-29T10:03:22Z</time>
      </trkpt>
      <trkpt lat="40.787856113" lon="-3.705852125">
        <ele>907.00</ele>
        <time>2026-08-29T10:03:29Z</time>
      </trkpt>
      <trkpt lat="40.787898442" lon="-3.705754727">
        <ele>906.80</ele>
        <time>2026-08-29T10:03:47Z</time>
      </trkpt>
      <trkpt lat="40.788013106" lon="-3.705572924">
        <ele>906.00</ele>
        <time>2026-08-29T10:03:57Z</time>
      </trkpt>
      <trkpt lat="40.788095668" lon="-3.705450715">
        <ele>906.00</ele>
        <time>2026-08-29T10:04:04Z</time>
      </trkpt>
      <trkpt lat="40.788168758" lon="-3.705314090">
        <ele>906.00</ele>
        <time>2026-08-29T10:04:09Z</time>
      </trkpt>
      <trkpt lat="40.788253415" lon="-3.705115439">
        <ele>906.00</ele>
        <time>2026-08-29T10:04:15Z</time>
      </trkpt>
      <trkpt lat="40.788269341" lon="-3.704935815">
        <ele>905.60</ele>
        <time>2026-08-29T10:04:19Z</time>
      </trkpt>
      <trkpt lat="40.788229359" lon="-3.704808829">
        <ele>905.20</ele>
        <time>2026-08-29T10:04:21Z</time>
      </trkpt>
      <trkpt lat="40.788171357" lon="-3.704658207">
        <ele>903.40</ele>
        <time>2026-08-29T10:04:23Z</time>
      </trkpt>
      <trkpt lat="40.788107486" lon="-3.704510853">
        <ele>902.80</ele>
        <time>2026-08-29T10:04:25Z</time>
      </trkpt>
      <trkpt lat="40.788051076" lon="-3.704366013">
        <ele>902.60</ele>
        <time>2026-08-29T10:04:27Z</time>
      </trkpt>
      <trkpt lat="40.788006987" lon="-3.704130566">
        <ele>902.00</ele>
        <time>2026-08-29T10:04:30Z</time>
      </trkpt>
      <trkpt lat="40.788008915" lon="-3.703972735">
        <ele>901.60</ele>
        <time>2026-08-29T10:04:32Z</time>
      </trkpt>
      <trkpt lat="40.788027188" lon="-3.703750698">
        <ele>901.40</ele>
        <time>2026-08-29T10:04:35Z</time>
      </trkpt>
      <trkpt lat="40.788036073" lon="-3.703471664">
        <ele>901.40</ele>
        <time>2026-08-29T10:04:39Z</time>
      </trkpt>
      <trkpt lat="40.788033390" lon="-3.703323724">
        <ele>901.20</ele>
        <time>2026-08-29T10:04:41Z</time>
      </trkpt>
      <trkpt lat="40.787974382" lon="-3.702873364">
        <ele>901.00</ele>
        <time>2026-08-29T10:04:47Z</time>
      </trkpt>
      <trkpt lat="40.787909757" lon="-3.702465920">
        <ele>900.00</ele>
        <time>2026-08-29T10:04:52Z</time>
      </trkpt>
      <trkpt lat="40.787863322" lon="-3.702321751">
        <ele>899.80</ele>
        <time>2026-08-29T10:04:54Z</time>
      </trkpt>
      <trkpt lat="40.787813868" lon="-3.702170542">
        <ele>899.60</ele>
        <time>2026-08-29T10:04:56Z</time>
      </trkpt>
      <trkpt lat="40.787669867" lon="-3.701759409">
        <ele>899.20</ele>
        <time>2026-08-29T10:05:02Z</time>
      </trkpt>
      <trkpt lat="40.787493344" lon="-3.701364873">
        <ele>899.00</ele>
        <time>2026-08-29T10:05:08Z</time>
      </trkpt>
      <trkpt lat="40.787426457" lon="-3.701174939">
        <ele>899.00</ele>
        <time>2026-08-29T10:05:11Z</time>
      </trkpt>
      <trkpt lat="40.787382703" lon="-3.700987939">
        <ele>899.00</ele>
        <time>2026-08-29T10:05:14Z</time>
      </trkpt>
      <trkpt lat="40.787324784" lon="-3.700766992">
        <ele>898.80</ele>
        <time>2026-08-29T10:05:18Z</time>
      </trkpt>
      <trkpt lat="40.787293771" lon="-3.700604467">
        <ele>899.00</ele>
        <time>2026-08-29T10:05:21Z</time>
      </trkpt>
      <trkpt lat="40.787267117" lon="-3.700447893">
        <ele>898.80</ele>
        <time>2026-08-29T10:05:24Z</time>
      </trkpt>
      <trkpt lat="40.787245743" lon="-3.700221749">
        <ele>898.60</ele>
        <time>2026-08-29T10:05:28Z</time>
      </trkpt>
      <trkpt lat="40.787243228" lon="-3.700034581">
        <ele>898.40</ele>
        <time>2026-08-29T10:05:31Z</time>
      </trkpt>
      <trkpt lat="40.787253371" lon="-3.699878426">
        <ele>898.40</ele>
        <time>2026-08-29T10:05:34Z</time>
      </trkpt>
      <trkpt lat="40.787271140" lon="-3.699580785">
        <ele>898.00</ele>
        <time>2026-08-29T10:05:40Z</time>
      </trkpt>
      <trkpt lat="40.787337860" lon="-3.699218268">
        <ele>897.60</ele>
        <time>2026-08-29T10:05:46Z</time>
      </trkpt>
      <trkpt lat="40.787460236" lon="-3.698858600">
        <ele>897.40</ele>
        <time>2026-08-29T10:05:52Z</time>
      </trkpt>
      <trkpt lat="40.787558639" lon="-3.698587110">
        <ele>897.20</ele>
        <time>2026-08-29T10:05:57Z</time>
      </trkpt>
      <trkpt lat="40.787632149" lon="-3.698415952">
        <ele>897.20</ele>
        <time>2026-08-29T10:06:00Z</time>
      </trkpt>
      <trkpt lat="40.787709933" lon="-3.698258121">
        <ele>896.80</ele>
        <time>2026-08-29T10:06:03Z</time>
      </trkpt>
      <trkpt lat="40.787953762" lon="-3.697860651">
        <ele>896.60</ele>
        <time>2026-08-29T10:06:11Z</time>
      </trkpt>
      <trkpt lat="40.788160879" lon="-3.697449435">
        <ele>896.60</ele>
        <time>2026-08-29T10:06:19Z</time>
      </trkpt>
      <trkpt lat="40.788274705" lon="-3.697126647">
        <ele>896.80</ele>
        <time>2026-08-29T10:06:25Z</time>
      </trkpt>
      <trkpt lat="40.788354920" lon="-3.696759520">
        <ele>896.40</ele>
        <time>2026-08-29T10:06:31Z</time>
      </trkpt>
      <trkpt lat="40.788408648" lon="-3.696479565">
        <ele>896.00</ele>
        <time>2026-08-29T10:06:36Z</time>
      </trkpt>
      <trkpt lat="40.788583327" lon="-3.695972878">
        <ele>895.60</ele>
        <time>2026-08-29T10:06:45Z</time>
      </trkpt>
      <trkpt lat="40.788666476" lon="-3.695606003">
        <ele>895.60</ele>
        <time>2026-08-29T10:06:51Z</time>
      </trkpt>
      <trkpt lat="40.788719449" lon="-3.695446746">
        <ele>895.60</ele>
        <time>2026-08-29T10:06:54Z</time>
      </trkpt>
      <trkpt lat="40.788785163" lon="-3.695290592">
        <ele>895.60</ele>
        <time>2026-08-29T10:06:57Z</time>
      </trkpt>
      <trkpt lat="40.788942492" lon="-3.694919273">
        <ele>895.20</ele>
        <time>2026-08-29T10:07:04Z</time>
      </trkpt>
      <trkpt lat="40.789083811" lon="-3.694512751">
        <ele>895.00</ele>
        <time>2026-08-29T10:07:11Z</time>
      </trkpt>
      <trkpt lat="40.789111219" lon="-3.694389118">
        <ele>894.80</ele>
        <time>2026-08-29T10:07:13Z</time>
      </trkpt>
      <trkpt lat="40.789144160" lon="-3.694202201">
        <ele>894.60</ele>
        <time>2026-08-29T10:07:16Z</time>
      </trkpt>
      <trkpt lat="40.789148686" lon="-3.694081921">
        <ele>894.60</ele>
        <time>2026-08-29T10:07:18Z</time>
      </trkpt>
      <trkpt lat="40.789174670" lon="-3.693659976">
        <ele>894.60</ele>
        <time>2026-08-29T10:07:25Z</time>
      </trkpt>
      <trkpt lat="40.789175006" lon="-3.693469036">
        <ele>894.20</ele>
        <time>2026-08-29T10:07:28Z</time>
      </trkpt>
      <trkpt lat="40.789168300" lon="-3.693282120">
        <ele>894.20</ele>
        <time>2026-08-29T10:07:31Z</time>
      </trkpt>
      <trkpt lat="40.789094204" lon="-3.692920860">
        <ele>894.00</ele>
        <time>2026-08-29T10:07:37Z</time>
      </trkpt>
      <trkpt lat="40.789066879" lon="-3.692793120">
        <ele>893.80</ele>
        <time>2026-08-29T10:07:39Z</time>
      </trkpt>
      <trkpt lat="40.789012313" lon="-3.692556666">
        <ele>893.80</ele>
        <time>2026-08-29T10:07:43Z</time>
      </trkpt>
      <trkpt lat="40.788912652" lon="-3.692163974">
        <ele>893.40</ele>
        <time>2026-08-29T10:07:49Z</time>
      </trkpt>
      <trkpt lat="40.788820870" lon="-3.691854849">
        <ele>893.20</ele>
        <time>2026-08-29T10:07:54Z</time>
      </trkpt>
      <trkpt lat="40.788684664" lon="-3.691505073">
        <ele>893.00</ele>
        <time>2026-08-29T10:08:00Z</time>
      </trkpt>
      <trkpt lat="40.788517781" lon="-3.691205336">
        <ele>892.80</ele>
        <time>2026-08-29T10:08:06Z</time>
      </trkpt>
      <trkpt lat="40.788375121" lon="-3.690922447">
        <ele>893.00</ele>
        <time>2026-08-29T10:08:12Z</time>
      </trkpt>
      <trkpt lat="40.788303874" lon="-3.690712145">
        <ele>893.60</ele>
        <time>2026-08-29T10:08:18Z</time>
      </trkpt>
      <trkpt lat="40.788231706" lon="-3.690565294">
        <ele>894.20</ele>
        <time>2026-08-29T10:08:23Z</time>
      </trkpt>
      <trkpt lat="40.788126262" lon="-3.690639641">
        <ele>894.80</ele>
        <time>2026-08-29T10:08:27Z</time>
      </trkpt>
      <trkpt lat="40.787947057" lon="-3.690821361">
        <ele>894.80</ele>
        <time>2026-08-29T10:08:33Z</time>
      </trkpt>
      <trkpt lat="40.787744299" lon="-3.691010289">
        <ele>894.80</ele>
        <time>2026-08-29T10:08:39Z</time>
      </trkpt>
      <trkpt lat="40.787576493" lon="-3.691100981">
        <ele>894.80</ele>
        <time>2026-08-29T10:08:43Z</time>
      </trkpt>
      <trkpt lat="40.787255550" lon="-3.691153871">
        <ele>894.60</ele>
        <time>2026-08-29T10:08:49Z</time>
      </trkpt>
      <trkpt lat="40.786961261" lon="-3.691193266">
        <ele>894.40</ele>
        <time>2026-08-29T10:08:55Z</time>
      </trkpt>
      <trkpt lat="40.786711983" lon="-3.691215226">
        <ele>894.80</ele>
        <time>2026-08-29T10:09:00Z</time>
      </trkpt>
      <trkpt lat="40.786616011" lon="-3.691239618">
        <ele>894.80</ele>
        <time>2026-08-29T10:09:02Z</time>
      </trkpt>
      <trkpt lat="40.786474608" lon="-3.691295944">
        <ele>895.20</ele>
        <time>2026-08-29T10:09:05Z</time>
      </trkpt>
      <trkpt lat="40.786158526" lon="-3.691454781">
        <ele>895.60</ele>
        <time>2026-08-29T10:09:12Z</time>
      </trkpt>
      <trkpt lat="40.786000695" lon="-3.691585120">
        <ele>895.80</ele>
        <time>2026-08-29T10:09:16Z</time>
      </trkpt>
      <trkpt lat="40.785846971" lon="-3.691725852">
        <ele>895.80</ele>
        <time>2026-08-29T10:09:20Z</time>
      </trkpt>
      <trkpt lat="40.785761727" lon="-3.691781759">
        <ele>896.00</ele>
        <time>2026-08-29T10:09:22Z</time>
      </trkpt>
      <trkpt lat="40.785644548" lon="-3.691828027">
        <ele>896.20</ele>
        <time>2026-08-29T10:09:25Z</time>
      </trkpt>
      <trkpt lat="40.785407843" lon="-3.691905476">
        <ele>896.20</ele>
        <time>2026-08-29T10:09:32Z</time>
      </trkpt>
      <trkpt lat="40.785212629" lon="-3.691945206">
        <ele>896.20</ele>
        <time>2026-08-29T10:09:38Z</time>
      </trkpt>
      <trkpt lat="40.785097377" lon="-3.691967754">
        <ele>896.00</ele>
        <time>2026-08-29T10:09:43Z</time>
      </trkpt>
      <trkpt lat="40.784991765" lon="-3.691933807">
        <ele>895.80</ele>
        <time>2026-08-29T10:09:48Z</time>
      </trkpt>
      <trkpt lat="40.784987658" lon="-3.691933472">
        <ele>895.80</ele>
        <time>2026-08-29T10:09:49Z</time>
      </trkpt>
    </trkseg>
  </trk>
</gpx>
